[[{"header":{"parameterUnit":"m.s-1","parameterCategory":1,"la1":30.6,"la2":29.2853,"lo1":-89.7004,"lo2":-87.6739,"dy":0.0162,"dx":0.0183,"nx":112,"ny":82,"refTime":"2023-09-09T06:00:00:Z","depth":0,"parameterNumber":2,"parameterNumberName":"U-component_of_WINDS"},"data":[0.0,0.0,0.0,0.0,0.0,0.0,0.0,0.0,0.0,0.0,0.0,0.0,0.0,0.0,0.0,0.0,0.0,0.0,0.0,0.0,0.0,0.0,0.0,0.0,0.0,0.0,0.0,0.0,0.0,0.0,0.0,0.0,0.0,0.0,0.0,0.0,0.0,0.0,0.0,0.0,0.0,0.0,0.0,0.0,0.0,0.0,0.0,0.0,0.0,0.0,0.0,0.0,0.0,0.0,0.0,0.0,0.0,0.0,0.0,0.0,0.0,0.0,0.0,0.0,0.0,0.0,0.0,0.0,0.0,0.0,0.0,0.0,0.0,0.0,0.0,0.0,0.0,0.0,0.0,0.0,0.0,0.0,0.0,0.0,0.0,0.0,0.0,0.0,0.0,0.0,2.8231,2.8304,2.9485,3.0054,2.9468,2.8872,2.7534,2.5243,0.0,0.0,0.0,0.0,0.0,0.0,0.0,0.0,0.0,0.0,0.0,0.0,0.0,0.0,0.0,0.0,0.0,0.0,0.0,0.0,0.0,0.0,0.0,0.0,0.0,0.0,0.0,0.0,0.0,0.0,0.0,0.0,0.0,0.0,0.0,0.0,0.0,0.0,0.0,0.0,0.0,0.0,0.0,0.0,0.0,0.0,0.0,0.0,0.0,0.0,0.0,0.0,0.0,0.0,0.0,0.0,0.0,0.0,0.0,0.0,0.0,0.0,0.0,0.0,0.0,0.0,0.0,0.0,0.0,0.0,0.0,0.0,0.0,0.0,0.0,0.0,0.0,0.0,0.0,0.0,0.0,0.0,0.0,0.0,0.0,0.0,0.0,0.0,0.0,0.0,0.0,0.0,0.0,0.0,0.0,0.0,0.0,0.0,0.0,0.0,0.0,0.0,0.0,0.0,2.7746,2.9213,2.9599,2.9675,2.9584,2.8966,2.7489,2.4851,0.0,0.0,0.0,0.0,0.0,0.0,0.0,0.0,0.0,0.0,0.0,0.0,0.0,0.0,0.0,0.0,0.0,0.0,0.0,0.0,0.0,0.0,0.0,0.0,0.0,0.0,0.0,0.0,0.0,0.0,0.0,0.0,0.0,0.0,0.0,0.0,0.0,0.0,0.0,0.0,0.0,0.0,0.0,0.0,0.0,0.0,0.0,0.0,0.0,0.0,0.0,0.0,0.0,0.0,0.0,0.0,0.0,0.0,0.0,0.0,0.0,0.0,0.0,0.0,0.0,0.0,0.0,0.0,0.0,0.0,0.0,0.0,0.0,0.0,0.0,0.0,0.0,0.0,0.0,0.0,0.0,0.0,0.0,0.0,0.0,0.0,0.0,0.0,0.0,0.0,0.0,0.0,0.0,0.0,0.0,0.0,0.0,0.0,0.0,0.0,0.0,0.0,0.0,2.718,2.8423,2.9933,3.0088,2.9953,2.9609,2.931,2.7993,2.533,2.4866,0.0,0.0,0.0,0.0,0.0,0.0,0.0,0.0,0.0,0.0,0.0,0.0,0.0,0.0,0.0,0.0,0.0,0.0,0.0,0.0,0.0,0.0,0.0,0.0,0.0,0.0,0.0,0.0,0.0,0.0,0.0,0.0,0.0,0.0,0.0,0.0,0.0,0.0,0.0,0.0,0.0,0.0,0.0,0.0,0.0,0.0,0.0,0.0,0.0,0.0,0.0,0.0,0.0,0.0,0.0,0.0,0.0,0.0,0.0,0.0,0.0,0.0,0.0,0.0,0.0,0.0,0.0,0.0,0.0,0.0,0.0,0.0,0.0,0.0,0.0,0.0,0.0,0.0,0.0,0.0,0.0,0.0,0.0,0.0,0.0,0.0,0.0,0.0,0.0,0.0,0.0,0.0,0.0,0.0,0.0,0.0,0.0,0.0,0.0,0.0,0.0,0.0,2.8366,2.9669,3.0642,3.0746,3.0552,3.0088,2.9624,2.8353,2.5989,2.539,0.0,0.0,0.0,0.0,0.0,0.0,0.0,0.0,0.0,0.0,0.0,0.0,0.0,0.0,0.0,0.0,0.0,0.0,0.0,0.0,0.0,0.0,0.0,0.0,0.0,0.0,0.0,0.0,0.0,0.0,0.0,0.0,0.0,0.0,0.0,0.0,0.0,0.0,0.0,0.0,0.0,0.0,0.0,0.0,0.0,0.0,0.0,0.0,0.0,0.0,0.0,0.0,0.0,0.0,0.0,0.0,0.0,0.0,0.0,0.0,0.0,0.0,0.0,0.0,0.0,0.0,0.0,0.0,0.0,0.0,0.0,0.0,0.0,0.0,0.0,0.0,0.0,0.0,0.0,0.0,0.0,0.0,0.0,0.0,0.0,0.0,0.0,0.0,0.0,0.0,0.0,0.0,0.0,0.0,0.0,0.0,0.0,0.0,0.0,0.0,0.0,0.0,3.0038,3.1302,3.1392,3.1407,3.1377,3.1405,2.9714,2.8053,2.6617,2.4762,0.0,0.0,0.0,0.0,0.0,0.0,0.0,0.0,0.0,0.0,0.0,0.0,0.0,0.0,0.0,0.0,0.0,0.0,0.0,0.0,0.0,0.0,0.0,0.0,0.0,0.0,0.0,0.0,0.0,0.0,0.0,0.0,0.0,0.0,0.0,0.0,0.0,0.0,0.0,0.0,0.0,0.0,0.0,0.0,0.0,0.0,0.0,0.0,0.0,0.0,0.0,0.0,0.0,0.0,0.0,0.0,0.0,0.0,0.0,0.0,0.0,0.0,0.0,0.0,0.0,0.0,0.0,0.0,0.0,0.0,0.0,0.0,0.0,0.0,0.0,0.0,0.0,0.0,0.0,0.0,0.0,0.0,0.0,0.0,0.0,0.0,0.0,0.0,0.0,0.0,0.0,0.0,0.0,0.0,0.0,0.0,0.0,0.0,0.0,0.0,0.0,0.0,2.932,3.0627,0.0,3.1482,3.1482,3.1482,3.0851,2.9505,2.7335,0.0,0.0,0.0,0.0,0.0,0.0,0.0,0.0,0.0,0.0,0.0,0.0,0.0,0.0,0.0,0.0,0.0,0.0,0.0,0.0,0.0,0.0,0.0,0.0,0.0,0.0,0.0,0.0,0.0,0.0,0.0,0.0,0.0,0.0,0.0,0.0,0.0,0.0,0.0,0.0,0.0,0.0,0.0,0.0,0.0,0.0,0.0,0.0,0.0,0.0,0.0,0.0,0.0,0.0,0.0,0.0,0.0,0.0,0.0,0.0,0.0,0.0,0.0,0.0,0.0,0.0,0.0,0.0,0.0,0.0,0.0,0.0,0.0,0.0,0.0,0.0,0.0,0.0,0.0,0.0,0.0,0.0,0.0,0.0,0.0,0.0,0.0,0.0,0.0,0.0,0.0,0.0,0.0,0.0,0.0,0.0,0.0,0.0,0.0,0.0,0.0,0.0,2.7455,2.9101,3.0552,0.0,3.1482,3.1482,3.1482,3.115,2.9953,2.776,0.0,0.0,0.0,0.0,0.0,0.0,0.0,0.0,0.0,0.0,0.0,0.0,0.0,0.0,0.0,0.0,0.0,0.0,0.0,0.0,0.0,0.0,0.0,0.0,0.0,0.0,0.0,0.0,0.0,0.0,0.0,0.0,0.0,0.0,0.0,0.0,0.0,0.0,0.0,0.0,0.0,0.0,0.0,0.0,0.0,0.0,0.0,0.0,0.0,0.0,0.0,0.0,0.0,0.0,0.0,0.0,0.0,0.0,0.0,0.0,0.0,0.0,0.0,0.0,0.0,0.0,0.0,0.0,0.0,0.0,0.0,0.0,0.0,0.0,0.0,0.0,0.0,0.0,0.0,0.0,0.0,0.0,0.0,0.0,0.0,0.0,0.0,0.0,0.0,0.0,0.0,0.0,0.0,0.0,0.0,0.0,0.0,0.0,0.0,0.0,0.0,0.0,2.7625,2.9894,3.1482,3.1482,3.1482,3.1482,3.1482,3.0357,2.9026,0.0,0.0,0.0,0.0,0.0,0.0,0.0,0.0,0.0,0.0,0.0,0.0,0.0,0.0,0.0,0.0,0.0,0.0,0.0,0.0,0.0,0.0,0.0,0.0,0.0,0.0,0.0,0.0,0.0,0.0,0.0,0.0,0.0,0.0,0.0,0.0,0.0,0.0,0.0,0.0,0.0,0.0,0.0,0.0,0.0,0.0,0.0,0.0,0.0,0.0,0.0,0.0,0.0,0.0,0.0,0.0,0.0,0.0,0.0,0.0,0.0,0.0,0.0,0.0,0.0,0.0,0.0,0.0,0.0,0.0,0.0,0.0,0.0,0.0,0.0,0.0,0.0,0.0,0.0,0.0,0.0,0.0,0.0,0.0,0.0,0.0,0.0,0.0,0.0,0.0,0.0,0.0,0.0,0.0,0.0,0.0,0.0,0.0,0.0,0.0,0.0,0.0,0.0,2.7625,2.9894,3.1482,3.1482,3.1482,3.1482,3.1482,3.118,2.9983,2.776,0.0,0.0,0.0,0.0,0.0,0.0,0.0,0.0,0.0,0.0,0.0,0.0,0.0,0.0,0.0,0.0,0.0,0.0,0.0,0.0,0.0,0.0,0.0,0.0,0.0,0.0,0.0,0.0,0.0,0.0,0.0,0.0,0.0,0.0,0.0,0.0,0.0,0.0,0.0,0.0,0.0,0.0,0.0,0.0,0.0,0.0,0.0,0.0,0.0,0.0,0.0,0.0,0.0,0.0,0.0,0.0,0.0,0.0,0.0,0.0,0.0,0.0,0.0,0.0,0.0,0.0,0.0,0.0,0.0,0.0,0.0,0.0,0.0,0.0,0.0,0.0,0.0,0.0,0.0,0.0,0.0,0.0,0.0,0.0,0.0,0.0,0.0,0.0,0.0,0.0,0.0,0.0,0.0,0.0,0.0,0.0,0.0,0.0,0.0,0.0,0.0,0.0,2.7071,2.9097,3.0524,3.0524,3.0524,3.0524,3.0524,3.0837,2.9943,2.7509,0.0,0.0,0.0,0.0,0.0,0.0,0.0,0.0,0.0,0.0,0.0,0.0,0.0,0.0,0.0,0.0,0.0,0.0,0.0,0.0,0.0,0.0,0.0,0.0,0.0,0.0,0.0,0.0,0.0,0.0,0.0,0.0,0.0,0.0,0.0,0.0,0.0,0.0,0.0,0.0,0.0,0.0,0.0,0.0,0.0,0.0,0.0,0.0,0.0,0.0,0.0,0.0,0.0,0.0,0.0,0.0,0.0,0.0,0.0,0.0,0.0,0.0,0.0,0.0,0.0,0.0,0.0,0.0,0.0,0.0,0.0,0.0,0.0,0.0,0.0,0.0,0.0,0.0,0.0,0.0,0.0,0.0,0.0,0.0,0.0,0.0,0.0,0.0,0.0,0.0,0.0,0.0,0.0,0.0,0.0,0.0,0.0,0.0,0.0,0.0,0.0,0.0,2.6293,2.79,2.9002,2.9002,2.9002,2.9002,2.9002,2.969,2.9274,2.7102,0.0,0.0,0.0,0.0,0.0,0.0,0.0,0.0,0.0,0.0,0.0,0.0,0.0,0.0,0.0,0.0,0.0,0.0,0.0,0.0,0.0,0.0,0.0,0.0,0.0,0.0,0.0,0.0,0.0,0.0,0.0,0.0,0.0,0.0,0.0,0.0,0.0,0.0,0.0,0.0,0.0,0.0,0.0,0.0,0.0,0.0,0.0,0.0,0.0,0.0,0.0,0.0,0.0,0.0,0.0,0.0,0.0,0.0,0.0,0.0,2.8183,0.0,0.0,0.0,0.0,0.0,0.0,0.0,0.0,0.0,0.0,0.0,0.0,0.0,0.0,0.0,0.0,0.0,0.0,0.0,0.0,0.0,0.0,0.0,0.0,0.0,0.0,0.0,0.0,0.0,0.0,0.0,0.0,0.0,0.0,0.0,0.0,0.0,0.0,0.0,0.0,0.0,2.6293,2.79,2.9002,2.9002,2.9002,2.9002,2.9002,2.9192,2.8602,2.7116,2.7093,0.0,0.0,0.0,0.0,0.0,0.0,0.0,0.0,0.0,0.0,0.0,0.0,0.0,0.0,0.0,0.0,0.0,0.0,0.0,0.0,0.0,0.0,0.0,0.0,0.0,0.0,0.0,0.0,0.0,0.0,0.0,0.0,0.0,0.0,0.0,0.0,0.0,0.0,0.0,0.0,0.0,0.0,0.0,0.0,0.0,0.0,0.0,0.0,0.0,0.0,0.0,0.0,0.0,0.0,0.0,0.0,0.0,0.0,0.0,0.0,2.8067,0.0,0.0,0.0,0.0,0.0,0.0,0.0,0.0,0.0,0.0,0.0,0.0,0.0,0.0,0.0,0.0,0.0,0.0,0.0,0.0,0.0,0.0,0.0,0.0,0.0,0.0,0.0,0.0,0.0,0.0,0.0,0.0,0.0,0.0,0.0,0.0,0.0,0.0,0.0,0.0,2.6057,2.7068,2.7802,2.7802,2.7802,2.7802,2.7802,2.8182,2.7913,2.6852,2.6877,0.0,0.0,0.0,0.0,0.0,0.0,0.0,0.0,0.0,0.0,0.0,0.0,0.0,0.0,0.0,0.0,0.0,0.0,0.0,0.0,0.0,0.0,0.0,0.0,0.0,0.0,0.0,0.0,0.0,0.0,0.0,0.0,0.0,0.0,0.0,0.0,0.0,0.0,0.0,0.0,0.0,0.0,0.0,0.0,0.0,0.0,0.0,0.0,0.0,0.0,0.0,0.0,0.0,2.958,2.9532,2.9532,2.9532,2.9323,2.8962,2.9281,2.9732,3.0048,2.8403,0.0,0.0,0.0,0.0,0.0,0.0,0.0,0.0,0.0,0.0,0.0,0.0,0.0,0.0,0.0,0.0,0.0,0.0,0.0,0.0,0.0,0.0,0.0,0.0,2.6925,2.6607,2.5517,0.0,0.0,0.0,0.0,0.0,0.0,0.0,0.0,0.0,0.0,0.0,2.5861,2.6445,2.6753,2.6753,2.6735,2.6672,2.6672,2.7159,2.7229,2.6521,2.6749,2.6583,0.0,0.0,0.0,0.0,0.0,0.0,0.0,0.0,0.0,0.0,0.0,0.0,0.0,0.0,0.0,0.0,0.0,0.0,0.0,0.0,0.0,0.0,0.0,0.0,0.0,0.0,0.0,0.0,0.0,0.0,0.0,0.0,2.6232,2.7703,0.0,0.0,0.0,0.0,0.0,0.0,0.0,0.0,0.0,0.0,0.0,0.0,0.0,2.9398,3.0927,3.0308,3.0706,3.2151,3.146,3.1155,3.1155,3.1155,3.1155,3.1039,3.0006,0.0,2.9696,2.9848,0.0,0.0,0.0,0.0,0.0,0.0,0.0,0.0,0.0,0.0,0.0,0.0,0.0,0.0,0.0,0.0,0.0,0.0,0.0,0.0,0.0,0.0,2.7366,2.6716,2.6553,2.6515,0.0,2.5616,2.4968,2.4929,2.4901,0.0,0.0,0.0,0.0,0.0,0.0,0.0,2.6556,2.7296,2.7896,2.7896,2.7457,2.7168,2.7168,2.6867,2.6589,2.6533,2.6506,2.6498,2.643,2.6,0.0,0.0,0.0,0.0,0.0,0.0,0.0,0.0,0.0,0.0,0.0,0.0,0.0,0.0,0.0,0.0,0.0,0.0,0.0,0.0,0.0,0.0,0.0,0.0,0.0,0.0,0.0,0.0,0.0,2.662,2.812,2.9846,2.9455,2.8838,0.0,0.0,0.0,0.0,0.0,0.0,0.0,0.0,0.0,2.9261,2.9588,3.0313,3.1459,3.111,3.1319,3.1951,3.164,3.1676,3.2078,3.2078,3.2287,3.2587,3.1644,3.1225,3.1135,3.0271,2.991,2.9841,0.0,0.0,0.0,0.0,2.7063,2.7106,2.7465,2.8457,0.0,2.8891,0.0,0.0,0.0,0.0,0.0,0.0,0.0,0.0,0.0,0.0,2.67,2.6898,2.6917,2.7005,2.7318,2.7071,2.6492,0.0,2.5674,2.5648,2.4912,0.0,0.0,0.0,0.0,2.7426,2.7429,2.786,2.8109,2.8109,2.7896,2.7745,2.7745,2.7519,2.7256,2.6942,2.6917,2.6779,2.6546,2.6311,2.5882,0.0,0.0,0.0,0.0,0.0,0.0,0.0,0.0,0.0,0.0,0.0,0.0,0.0,0.0,0.0,0.0,0.0,0.0,0.0,0.0,0.0,0.0,0.0,0.0,0.0,0.0,0.0,0.0,2.8042,2.9667,3.1505,3.128,3.0699,0.0,0.0,0.0,0.0,0.0,0.0,2.9375,2.9391,2.9793,3.0601,3.0594,3.0879,3.1467,3.1646,3.1779,3.1735,3.1958,3.2287,3.2766,3.2766,3.3036,3.3469,3.2976,3.2766,3.2632,3.0821,3.0088,3.0043,2.9714,2.8966,2.8135,2.8135,2.7965,2.7854,2.818,2.8876,2.965,2.965,2.9767,2.9653,2.8726,0.0,0.0,0.0,0.0,2.5681,2.5931,2.6181,2.6593,2.7334,2.7494,2.7607,2.8009,2.8109,2.775,0.0,2.6685,2.6791,2.6131,0.0,0.0,0.0,0.0,2.8087,2.8296,2.8448,2.8536,2.8536,2.8411,2.831,2.831,2.8185,2.7934,2.7519,2.7494,2.7243,2.676,2.6666,2.6214,2.5259,0.0,0.0,0.0,0.0,0.0,0.0,0.0,0.0,0.0,0.0,0.0,0.0,0.0,0.0,0.0,0.0,0.0,0.0,0.0,0.0,0.0,0.0,0.0,0.0,0.0,0.0,0.0,0.0,0.0,3.107,3.2422,0.0,0.0,0.0,0.0,2.9096,2.9021,2.9438,3.0186,3.0264,3.0594,3.1375,3.1435,3.1465,3.1482,3.2153,3.2467,3.2482,3.3095,3.341,3.344,3.344,3.3469,3.3499,3.3455,3.344,3.3335,3.1988,3.1377,3.1258,3.0058,2.9535,2.9475,2.9475,2.9009,2.8454,2.9723,3.0007,2.9762,2.9762,3.0149,3.0345,2.9059,2.8611,0.0,0.0,2.6465,2.7128,2.6625,2.7226,2.8031,2.8047,2.8059,2.8072,2.8097,2.8109,2.8072,0.0,2.8031,2.7704,2.6653,0.0,2.827,2.676,2.8333,2.944,2.895,2.9365,2.9704,2.9704,2.9214,2.8888,2.8888,2.8411,2.8097,2.8059,2.8059,2.7821,2.7268,2.7243,2.6967,2.6458,2.536,0.0,0.0,0.0,0.0,0.0,0.0,0.0,0.0,0.0,0.0,0.0,0.0,0.0,0.0,0.0,0.0,0.0,0.0,0.0,0.0,0.0,0.0,0.0,0.0,0.0,0.0,0.0,0.0,3.0764,3.2,0.0,3.1433,3.1354,3.0959,2.9931,3.0791,3.1279,3.1097,3.1071,3.1381,3.2138,3.2153,3.2362,3.2796,3.3021,3.314,3.3155,3.338,3.3724,3.4128,3.4128,3.4367,3.4756,3.4322,3.3799,3.3185,3.2232,3.2267,3.2751,3.2287,3.1708,3.1197,3.1197,3.0616,2.9839,3.0336,3.0432,3.0347,3.0347,3.0093,2.9707,2.9293,2.8776,2.8169,2.7506,2.7545,2.7779,2.7591,2.7808,2.8197,2.8549,2.8637,2.8737,2.9114,2.9189,2.9189,2.9189,2.8888,2.8511,2.8109,2.885,2.9277,2.8687,2.9277,2.9716,2.9515,2.9666,2.9792,2.9792,2.9616,2.9478,2.9478,2.9302,2.9026,2.8662,2.8637,2.8386,2.7833,2.7808,2.7557,2.7005,2.6603,2.5523,0.0,0.0,0.0,0.0,0.0,0.0,0.0,0.0,0.0,0.0,0.0,0.0,0.0,0.0,0.0,0.0,0.0,0.0,0.0,0.0,0.0,0.0,0.0,0.0,0.0,0.0,3.0655,3.0914,3.2026,3.2563,3.1874,3.1823,3.1518,3.0762,3.187,3.2342,3.1854,3.2078,3.2392,3.2826,3.2841,3.3051,3.3499,3.3709,3.3829,3.3829,3.4068,3.4397,3.4831,3.4703,3.4898,3.5244,3.4645,3.407,3.3478,3.3053,3.3221,3.3696,3.2824,3.2141,3.1608,3.1608,3.0999,3.0159,3.0084,3.0024,3.005,3.025,2.9987,2.9494,2.9494,2.9154,2.8674,2.8674,2.8674,2.8674,2.8674,2.8674,2.8762,2.9139,2.9214,2.9327,2.9704,2.9792,2.9792,2.9792,2.9478,2.9101,2.8712,2.8963,2.9101,2.8725,2.8674,2.8674,2.8674,2.9001,2.9227,2.9227,2.9566,2.9792,2.9792,2.9453,2.9227,2.9214,2.8863,2.8561,2.8398,2.8021,2.757,2.7017,2.6452,2.5215,2.3169,0.0,0.0,0.0,0.0,0.0,0.0,0.0,0.0,0.0,0.0,0.0,0.0,0.0,0.0,0.0,0.0,0.0,0.0,0.0,0.0,0.0,0.0,0.0,2.896,3.0434,3.1421,3.1405,3.2682,3.3319,3.2672,3.2594,3.2333,3.1599,3.2183,3.2542,3.2542,3.3155,3.3499,3.3529,3.3529,3.3529,3.3559,3.4188,3.4517,3.4547,3.5155,3.5469,3.5514,3.5053,3.4895,3.4853,3.4492,3.4293,3.4218,3.4218,3.4218,3.3984,3.1638,3.0719,3.0651,3.0651,3.0171,2.9437,2.9073,2.8976,2.9076,2.9616,2.9792,2.9792,2.9792,2.9792,2.9792,2.9792,2.9792,2.9792,2.9792,2.9792,2.9792,2.9792,2.9792,2.9792,2.9792,2.9792,2.9792,2.9792,2.9792,2.9453,2.8348,2.816,2.7795,2.6798,2.6634,0.0,2.6634,2.7494,2.8147,2.8109,2.9114,2.9779,2.9741,2.8762,2.855,2.9639,2.8687,2.8312,2.885,2.7848,2.7022,2.6471,2.4843,2.3707,2.3301,0.0,0.0,0.0,0.0,0.0,0.0,0.0,0.0,0.0,0.0,0.0,0.0,0.0,0.0,0.0,0.0,0.0,0.0,0.0,0.0,0.0,0.0,2.9568,2.994,3.0811,3.1442,3.1488,3.2702,3.3284,3.2564,3.2959,3.3171,3.2961,3.3125,3.323,3.323,3.3395,3.3709,3.4188,3.4203,3.4442,3.4951,3.4391,3.4728,3.5923,3.4646,3.4597,3.5735,3.4877,3.4418,3.4432,3.4375,3.3914,3.3207,3.3207,3.2843,3.2251,3.2968,3.2847,3.2173,3.2173,3.1589,3.0747,3.0297,3.0156,3.0118,2.9867,2.9792,2.9792,2.9792,2.9792,2.9792,2.9792,2.9792,2.9792,2.9792,2.9792,2.9792,2.9792,2.9792,2.9792,2.9792,2.9792,2.9792,2.9792,2.9792,2.9691,2.9377,2.9327,2.9227,2.8925,2.8875,0.0,2.8875,2.9139,2.9013,2.8197,2.9114,2.9465,2.8637,2.828,2.8204,2.8573,2.7517,2.7343,2.8288,2.7293,2.6424,2.5827,2.4162,2.314,0.0,0.0,0.0,0.0,0.0,0.0,0.0,0.0,0.0,0.0,0.0,0.0,0.0,0.0,0.0,0.0,0.0,0.0,0.0,0.0,0.0,0.0,2.9709,3.0578,3.1156,3.1597,3.1905,3.1897,3.2821,3.3347,3.2976,3.3275,3.3499,3.3499,3.3754,3.3903,3.3903,3.4188,3.4297,3.4301,3.453,3.4639,3.4582,3.427,3.4583,3.5551,3.4346,3.4321,3.5201,3.4402,3.4076,3.3998,3.3873,3.35,3.2946,3.2946,3.2644,0.0,0.0,0.0,0.0,0.0,3.1847,3.1348,3.1047,3.0947,3.0884,3.057,3.047,3.047,3.047,3.047,3.047,3.047,3.047,3.047,3.047,3.047,3.047,3.047,3.047,3.0407,3.0181,3.0143,3.0068,2.9829,2.9792,0.0,2.9792,2.9402,2.8925,2.8473,2.8398,2.8398,2.8398,2.88,2.8675,2.757,2.839,2.8614,2.7495,2.7023,0.0,0.0,0.0,2.6086,2.6711,2.6086,0.0,0.0,0.0,2.2586,2.2155,2.1353,0.0,0.0,2.0649,2.026,0.0,0.0,0.0,0.0,0.0,0.0,0.0,0.0,0.0,0.0,0.0,0.0,0.0,0.0,0.0,0.0,2.9834,3.118,3.2437,3.2691,3.2706,3.2632,3.32,3.3604,3.3604,3.3679,3.3724,3.3724,3.4185,3.448,3.4554,0.0,0.0,0.0,0.0,3.4369,3.3528,3.3943,3.4259,3.4403,3.4175,3.4126,3.4361,3.3821,3.3587,3.3626,3.3255,3.3081,3.3081,3.3081,3.3081,3.298,3.1976,3.1587,3.1587,3.1587,3.1587,3.1562,3.1499,0.0,0.0,3.1411,3.1386,3.1386,3.1386,3.1386,3.1386,3.1386,3.1386,3.1386,3.1386,3.1386,3.1386,3.1386,3.1386,3.126,3.0809,3.0708,3.0478,2.9899,2.9811,2.9721,2.9564,2.8875,2.7959,2.6979,2.6898,2.6829,2.6677,2.7526,2.7619,2.6434,0.0,0.0,2.6397,2.5358,2.5212,2.6251,2.5403,2.4757,2.4598,2.4757,2.4073,2.2431,2.241,2.2158,2.1783,2.1374,2.1165,2.1182,2.0568,2.0286,0.0,0.0,0.0,0.0,0.0,0.0,0.0,0.0,0.0,0.0,0.0,0.0,0.0,0.0,0.0,3.0612,3.1531,3.2407,3.3185,3.3769,3.3903,3.3365,3.3888,3.4292,3.4292,3.4801,3.5115,3.5115,3.4494,3.4288,3.4824,3.4158,3.3938,3.4219,3.4358,3.4339,3.4114,3.3463,3.3759,3.5099,0.0,0.0,3.4578,3.3663,3.3246,3.3246,3.3104,3.3081,3.3081,3.3081,3.3081,3.3056,3.283,3.2754,3.2754,3.2754,3.2754,3.2679,3.2215,3.2051,3.1976,3.1537,3.1386,3.1386,3.1386,3.1386,0.0,3.1386,3.1386,3.1386,3.1386,3.1386,3.1386,3.1386,3.1386,3.1361,3.126,3.1248,3.0954,2.982,2.963,2.9272,2.8322,2.8847,2.9402,2.9176,2.9151,2.881,2.7903,2.7993,2.7309,2.5305,2.6119,2.6391,2.5182,2.493,2.4924,2.5115,2.4955,2.4357,2.3463,2.4283,2.4242,2.3008,2.2924,2.271,2.2379,2.2207,2.182,2.1211,2.0728,2.0516,0.0,0.0,0.0,0.0,0.0,0.0,0.0,0.0,0.0,0.0,0.0,2.8842,0.0,0.0,3.0467,3.0651,3.2258,3.3265,3.2638,3.3798,3.4537,3.4035,3.415,3.4259,3.4259,3.4361,3.4448,3.4448,3.4229,3.4253,3.4576,3.4136,3.3738,3.3594,3.3826,3.3752,3.3278,3.3027,3.3394,3.416,3.3122,3.3119,3.3869,3.3313,3.3081,3.3081,3.3081,3.3081,3.3081,3.3081,3.3081,3.3081,3.3081,3.3081,3.3081,3.3081,3.3081,3.3031,3.2742,3.2641,3.2604,3.2328,3.2227,3.2227,3.2227,3.2227,3.2227,3.2227,3.2227,3.2227,3.2227,3.1782,3.1321,3.1321,3.0881,3.0367,3.0019,2.996,2.9706,2.8826,2.8609,2.8436,2.7819,2.828,2.8728,2.8728,2.8728,2.8551,2.7934,2.7716,2.696,2.5243,2.5406,2.5196,2.4064,2.3954,2.3963,2.3963,2.3963,2.3714,2.3135,2.3627,2.3714,2.3135,2.3135,2.3037,2.2822,2.2617,2.2295,2.1865,2.1426,2.0986,0.0,0.0,0.0,0.0,0.0,0.0,0.0,0.0,2.9423,2.9688,2.9472,2.9353,2.9787,3.0368,3.0734,3.0454,3.2469,3.3601,3.2166,3.3593,3.4735,3.4479,3.4235,3.4041,3.4041,3.377,3.3611,3.3611,3.3854,3.4044,3.4167,3.4014,3.3603,3.2854,3.3336,3.3186,3.2378,3.2842,3.3081,3.3081,3.3081,3.3081,3.3081,3.3081,3.2982,3.2698,3.2513,3.2525,3.2698,3.2698,3.2612,3.2426,3.2896,3.2797,3.2426,3.2884,3.2982,3.2698,3.2698,3.2612,3.2339,3.2339,3.2339,3.2339,3.2339,3.2339,3.2339,3.2339,3.2339,3.2339,3.2339,3.1601,3.0855,3.0855,3.0135,2.9295,2.8813,2.8723,2.8511,2.7844,2.7679,2.7579,2.7312,2.7323,2.7435,2.7678,2.7732,2.7644,2.7393,2.715,2.6487,2.5285,2.4871,2.4227,2.3232,2.3135,2.3135,2.3135,2.3135,2.3135,2.3135,2.3135,2.3135,2.3135,2.3135,2.3135,2.3135,2.2793,2.2598,2.251,2.2168,2.1533,2.8037,2.748,0.0,2.686,2.7805,2.8998,0.0,0.0,3.0545,3.1856,3.206,3.202,3.1806,3.185,3.1833,3.1499,3.218,3.286,3.3156,3.3905,3.438,3.4302,3.427,3.425,3.425,3.4231,3.4197,3.4197,3.3399,3.3212,3.3754,3.2916,3.2592,3.3025,3.3114,3.3139,3.298,3.3043,3.3081,3.3081,3.3081,3.3081,3.3081,3.3081,3.2513,3.1311,3.0316,3.0406,3.14,3.14,3.0765,3.0045,3.2239,3.1789,3.0045,3.2251,3.2426,3.14,3.14,3.0676,2.9772,2.9772,2.9772,2.9772,2.9772,2.9772,2.9772,2.9772,2.9772,2.9772,2.9772,2.9681,2.959,2.959,2.9498,2.9385,2.9329,2.9329,2.894,2.7806,2.7609,2.7243,2.6144,2.5962,2.6327,2.7514,2.7732,2.7393,2.6362,2.6241,2.5771,2.4611,2.4146,2.3732,2.3174,2.3135,2.3135,2.3135,2.3135,2.3135,2.3135,2.3135,2.3135,2.3135,2.3135,2.3135,2.3135,2.3096,2.2881,2.251,2.2461,2.1982,2.9402,0.0,0.0,0.0,2.9642,3.0166,3.1084,3.1727,3.2208,3.2232,3.2284,3.2144,3.19,3.1797,3.1721,0.0,3.2027,3.2395,3.1832,3.2707,3.3341,3.3077,3.343,3.3526,3.3429,3.3225,3.3117,3.3117,3.3036,3.3098,3.3354,3.2959,3.283,3.3068,3.3081,3.3081,3.3081,3.3081,3.2698,3.1965,3.1965,3.1601,3.0956,3.0956,3.0687,3.0135,2.959,2.9839,3.0468,3.0468,3.0362,3.0258,3.1298,3.1101,3.0285,3.155,3.1223,3.0135,3.0135,2.9863,2.9407,2.9407,2.9407,2.9407,2.9407,2.9407,2.9407,2.9407,2.9407,2.9407,2.9407,2.8866,2.8319,2.8319,2.7757,2.721,2.721,2.721,2.7115,2.6572,2.6476,2.6294,2.583,2.5742,2.5885,2.6412,2.6537,2.6361,2.5923,2.5691,2.5235,2.4443,2.4043,2.3721,2.3535,2.3291,2.3135,2.3135,2.3135,2.3135,2.3135,2.3135,2.3135,2.3135,2.3135,2.3135,2.3135,2.3135,2.3047,2.2881,2.2881,2.2559,2.9648,0.0,0.0,3.0473,3.0909,3.1132,3.1833,3.2343,3.2533,3.2097,3.1994,3.1847,3.1568,3.1466,3.133,3.0917,3.1535,3.1779,3.0972,3.1893,3.2594,3.2462,3.2817,3.3068,3.294,3.2606,3.2453,3.2453,3.2842,3.3081,3.3081,3.3081,3.3081,3.3081,3.3081,3.2896,3.2612,3.2612,3.1965,3.0676,3.0676,3.0226,2.9407,2.9039,2.9117,2.9516,2.8866,2.895,2.9661,2.9661,2.9676,2.971,3.0392,3.0284,2.9721,3.0337,2.9984,2.925,2.925,2.9063,2.8696,2.8696,2.8704,2.8596,2.8596,2.851,2.8402,2.8402,2.8402,2.8402,2.8402,2.7767,2.703,2.703,2.639,2.5742,2.5742,2.5742,2.5742,2.5742,2.5742,2.5742,2.5742,2.5742,2.5742,2.5742,2.5742,2.5742,2.5742,2.5449,2.5078,2.4639,2.4326,2.4043,2.3809,2.3496,2.3271,2.3144,2.3135,2.3135,2.3135,2.3135,2.3135,2.3135,2.3135,2.3135,2.3135,2.3135,2.3135,2.3135,2.3135,2.2969,0.0,0.0,2.8717,2.9088,3.0654,3.1797,3.0904,3.0649,3.0828,3.1488,3.1612,3.1512,3.1256,3.1214,3.0882,2.9998,3.031,3.0851,3.1298,3.1838,3.2403,3.298,3.3068,3.3056,0.0,3.3043,3.3056,3.3056,3.3068,3.3081,3.3081,3.3081,3.3081,3.3081,3.3081,3.2525,3.1311,3.1223,3.0676,2.9498,2.9498,2.9407,2.9315,2.8226,2.8473,2.9819,2.7492,2.7361,2.8812,2.8812,2.8156,2.7298,2.971,2.9229,2.7307,2.8415,2.889,2.8791,2.8791,2.8025,2.7065,2.7065,2.68,2.6467,2.6467,2.6163,2.583,2.583,2.583,2.583,2.583,2.583,2.5732,2.5732,2.5732,2.5742,2.5742,2.5742,2.5742,2.5742,2.5742,2.5742,2.5742,2.5742,2.5742,2.5742,2.5742,2.5742,2.5742,2.5723,2.5547,2.5098,2.5039,2.4687,2.3857,2.3779,2.3584,2.3164,2.3135,2.3135,2.3135,2.3135,2.3135,2.3135,2.3135,2.3135,2.3135,2.3135,2.3135,2.3135,2.3135,2.3135,2.8309,0.0,2.9102,2.9883,3.0912,3.1664,3.1323,3.164,3.1844,3.1406,3.0757,3.0007,2.9237,2.8528,2.8214,2.8623,2.8825,2.9528,3.116,3.1549,3.2014,3.2968,3.3081,0.0,0.0,0.0,0.0,3.3081,3.2339,3.1865,3.1865,3.1045,3.0687,3.0687,3.0687,3.0418,3.0045,3.0045,2.9407,2.8226,2.74,2.7088,2.7385,2.7016,2.7249,2.7941,2.7191,2.7235,2.8031,2.8031,2.8004,2.7966,2.8753,2.8555,2.7966,2.8356,2.8451,2.8371,2.7792,2.7298,2.7012,2.7012,2.6914,2.6807,2.6807,2.6699,2.6582,2.6582,2.6582,2.6582,2.6582,2.6582,2.6582,2.6582,2.6377,2.6172,2.6172,2.5947,2.5742,2.5742,2.5742,2.5742,2.5742,2.5742,2.5742,2.5742,2.5742,2.5742,2.5742,2.5742,2.5684,2.5527,2.5244,2.4834,2.4258,2.3945,2.3603,2.3164,2.3135,2.3135,2.3135,2.3135,2.3135,2.3135,2.3135,2.3135,2.3135,2.3135,2.3135,2.3135,2.3135,2.3135,2.825,2.8961,2.9505,3.0256,3.0959,3.1392,3.1061,3.1282,3.1282,3.0299,2.9489,2.8724,2.7725,2.6929,2.6816,2.7921,2.8109,2.865,3.0301,3.0663,3.0952,3.1501,3.168,3.1424,0.0,0.0,0.0,3.1789,3.1045,3.0586,3.0586,2.9863,2.9407,2.9407,2.9407,2.9223,2.8773,2.8773,2.8218,2.718,2.6348,2.6191,2.6611,2.6611,2.6846,2.7246,2.7246,2.749,2.7891,2.7891,2.8047,2.8291,2.8291,2.8291,2.8291,2.8291,2.8291,2.8213,2.7656,2.7471,2.7471,2.7471,2.7373,2.7246,2.7246,2.7139,2.7012,2.7012,2.7012,2.7012,2.7012,2.7012,2.7012,2.7012,2.6807,2.6572,2.6426,2.6172,2.5928,2.5762,2.5742,2.5742,2.5742,2.5742,2.5742,2.5742,2.5742,2.5742,2.5742,2.5742,2.5742,2.5742,2.5478,2.5068,2.4473,2.417,2.376,2.3174,2.3135,2.3135,2.3135,2.3135,2.3135,2.3135,2.3135,2.3135,2.3135,2.3135,2.3135,2.3135,2.3135,2.3135,2.7277,2.878,2.9807,3.0085,3.0637,3.0908,2.9998,2.9741,2.9402,2.8323,2.7936,2.7548,0.0,0.0,2.6659,2.7761,2.7913,2.8124,2.8736,2.9237,2.9344,0.0,0.0,0.0,0.0,0.0,0.0,2.9223,0.0,2.9315,2.9315,2.9223,2.9223,2.9223,2.9223,2.868,2.7494,2.7515,2.7211,2.6426,2.6426,2.6641,2.7051,2.7051,2.7285,2.7695,2.7695,2.792,2.8291,2.8291,2.8291,2.8291,2.8291,2.8291,2.8291,2.8291,2.8291,2.8291,2.8291,2.8291,2.8291,2.8291,2.8027,2.7695,2.7695,2.7412,2.708,2.708,2.708,2.708,2.708,2.708,2.708,2.708,2.706,2.6934,2.6543,2.6416,2.6269,2.585,2.5752,2.5742,2.5742,2.5742,2.5742,2.5742,2.5742,2.5742,2.5742,2.5742,2.5742,2.5742,2.5742,2.5381,2.4492,2.4414,2.4053,2.3193,2.3135,2.3135,2.3135,2.3135,2.3135,2.3135,2.3135,2.3135,2.3135,2.3135,2.3135,2.3135,2.3135,2.3135,2.9119,2.9861,3.0058,2.9958,3.0037,3.0062,2.9856,2.9139,2.8448,2.816,2.6276,2.4786,0.0,0.0,0.0,2.5362,2.5644,0.0,2.7489,2.8054,0.0,2.8723,0.0,2.905,2.8143,2.8049,0.0,0.0,2.7494,2.8049,2.8049,2.7115,2.6658,2.6658,2.6658,2.6476,2.6207,2.6525,2.6715,2.6855,2.6855,2.708,2.75,2.75,2.7734,2.8135,2.8135,2.8193,2.8291,2.8291,2.8291,2.8291,2.8291,2.8291,2.8291,2.8291,2.8291,2.8291,2.8291,2.8291,2.8291,2.8291,2.8223,2.8135,2.8135,2.8057,2.7969,2.7969,2.7969,2.7969,2.7969,2.7969,2.7969,2.7969,2.7725,2.7471,2.7363,2.6846,2.6357,2.624,2.5967,2.5742,2.5742,2.5742,2.5742,2.5742,2.5742,2.5742,2.5742,2.5742,2.5742,2.5742,2.5742,2.5381,2.4492,2.4414,2.4053,2.3193,2.3135,2.3135,2.3135,2.3135,2.3135,2.3135,2.3135,2.3135,2.3135,2.3135,2.3135,2.3135,2.3135,2.3135,2.921,2.9812,3.0021,2.9858,2.9792,2.9576,2.8669,2.8001,2.7127,2.5816,2.4105,0.0,0.0,0.0,0.0,0.0,0.0,0.0,2.6026,2.6715,2.7071,0.0,2.7437,0.0,2.6849,2.6754,2.6476,0.0,2.639,2.6754,2.6754,2.611,2.5742,2.5742,2.5918,2.6113,2.6299,2.6543,2.6875,2.7305,2.7305,2.7529,2.7939,2.7939,2.8066,2.8291,0.0,2.8291,2.8291,2.8291,2.8291,2.8291,2.8291,2.8291,2.8291,2.8291,2.8291,2.8291,2.8291,2.8291,2.8291,2.8291,2.8291,2.8291,2.8291,2.8291,2.8291,2.8291,2.8291,2.8291,2.8291,2.8291,2.8291,2.8291,2.8115,2.7891,2.7705,2.7139,2.6553,2.6172,2.5908,2.5742,2.5742,2.5742,2.5742,2.5742,2.5742,2.5742,2.5742,2.5742,2.5742,2.5742,2.5742,2.5459,2.4766,2.4697,2.4336,2.3477,2.3428,2.334,2.3144,2.3135,2.3135,2.3135,2.3135,2.3135,2.3135,2.3135,2.3135,2.3135,2.3135,2.3135,2.8612,2.9415,2.9792,2.9792,2.9792,2.9247,2.7255,2.6668,2.5777,2.2787,0.0,2.1833,2.1898,2.1757,2.2276,2.4282,0.0,2.4551,2.4671,2.5384,2.5513,2.4585,2.5234,2.5742,2.5742,2.5742,2.5742,2.5742,2.5791,2.5801,2.5742,2.5791,2.585,2.5908,2.6269,2.668,2.71,2.71,2.7324,2.7754,2.7754,2.7939,2.8291,2.8291,2.8291,2.8291,2.8291,2.8291,2.8291,2.8291,2.8291,2.8291,2.8291,2.8291,2.8291,2.8291,2.8291,2.8291,2.8291,2.8291,2.8291,2.8291,2.8291,2.8291,2.8291,2.8291,2.8291,2.8291,2.8291,2.8291,2.8291,2.8291,2.8291,2.8291,2.8291,2.8193,2.7822,2.7363,2.6758,2.5908,2.5742,2.5742,2.5742,2.5742,2.5742,2.5742,2.5742,2.5742,2.5742,2.5742,2.5742,2.5742,2.5742,2.5557,2.5107,2.5068,2.4727,2.3926,2.3877,2.3701,2.332,2.3252,2.3223,2.3223,2.3164,2.3135,2.3135,2.3135,2.3047,2.2862,2.2862,2.2775,2.9315,2.9716,2.9792,2.9792,2.9792,2.9247,2.7255,2.6092,0.0,0.0,2.0939,2.0232,2.1627,2.0978,2.0908,2.3033,0.0,0.0,0.0,0.0,2.4726,0.0,0.0,0.0,0.0,0.0,0.0,0.0,0.0,2.6113,2.5752,2.6084,2.6435,2.6777,2.6865,2.7119,2.7549,2.7559,2.7764,2.8184,2.8184,2.8223,2.8291,2.8291,2.8291,2.8291,2.8291,0.0,2.8291,2.8291,2.8291,2.8291,2.8291,2.8291,2.8291,2.8291,2.8291,2.8291,2.8291,2.8291,2.8291,2.8291,2.8291,2.8291,2.8291,2.8291,2.8291,2.8291,2.8291,2.8291,2.8291,2.8291,2.8291,2.8291,2.8291,2.8271,2.8203,2.7568,2.6758,2.5908,2.5742,2.5742,2.5742,2.5742,2.5742,2.5742,2.5742,2.5742,2.5742,2.5742,2.5742,2.5742,2.5742,2.5557,2.5107,2.5068,2.4853,2.4336,2.4307,2.4277,2.4199,2.3857,2.3682,2.3682,2.332,2.3135,2.3135,2.3135,2.2589,2.1569,2.1569,2.1123,2.8423,2.9126,2.9792,2.9792,2.9792,2.9021,2.6012,0.0,0.0,0.0,1.9276,1.9066,2.0596,0.0,0.0,0.0,0.0,0.0,0.0,0.0,0.0,0.0,0.0,0.0,0.0,0.0,0.0,0.0,0.0,2.6299,2.6084,2.6484,2.6914,2.7344,2.7353,2.7559,2.7988,2.7988,2.8096,2.8291,2.8291,2.8291,2.8291,2.8291,2.8291,2.8291,2.8291,2.8291,2.8291,2.8291,2.8291,2.8291,2.8291,2.8291,2.8291,2.8291,2.8291,2.8291,2.8291,2.8291,2.8291,2.8291,2.8291,2.8291,2.8291,2.8291,2.8291,2.8291,2.8291,2.8291,2.8291,2.8291,2.8291,2.8291,2.8291,2.8174,2.7725,2.7305,2.6758,2.5908,2.5742,2.5742,2.5742,2.5742,2.5742,2.5742,2.5742,2.5742,2.5742,2.5742,2.5742,2.5742,2.5742,2.5644,2.5439,2.541,2.5225,2.4785,2.4756,2.4648,2.4424,2.4219,2.4111,2.4111,2.3701,2.3477,2.3477,2.2596,2.1845,2.1293,2.0666,2.0034,2.7657,2.8699,2.9792,2.9792,2.9792,2.8795,2.4788,2.3879,0.0,0.0,1.8008,1.8398,1.9678,0.0,0.0,0.0,0.0,0.0,0.0,0.0,0.0,0.0,0.0,0.0,0.0,0.0,0.0,0.0,0.0,0.0,2.666,2.6973,2.7353,2.7783,2.7803,2.7959,2.8291,2.8291,2.8291,2.8291,2.8291,2.8291,2.8291,2.8291,2.8291,2.8291,2.8291,2.8291,2.8291,2.8291,2.8291,2.8291,2.8291,2.8291,2.8291,2.8291,2.8291,2.8291,2.8291,2.8291,2.8291,2.8291,2.8291,2.8291,2.8291,2.8291,2.8291,2.8291,2.8291,2.8291,2.8291,2.8291,2.8291,2.8291,2.8291,2.8057,2.7197,2.7012,2.6758,2.5908,2.5742,2.5742,2.5742,2.5742,2.5742,2.5742,2.5742,2.5742,2.5742,2.5742,2.5742,2.5742,2.5742,2.5742,2.5742,2.5742,2.5586,2.5234,2.5215,2.5059,2.4717,2.4609,2.4458,2.4076,2.3673,2.3362,2.307,2.1708,2.0958,2.0598,1.9604,1.902,2.8386,2.9277,2.9792,2.9792,2.9792,2.8795,2.4788,0.0,0.0,1.8823,1.8008,1.8398,1.9678,1.96,1.9902,0.0,0.0,2.1953,0.0,0.0,0.0,0.0,0.0,0.0,0.0,0.0,0.0,0.0,0.0,0.0,2.7549,2.7588,2.7803,2.8223,2.8232,2.8252,2.8291,2.8291,2.8291,2.8291,2.8291,2.8291,2.8291,2.8291,2.8291,2.8291,2.8291,2.8291,0.0,2.8291,2.8291,2.8291,2.8291,2.8291,2.8291,2.8291,2.8291,2.8291,2.8291,2.8291,2.8291,2.8291,2.8291,2.8291,2.8291,2.8291,2.8291,2.8291,2.8291,2.8291,2.8291,2.8291,2.8291,2.8291,2.8291,2.8057,2.7197,2.7012,2.6758,2.5908,2.5742,2.5742,2.5742,2.5742,2.5742,2.5742,2.5742,2.5742,2.5742,2.5742,2.5742,2.5742,2.5742,2.5742,2.5742,2.5742,2.5723,2.5674,2.5674,2.5664,2.5615,2.5225,2.4412,2.3139,2.2749,2.1975,2.0712,2.0583,1.9734,1.8404,1.8308,1.7494,2.5238,2.6363,2.749,2.7716,2.7799,2.693,2.3663,0.0,0.0,1.8695,1.8008,1.832,1.9346,1.9404,1.9678,0.0,0.0,0.0,0.0,0.0,0.0,0.0,0.0,0.0,0.0,0.0,0.0,0.0,0.0,0.0,2.8047,2.8047,2.8125,2.8281,2.8291,2.8291,2.8291,2.8291,2.8291,2.8291,2.8291,2.8291,2.8291,2.8291,2.8291,2.8291,2.8291,2.8291,0.0,2.8291,2.8291,2.8291,2.8291,2.8291,2.8291,2.8291,2.8291,2.8291,2.8291,2.8291,2.8291,2.8291,2.8291,2.8291,2.8291,2.8291,2.8291,2.8291,2.8291,2.8291,2.8291,2.8291,2.8291,2.8291,2.8291,2.8057,2.7197,2.7012,2.6758,2.5908,2.5742,2.5742,2.5742,2.5742,2.5742,2.5742,2.5742,2.5742,2.5742,2.502,2.451,2.451,2.5226,2.5742,2.5742,2.5742,2.5742,2.5742,2.5742,2.5742,2.5742,2.4752,2.3947,2.3448,2.2169,2.1282,2.0794,1.9713,1.8972,1.8364,1.7597,1.6952,2.3063,2.4294,2.5554,2.6363,2.6341,2.5438,0.0,0.0,0.0,1.8508,1.8008,1.8232,1.8965,1.9199,1.9521,2.0254,0.0,2.1797,0.0,0.0,0.0,0.0,0.0,0.0,0.0,0.0,0.0,0.0,0.0,0.0,2.8291,2.8291,2.8291,2.8291,2.8291,2.8291,2.8291,2.8291,2.8291,2.8291,2.8291,2.8291,2.8291,2.8291,2.8291,2.8291,2.8291,2.8291,0.0,2.8291,2.8291,2.8291,2.8291,2.8291,2.8291,2.8291,2.8291,2.8291,2.8291,2.8291,2.8291,2.8291,2.8291,2.8291,2.8291,2.8291,2.8291,2.8291,2.8291,2.8291,2.8291,2.8291,2.8291,2.8291,2.8291,2.8096,2.7363,2.7109,2.6797,2.6074,2.582,2.5742,2.5742,2.5742,2.5538,2.5128,2.5128,2.502,2.4609,2.3683,2.3076,2.3076,2.3998,2.451,2.451,2.4913,2.4922,2.451,2.451,2.451,2.451,2.3583,2.2876,2.2475,2.1203,2.0371,1.9969,1.8851,1.8203,1.8117,1.723,1.6787,2.3067,2.4095,2.483,2.6183,2.5824,2.4692,0.0,0.0,0.0,1.8389,1.8008,1.8135,1.8564,1.8994,1.9424,1.9853,2.0293,0.0,0.0,0.0,0.0,0.0,0.0,0.0,0.0,0.0,0.0,0.0,0.0,0.0,2.8291,2.8291,2.8291,2.8291,2.8291,2.8291,2.8291,2.8291,2.8291,2.8291,2.8291,2.8291,2.8291,2.8291,2.8291,2.8291,2.8291,2.8291,0.0,2.8291,2.8291,2.8291,2.8291,2.8291,2.8291,2.8291,2.8291,2.8291,2.8291,2.8291,2.8291,2.8291,2.8291,2.8291,2.8291,2.8291,2.8291,2.8291,2.8291,2.8291,2.8291,2.8291,2.8291,2.8291,2.8291,2.8174,2.7754,2.7324,2.6894,2.6465,2.6035,2.5742,2.5742,2.5742,2.5226,2.389,2.3692,2.3276,2.1954,2.1752,2.1752,2.1752,2.1752,2.1752,2.1752,2.2968,2.3176,2.1853,2.1752,2.1752,2.1752,2.1752,2.1041,1.9627,1.9627,1.9013,1.7681,1.7575,1.7428,1.7244,1.7244,1.6987,2.0062,2.0726,2.1215,2.22,2.2251,2.1722,2.0535,0.0,0.0,1.8252,1.8008,1.8135,1.8555,1.8994,1.9424,1.9844,2.0283,0.0,0.0,0.0,0.0,0.0,0.0,0.0,0.0,0.0,0.0,0.0,0.0,0.0,2.8291,2.8291,2.8291,2.8291,2.8291,2.8291,2.8291,2.8291,2.8291,2.8291,2.8291,2.8291,2.8291,2.8291,2.8291,2.8291,2.8291,2.8291,2.8291,2.8291,2.8291,2.8291,2.8291,2.8291,2.8291,2.8291,2.8291,2.8291,2.8291,2.8291,2.8291,2.8291,2.8291,2.8291,2.8291,2.8291,2.8291,2.8291,2.8291,2.8291,2.8291,2.8291,2.8067,2.7051,2.7609,2.7941,2.6421,2.6551,2.657,2.5191,2.5404,2.543,2.4501,2.4304,2.4196,2.3791,2.2868,2.2156,2.1752,2.0837,2.0231,2.0231,2.0231,2.0641,2.1651,2.2055,2.2156,2.1752,2.1752,2.1752,2.1752,2.0743,2.0033,1.9627,1.8708,1.7989,1.7582,1.7582,1.7535,1.7442,1.7442,1.7288,0.0,1.8725,1.9092,2.0273,2.0322,0.0,0.0,0.0,0.0,0.0,1.8008,1.8086,1.835,1.875,1.918,1.9609,2.0039,0.0,0.0,0.0,0.0,0.0,0.0,0.0,0.0,0.0,0.0,0.0,0.0,0.0,2.8291,2.8291,2.8291,2.8291,2.8291,2.8291,2.8291,2.8291,2.8291,2.8291,2.8291,2.8291,2.8291,2.8291,2.8291,2.8291,2.8291,2.8291,0.0,2.8291,2.8291,2.8291,2.8291,2.8291,2.8291,2.8291,2.8291,2.8291,2.8291,2.8291,2.8291,2.8291,2.8291,2.8291,2.8291,2.8291,2.8291,2.8291,2.8291,2.8291,2.8291,2.7843,2.7276,2.6264,2.6381,2.6281,2.4887,2.5038,2.4972,2.3829,2.3862,2.3899,2.3076,2.2976,2.2776,2.2265,2.1456,2.0735,2.0231,1.942,1.8812,1.8812,1.8812,1.9213,2.0128,2.0641,2.0735,2.0231,2.0128,2.0128,2.0128,1.9317,1.8812,1.8812,1.7996,1.7582,1.7582,1.7582,1.7582,1.7582,1.7582,1.7482,0.0,0.0,0.0,0.0,0.0,0.0,0.0,0.0,0.0,0.0,0.0,0.0,0.0,1.835,1.8769,1.918,1.9619,0.0,0.0,0.0,0.0,0.0,0.0,0.0,0.0,0.0,0.0,0.0,0.0,0.0,2.8291,2.8291,2.8291,2.8291,2.8291,2.8291,2.8291,2.8291,2.8291,2.8291,2.8291,2.8291,2.8291,2.8291,2.8291,0.0,2.8291,2.8291,2.8291,2.8291,2.8291,2.8291,2.8291,2.8291,2.8291,2.8291,2.8291,2.8291,2.8291,2.8291,2.8291,2.8291,2.8291,2.8291,2.8291,2.8291,2.8291,2.8291,2.8174,2.8174,2.8174,2.7051,2.5927,2.5818,2.4803,2.369,2.336,2.2988,2.2608,2.2174,2.1907,2.1651,2.155,2.155,2.1143,1.9834,1.9531,1.902,1.7786,1.7582,1.7582,1.7582,1.7582,1.7582,1.7582,1.8708,1.8916,1.7687,1.7582,1.7582,1.7582,1.7582,1.7582,1.7582,1.7582,1.7582,1.7582,1.7582,1.7582,1.7582,1.7582,1.7582,1.6318,0.0,1.7207,1.7949,1.8223,0.0,0.0,0.0,0.0,0.0,0.0,0.0,0.0,0.0,0.0,1.8769,0.0,1.9834,0.0,0.0,0.0,0.0,0.0,0.0,0.0,0.0,0.0,0.0,0.0,2.8291,2.8291,2.8291,2.8291,2.8291,2.8291,2.8291,2.8291,2.8291,2.8291,2.8291,2.8291,2.8291,2.8291,2.8291,2.8291,2.8291,2.8291,2.8291,2.8291,2.8291,2.8291,2.8291,2.8291,2.8291,2.8291,2.8291,2.8291,2.8291,2.8291,2.8291,2.8291,2.8291,2.8291,2.8291,2.8291,2.8291,2.8291,2.8291,2.7501,2.6599,2.6599,2.5489,2.4044,2.2919,2.3062,2.3173,2.1993,2.2041,2.2102,2.0973,2.129,2.1347,2.0238,2.0135,1.993,1.9627,1.8708,1.7996,1.7687,1.7582,1.7582,1.7582,1.7582,1.7582,1.7582,1.7891,1.7891,1.7582,1.7582,1.7582,1.7582,1.7582,1.7582,1.7582,1.7582,1.7582,1.7582,1.7582,1.7582,1.7582,1.7582,1.7582,1.5703,1.624,1.6836,1.7275,1.7695,1.8008,0.0,0.0,0.0,0.0,0.0,0.0,0.0,0.0,0.0,0.0,1.9355,0.0,0.0,0.0,0.0,0.0,0.0,0.0,0.0,0.0,0.0,0.0,0.0,2.8008,2.8008,2.8008,2.8008,2.8008,2.7812,2.79,2.8291,2.8291,2.8291,2.8291,2.8291,2.8291,2.8291,2.8291,2.8291,2.8291,2.8291,2.8291,2.8291,2.8291,2.8291,2.8291,2.8291,2.8291,2.8291,2.8291,2.8291,2.8291,2.8291,2.8291,2.8184,2.7501,2.7276,2.7168,2.6499,2.6273,2.6381,2.7051,2.6164,2.5041,2.5041,2.3933,2.2558,2.1616,2.1346,2.1025,1.9974,2.0067,2.0091,1.9197,1.9435,1.962,1.8812,1.8708,1.8708,1.8708,1.8094,1.7582,1.7582,1.7582,1.7582,1.7582,1.7582,1.7582,1.7582,1.7582,1.7582,1.7582,1.7582,1.7582,1.7582,1.7582,1.7582,1.7582,1.7582,1.7582,1.7582,1.7582,1.7582,1.7582,1.7582,1.7582,1.541,1.6006,1.6738,1.7178,1.7607,1.793,0.0,0.0,0.0,0.0,0.0,0.0,0.0,0.0,0.0,0.0,0.0,0.0,0.0,0.0,0.0,0.0,0.0,0.0,0.0,0.0,0.0,0.0,0.0,2.7568,2.7568,2.7568,2.7568,2.7568,2.7207,2.7363,2.8086,2.8096,2.8096,2.8096,2.8096,2.8096,2.8096,2.8096,2.8096,2.8096,0.0,0.0,2.7863,2.8087,2.8126,2.795,2.8184,2.8291,2.8291,2.8291,2.8291,2.8291,2.8291,2.8174,2.7736,2.649,2.5936,2.5489,2.4156,2.3599,2.371,2.5041,2.4488,2.3487,2.3487,2.2332,2.1112,2.0951,1.9836,1.8651,1.815,1.8009,1.7896,1.7629,1.7582,1.7582,1.7582,1.7582,1.7582,1.7582,1.7582,1.7582,1.7582,1.7582,1.7582,1.7582,1.7582,1.7582,1.7582,1.7582,1.7582,1.7582,1.7582,1.7582,1.7582,1.7582,1.7582,1.7582,1.7582,1.7582,1.7582,1.7582,1.7582,1.7582,1.7582,1.7582,1.541,1.5781,1.6269,1.6719,1.7158,1.7568,0.0,0.0,0.0,0.0,0.0,0.0,0.0,0.0,0.0,0.0,0.0,0.0,0.0,0.0,0.0,0.0,0.0,0.0,0.0,0.0,0.0,0.0,0.0,2.7119,2.7119,2.7119,2.7119,2.7119,2.7051,2.708,2.7217,2.7217,2.7217,2.7217,2.7217,2.7217,2.7217,2.7217,2.7217,2.7217,0.0,2.6646,2.5977,2.7199,2.7304,2.6599,2.7843,2.8291,2.8291,2.8291,2.8291,2.8291,2.8291,2.7501,2.6381,2.6155,2.5261,2.4156,2.3822,2.2927,2.2032,2.2251,2.2145,2.1919,2.1919,2.0607,1.9305,1.9258,1.8648,1.8156,1.8063,1.7842,1.7642,1.7595,1.7582,1.7582,1.7582,1.7582,1.7582,1.7582,1.7582,1.7582,1.7582,1.7582,1.7582,1.7582,1.7582,1.7582,1.7582,1.7582,1.7582,1.7582,1.7582,1.7582,1.7582,1.7582,1.7582,1.7582,1.7582,1.7582,1.7582,1.7582,1.7582,1.7582,1.7582,1.7582,1.541,1.5557,1.5928,1.6855,1.7236,1.749,0.0,0.0,0.0,0.0,0.0,0.0,0.0,0.0,0.0,0.0,0.0,0.0,0.0,0.0,0.0,0.0,0.0,0.0,0.0,0.0,0.0,0.0,0.0,0.0,2.668,2.668,2.668,2.668,2.6445,2.6328,2.6328,2.6328,2.6553,2.7012,2.7012,2.7012,2.7012,2.7012,2.7012,2.691,0.0,2.6041,2.6219,2.6219,2.6578,2.7062,2.7728,2.8096,2.8291,2.8291,2.8291,2.8291,2.8291,2.7276,2.5936,2.5151,2.3822,2.2484,2.1707,2.0931,2.0329,2.016,2.0118,2.0118,2.0118,1.9456,1.8651,1.849,1.8243,1.8003,1.7836,1.7682,1.7582,1.7582,1.7582,1.7582,1.7582,1.7582,1.7582,1.7582,1.7582,1.7582,1.7582,1.7582,1.7582,1.7582,1.7582,1.7582,1.7582,1.7582,1.7582,1.7582,1.7582,1.7582,1.7582,1.7582,1.7582,1.7582,1.7582,1.7582,1.7582,1.7582,1.7582,1.7582,1.7582,1.7582,1.541,1.541,1.5674,1.6797,0.0,0.0,1.832,0.0,0.0,0.0,0.0,0.0,0.0,0.0,0.0,0.0,0.0,0.0,0.0,0.0,0.0,0.0,0.0,0.0,0.0,0.0,0.0,0.0,0.0,0.0,2.624,2.624,2.624,2.624,2.5908,2.5742,2.5742,2.5742,2.6064,2.6719,2.6719,2.6719,2.6719,2.6719,2.6719,2.6608,2.5331,2.5172,2.5806,2.4738,2.5181,2.6531,2.6531,2.694,2.7545,2.7882,2.7767,2.7545,2.7545,2.6323,2.4663,2.3456,2.2027,2.0699,1.9496,1.9165,1.9118,1.8885,1.8771,1.8731,1.8804,1.8604,1.833,1.8103,1.7989,1.7869,1.7629,1.7582,1.7582,1.7582,1.7582,1.7582,1.7582,1.7582,1.7582,1.7582,1.7582,1.7582,1.7582,1.7582,1.7582,1.7582,1.7582,1.7582,1.7582,1.7582,1.7582,1.7582,1.7582,1.7582,1.7582,1.7582,1.7582,1.7582,1.7582,1.7582,1.7582,1.7582,1.7582,1.7582,1.7582,1.7582,1.541,1.541,1.5527,1.6035,0.0,0.0,1.9502,0.0,0.0,0.0,0.0,0.0,0.0,0.0,0.0,0.0,0.0,0.0,0.0,0.0,0.0,0.0,0.0,0.0,0.0,0.0,0.0,0.0,0.0,2.5781,2.5781,2.5781,2.5781,2.5781,2.5752,2.5742,2.5742,2.5742,2.5762,2.583,2.583,2.583,2.583,2.583,2.583,2.5723,2.4387,2.3265,2.2461,2.2461,2.267,2.3101,2.3216,2.407,2.5381,2.667,2.6351,2.5267,2.5267,2.3453,2.1101,2.0992,1.9938,1.8655,1.8557,1.8551,1.8551,1.8531,1.8323,1.817,1.845,1.8303,1.807,1.805,1.7822,1.7609,1.7589,1.7582,1.7582,1.7582,1.7582,1.7582,1.7582,1.7582,1.7582,1.7582,1.7582,1.7582,1.7582,1.7582,1.7582,1.7582,1.7582,1.7582,1.7582,1.7582,1.7582,1.7582,1.7582,1.7582,1.7582,1.7582,1.7582,1.7582,1.7582,1.7582,1.7582,1.7582,1.7582,1.7582,1.7582,1.7582,1.541,1.5811,1.6396,1.71,0.0,0.0,0.0,0.0,0.0,0.0,0.0,0.0,0.0,0.0,0.0,0.0,0.0,0.0,0.0,0.0,0.0,0.0,0.0,0.0,0.0,0.0,0.0,0.0,2.5742,2.5742,2.5742,2.4922,2.4815,2.5635,2.4913,2.4815,2.5732,2.5742,2.5742,2.5742,2.5742,2.5742,2.5742,2.5742,2.5226,2.4402,2.3076,2.2241,2.1763,2.0941,2.1362,2.2435,2.2764,2.3279,2.3808,2.4237,2.4132,2.3694,2.3694,2.2421,2.0715,2.0715,1.9654,1.849,1.849,1.849,1.8457,1.8263,1.813,1.807,1.8183,1.7989,1.7756,1.7756,1.7669,1.7582,1.7582,1.7582,1.7582,1.7582,1.7582,1.7582,1.7582,1.7582,1.7582,1.7582,1.7582,1.7582,1.7582,1.7582,1.7582,1.7582,1.7582,1.7582,1.7582,1.7582,1.7582,1.7582,1.7582,1.7582,1.7582,1.7582,1.7582,1.7582,1.7582,1.7582,1.7582,1.7582,1.7582,1.7582,1.7582,1.7582,1.541,1.6064,0.0,0.0,0.0,0.0,0.0,0.0,0.0,0.0,0.0,0.0,0.0,0.0,0.0,0.0,0.0,0.0,0.0,0.0,0.0,0.0,0.0,0.0,0.0,0.0,2.5742,2.5742,2.5742,2.5528,2.5118,2.4205,2.3899,2.4402,2.3583,2.3484,2.4402,2.4412,2.4609,2.5118,2.5118,2.5323,2.5742,2.5742,2.502,2.3583,2.2257,2.1448,2.0939,1.9524,1.9658,2.0922,2.2094,2.2289,2.1877,2.2394,2.2192,2.1877,2.1877,2.0924,1.9772,1.9772,1.9038,1.8203,1.8203,1.8203,1.8163,1.7956,1.7903,1.7903,1.7903,1.7742,1.7582,1.7582,1.7582,1.7582,1.7582,1.7582,1.7582,1.7582,1.7582,1.7582,1.7582,1.7582,1.7582,1.7582,1.7582,1.7582,1.7582,1.7582,1.7582,1.7582,1.7582,1.7582,1.7582,1.7582,1.7582,1.7582,1.7582,1.7582,1.7582,1.7582,1.7582,1.7582,1.7582,1.7582,1.7582,1.7582,1.7582,1.7582,1.7582,1.7582,1.542,1.6074,0.0,0.0,0.0,0.0,0.0,0.0,0.0,0.0,0.0,0.0,0.0,0.0,0.0,0.0,0.0,0.0,0.0,0.0,0.0,0.0,0.0,0.0,2.5742,2.5742,2.5742,2.5742,2.5645,2.5118,2.3791,2.3692,2.3076,2.1752,2.1651,2.1651,2.1752,2.1752,2.2366,2.3692,2.3692,2.4402,2.5742,2.5742,2.4922,2.3583,2.2257,2.0939,1.9524,1.8199,1.7582,1.7891,2.0633,2.0837,1.9731,2.1143,2.0743,1.9627,1.9627,1.8708,1.7582,1.7582,1.7582,1.7582,1.7582,1.7582,1.7582,1.7582,1.7582,1.7582,1.7582,1.7582,1.7582,1.7582,1.7582,1.7582,1.7582,1.7582,1.7582,1.7582,1.7582,1.7582,1.7582,1.7582,1.7582,1.7582,1.7582,1.7582,1.7582,1.7582,1.7582,1.7582,1.7582,1.7582,1.7582,1.7582,1.7582,1.7582,1.7582,1.7582,1.7582,1.7582,1.7582,1.7582,1.7582,1.7582,1.7582,1.7582,1.7582,1.7582,1.7582,1.7582,1.6338,0.0,0.0,0.0,0.0,0.0,0.0,0.0,0.0,0.0,0.0,0.0,0.0,0.0,0.0,0.0,0.0,0.0,0.0,0.0,0.0,0.0,0.0,2.5742,2.5742,2.5742,2.5742,2.5742,2.4815,2.4097,2.3692,2.1862,2.1049,2.1651,2.0743,2.0743,2.1643,2.1752,2.1853,2.2257,2.2257,2.3484,2.5742,2.5742,2.4402,2.2257,2.1853,2.0333,1.8199,1.7786,1.7582,1.7687,1.8499,1.8603,1.8199,1.8708,1.8499,1.8199,1.8199,1.7891,1.7582,1.7582,1.7582,1.7582,1.7582,1.7582,1.7582,1.7582,1.7582,1.7582,1.7582,1.7582,1.7582,1.7582,1.7582,1.7582,1.7582,1.7582,1.7582,1.7582,1.7582,1.7582,1.7582,1.7582,1.7582,1.7582,1.7582,1.7582,1.7582,1.7582,1.7582,1.7582,1.7582,1.7582,1.7582,1.7582,1.7582,1.7582,1.7582,1.7582,1.7582,1.7582,1.7582,1.7582,1.7582,1.7582,1.7582,1.7582,1.7582,1.7582,1.7582,1.7582,1.6665,0.0,0.0,0.0,0.0,0.0,0.0,0.0,0.0,0.0,0.0,0.0,0.0,0.0,0.0,0.0,0.0,2.285,2.3379,0.0,0.0,0.0,2.4375,2.4742,2.4903,2.543,2.543,2.4922,2.4196,2.3176,2.2165,2.0538,1.9723,2.0025,1.9213,1.9213,2.0025,2.0025,2.0326,2.0845,2.0845,2.1963,2.4097,2.4097,2.2876,2.0837,2.0333,1.9109,1.7582,1.7582,1.7582,1.7582,1.7582,1.7582,1.7582,1.7582,1.7582,1.7582,1.7582,1.7582,1.7582,1.7582,1.7582,1.7582,1.7582,1.7582,1.7582,1.7582,1.7582,1.7582,1.7582,1.7582,1.7582,1.7582,1.7582,1.7582,1.7582,1.7582,1.7582,1.7582,1.7582,1.7582,1.7582,1.7582,1.7582,1.7582,1.7582,1.7582,1.7582,1.7582,1.7582,1.7582,1.7582,1.7582,1.7582,1.7582,1.7582,1.7582,1.7582,1.7582,1.7582,1.7582,1.7582,1.7582,1.7582,1.7582,1.7582,1.7582,1.7582,1.7582,1.7582,1.7582,0.0,0.0,0.0,0.0,0.0,0.0,0.0,0.0,0.0,0.0,0.0,0.0,0.0,0.0,0.0,0.0,2.2645,2.3181,2.2117,2.2231,0.0,2.1301,2.2346,2.3293,2.3547,2.4701,2.4906,2.3682,2.3412,2.2214,1.9686,1.9509,1.8812,1.7687,1.7582,1.7582,1.7582,1.7582,1.8192,1.942,1.942,2.0135,2.1347,2.155,2.0939,1.9524,1.8199,1.7582,1.7582,1.7582,1.7582,1.7582,1.7582,1.7582,1.7582,1.7582,1.7582,1.7582,1.7582,1.7582,1.7582,1.7582,1.7582,1.7582,1.7582,1.7582,1.7582,1.7582,1.7582,1.7582,1.7582,1.7582,1.7582,1.7582,1.7582,1.7582,1.7582,1.7582,1.7582,1.7582,1.7582,1.7582,1.7582,1.7582,1.7582,1.7582,1.7582,1.7582,1.7582,1.7582,1.7582,1.7582,1.7582,1.7582,1.7582,1.7582,1.7582,1.7582,1.7582,1.7582,1.7582,1.7582,1.7582,1.7582,1.7582,1.7582,1.7582,1.7582,1.7582,1.7582,1.7582,1.7582,0.0,0.0,0.0,0.0,0.0,0.0,0.0,0.0,0.0,0.0,0.0,0.0,0.0,0.0,0.0,2.2589,2.2204,2.1915,2.198,2.1238,2.0659,2.0829,2.1952,2.2767,2.2849,2.3058,2.3153,2.2858,2.118,1.9946,1.9348,1.8476,1.7891,1.7582,1.7582,1.7582,1.7582,1.7582,1.7786,1.7996,1.7996,1.8199,1.8499,2.0735,2.0939,1.9524,1.8199,1.7582,1.7582,1.7582,1.7582,1.7582,1.7582,1.7582,1.7582,1.7582,1.7582,1.7582,1.7582,1.7582,1.7582,1.7582,1.7582,1.7582,1.7582,1.7582,1.7582,1.7582,1.7582,1.7582,1.7582,1.7582,1.7582,1.7582,1.7582,1.7582,1.7582,1.7582,1.7582,1.7582,1.7582,1.7582,1.7582,1.7582,1.7582,1.7582,1.7582,1.7582,1.7582,1.7582,1.7582,1.7582,1.7582,1.7582,1.7582,1.7582,1.7582,1.7582,1.7582,1.7582,1.7582,1.7582,1.7582,1.7582,1.7582,1.7582,1.7582,1.7582,1.7582,1.7582,1.7582,1.7582,0.0,0.0,0.0,0.0,0.0,0.0,0.0,0.0,0.0,0.0,0.0,0.0,0.0,0.0,0.0,2.2129,2.1212,2.0292,1.9954,1.9321,1.8887,1.8654,2.0314,2.1242,2.0754,2.1838,2.2123,2.0866,1.9587,1.8711,1.8024,1.7476,1.7161,1.7161,1.7301,1.7375,1.7375,1.7515,1.7582,1.7582,1.7582,1.7582,1.7687,1.9109,1.9317,1.861,1.7891,1.7582,1.7582,1.7582,1.7582,1.7582,1.7582,1.7582,1.7582,1.7582,1.7582,1.7582,1.7582,1.7582,1.7582,1.7582,1.7582,1.7582,1.7582,1.7582,1.7582,1.7582,1.7582,1.7582,1.7582,1.7582,1.7582,1.7582,1.7582,1.7582,1.7582,1.7582,1.7582,1.7582,1.7582,1.7582,1.7582,1.7582,1.7582,1.7582,1.7582,1.7582,1.7582,1.7582,1.7582,1.7582,1.7582,1.7582,1.7582,1.7582,1.7582,1.7582,1.7582,1.7582,1.7582,1.7582,1.7582,1.7582,1.7582,1.7582,1.7582,1.6929,1.6499,1.6499,1.5849,1.553,0.0,0.0,0.0,0.0,0.0,0.0,0.0,0.0,0.0,0.0,0.0,0.0,0.0,0.0,2.1203,2.1025,1.9943,1.8864,1.787,1.7505,1.7044,1.6263,1.8255,1.9399,1.8648,2.0492,2.0872,1.8678,1.8341,1.7795,1.6733,1.6673,1.6707,1.6707,1.6947,1.7074,1.7074,1.7308,1.7428,1.7435,1.7482,1.7535,1.7582,1.7582,1.7582,1.7582,1.7582,1.7582,1.7582,1.7582,1.7582,1.7582,1.7582,1.7582,1.7582,1.7582,1.7582,1.7582,1.7582,1.7582,1.7582,1.7582,1.7582,1.7582,1.7582,1.7582,1.7582,1.7582,1.7582,1.7582,1.7582,1.7582,1.7582,1.7582,1.7582,1.7582,1.7582,1.7582,1.7582,1.7582,1.7582,1.7582,1.7582,1.7582,1.7582,1.7582,1.7582,1.7582,1.7582,1.7582,1.7582,1.7582,1.7582,1.7582,1.7582,1.7582,1.7582,1.7582,1.7582,1.7582,1.7582,1.7364,1.7252,1.7252,1.7252,1.7252,1.7252,1.5743,1.5091,1.4984,1.3804,1.3264,0.0,0.0,0.0,0.0,0.0,0.0,0.0,0.0,0.0,0.0,0.0,0.0,0.0,2.0349,2.0935,1.9943,1.8772,1.787,1.7692,1.6763,1.6028,1.5885,1.7095,1.7953,1.7811,1.8186,1.8186,1.7819,1.7035,1.6522,1.6333,1.6567,1.6707,1.6707,1.674,1.6767,1.6767,1.6807,1.682,1.6827,1.7088,1.7341,1.7582,1.7582,1.7582,1.7582,1.7582,1.7582,1.7582,1.7582,1.7582,1.7582,1.7582,1.7582,1.7582,1.7582,1.7582,1.7582,1.7582,1.7582,1.7582,1.7582,1.7582,1.7582,1.7582,1.7582,1.7582,1.7582,1.7582,1.7582,1.7582,1.7582,1.7582,1.7582,1.7582,1.7582,1.7582,1.7582,1.7582,1.7582,1.7582,1.7582,1.7582,1.7582,1.7582,1.7582,1.7582,1.7582,1.7582,1.7582,1.7582,1.7582,1.7582,1.7582,1.7582,1.7582,1.7582,1.7582,1.7582,1.7582,1.7582,1.6387,1.5743,1.5743,1.5743,1.5743,1.5743,1.4234,1.3588,1.3588,1.3372,1.3264,0.0,0.0,0.0,0.0,0.0,0.0,0.0,0.0,0.0,0.0,0.0,0.0,0.0,1.9729,1.9533,1.8371,1.7365,1.6669,1.6669,1.6109,1.5832,1.5832,1.6943,1.7412,1.6669,1.7318,1.7404,1.6669,1.6232,1.6025,1.6025,1.6146,1.6219,1.6219,1.6373,1.6466,1.6466,1.662,1.6707,1.6707,1.684,1.6967,1.7094,1.7094,1.7275,1.7582,1.7582,1.7582,1.7569,1.7408,1.7341,1.7321,1.7154,1.7094,1.7094,1.7094,1.7094,1.7094,1.7094,1.7201,1.7341,1.7341,1.7448,1.7582,1.7582,1.7582,1.7582,1.7582,1.7582,1.7582,1.7582,1.7582,1.7582,1.7582,1.7582,1.7582,1.7582,1.7582,1.7582,1.7582,1.7582,1.7582,1.7582,1.7582,1.7582,1.7582,1.7582,1.7582,1.7582,1.7582,1.7582,1.7582,1.7582,1.7582,1.7582,1.7582,1.7582,1.7582,1.6823,1.6393,1.6393,1.499,1.4234,1.4234,1.4234,1.4234,1.4234,1.2724,1.2082,1.2077,1.1214,1.0781,0.0,0.0,0.0,0.0,0.0,0.0,0.0,0.0,0.0,0.0,0.0,0.0,1.9085,1.8671,1.7927,1.6862,1.6153,1.5718,1.5718,1.5785,1.5832,1.5832,1.6669,1.685,1.592,1.6669,1.685,1.5825,1.5832,1.5832,1.5832,1.5832,1.5832,1.5832,1.6046,1.6159,1.6159,1.6373,1.652,1.66,1.66,1.6633,1.6707,1.6707,1.6941,1.7361,1.7361,1.7361,1.7341,1.7128,1.7041,1.7014,1.6794,1.6707,1.6707,1.6707,1.6707,1.6707,1.6707,1.6847,1.7041,1.7041,1.7181,1.7361,1.7361,1.7361,1.7361,1.7361,1.7361,1.7361,1.7361,1.7361,1.7361,1.7361,1.7361,1.7402,1.7549,1.7582,1.7582,1.7582,1.7582,1.7582,1.7582,1.7582,1.7582,1.7582,1.7582,1.7582,1.7582,1.7582,1.7582,1.7582,1.7582,1.747,1.7041,1.7041,1.6929,1.6499,1.5417,1.4877,1.4877,1.348,1.2724,1.2724,1.2403,1.2403,1.2724,1.1214,1.0566,1.0457,0.9372,0.894,0.0,0.0,0.0,0.0,0.0,0.0,0.0,0.0,0.0,0.0,0.0,0.0,1.6319,1.6443,1.6529,1.5335,1.5322,1.5418,1.5418,1.5658,1.5832,1.5832,1.5832,1.5825,1.5832,1.5825,1.5825,1.5832,1.5832,1.5832,1.5832,1.5832,1.5832,1.5832,1.5845,1.5852,1.5852,1.5865,1.6019,1.6293,1.6293,1.644,1.6707,1.6707,1.6727,1.6747,1.6747,1.6747,1.6747,1.6734,1.6727,1.6727,1.6714,1.6707,1.6707,1.6707,1.6707,1.6707,1.6707,1.6714,1.6727,1.6727,1.674,1.6747,1.6747,1.6747,1.6747,1.6747,1.6747,1.6747,1.6747,1.6747,1.6747,1.6747,1.6747,1.6901,1.7462,1.7582,1.7582,1.7582,1.7582,1.7582,1.7582,1.7582,1.7582,1.7582,1.7582,1.7582,1.7582,1.7582,1.7582,1.7582,1.7582,1.7035,1.5636,1.5524,1.4984,1.3588,1.348,1.3372,1.3372,1.1973,1.1214,1.1214,0.9805,0.9805,1.1214,0.9699,0.9047,0.9047,0.8937,0.894,0.0,0.0,0.0,0.0,0.0,0.0,0.0,0.0,0.0,0.0,0.0,1.6437,1.4977,1.5568,1.5937,1.4845,1.4923,1.5117,1.5117,1.5211,1.5344,1.5531,1.5551,1.5625,1.5812,1.5832,1.5832,1.5832,1.5832,1.5832,1.5832,1.5832,1.5832,1.5832,1.5832,1.5832,1.5832,1.5832,1.5879,1.5985,1.5985,1.6039,1.6146,1.6146,1.6146,1.6146,1.6146,1.6359,1.6693,1.6506,1.6426,1.6406,1.6219,1.6146,1.6146,1.6146,1.6146,1.6146,1.6146,1.6266,1.6426,1.6426,1.6553,1.6707,1.6707,1.6707,1.6707,1.6707,1.6707,1.6707,1.6707,1.6707,1.6707,1.6707,1.6707,1.6767,1.6974,1.7315,1.7582,1.7582,1.7582,1.7582,1.7582,1.7582,1.7582,1.7582,1.7582,1.7582,1.7582,1.6823,1.6174,1.6174,1.5423,1.4669,1.4126,1.4019,1.3804,1.3372,1.2403,1.1864,1.1864,1.0457,0.9699,0.9699,0.9154,0.9154,0.9699,0.9154,0.894,0.894,0.894,0.894,0.0,0.0,0.0,0.0,0.0,0.0,0.0,0.0,0.0,0.0,0.0,1.5379,1.4334,1.4817,1.5198,1.4455,1.4623,1.4816,1.4816,1.4903,1.5037,1.5224,1.5251,1.5331,1.5518,1.5538,1.5538,1.5538,1.5625,0.0,1.5685,1.5772,1.5832,1.5832,1.5832,1.5832,1.5832,1.5832,1.5832,1.5832,1.5832,1.5832,1.5832,1.5832,1.5832,1.5832,1.5832,1.6052,1.6393,1.6206,1.6126,1.6106,1.5905,1.5832,1.5832,1.5832,1.5832,1.5832,1.5832,1.5959,1.6126,1.6126,1.6253,1.6413,1.6413,1.6413,1.6413,1.6413,1.6413,1.6413,1.6413,1.6413,1.6413,1.6413,1.6486,1.656,1.656,1.7021,1.7442,1.7442,1.7515,1.747,1.6935,1.6823,1.6717,1.628,1.6174,1.6174,1.6174,1.531,1.4663,1.4663,1.3911,1.3048,1.262,1.2512,1.2403,1.186,1.0891,1.0347,1.0347,0.9372,0.894,0.894,0.894,0.894,0.894,0.894,0.894,0.894,0.894,0.894,0.0,0.0,0.0,0.0,0.0,0.0,0.0,0.0,0.0,0.0,0.0,1.5274,1.4328,1.4088,1.4088,1.4088,1.4322,1.4502,1.4502,1.4756,1.4943,1.495,1.495,1.495,1.4963,1.4963,1.4963,1.4963,1.5224,1.5384,1.5384,1.5651,1.5805,1.5812,1.5812,1.5818,1.5832,1.5832,1.5832,1.5832,1.5832,1.5832,1.5832,1.5832,1.5832,1.5832,1.5832,1.5832,1.5832,1.5832,1.5832,1.5832,1.5832,1.5832,1.5832,1.5832,1.5832,1.5832,1.5832,1.5832,1.5832,1.5832,1.5832,1.5832,1.5832,1.5832,1.5832,1.5832,1.5832,1.5832,1.5832,1.5832,1.5832,1.5832,1.6052,1.6259,1.6259,1.6714,1.723,1.725,1.7375,1.714,1.5737,1.5417,1.4984,1.3588,1.3372,1.3264,1.3264,1.3264,1.3264,1.3264,1.3156,1.262,1.1214,1.1,1.0457,0.8937,0.894,0.894,0.894,0.894,0.894,0.894,0.894,0.894,0.894,0.894,0.894,0.894,0.894,0.894,1.3304,0.0,0.0,0.0,0.0,0.0,0.0,0.0,0.0,0.0,1.418,1.3892,1.4092,1.4088,1.4088,1.4088,1.4155,1.4208,1.4208,1.4275,1.4409,1.4616,1.4643,1.473,1.4943,1.4963,1.4963,0.0,1.5037,1.5084,1.5084,1.5157,1.5297,1.5504,1.5518,1.5618,1.5825,1.5832,1.5832,1.5832,1.5832,1.5832,1.5832,1.5832,1.5832,1.5832,1.5832,1.5832,1.5832,1.5832,1.5832,1.5832,1.5832,1.5832,1.5832,1.5832,1.5832,1.5832,1.5832,1.5832,1.5832,1.5832,1.5832,1.5832,1.5832,1.5832,1.5832,1.5832,1.5832,1.5832,1.5832,1.5832,1.5832,1.5832,1.5892,1.5952,1.5952,1.6246,1.664,1.717,1.7215,1.7224,1.7009,1.6068,1.531,1.4877,1.3911,1.3264,1.3264,1.2403,1.1755,1.1755,1.0781,0.9915,0.9588,0.9482,0.9372,0.8937,0.894,0.894,0.894,0.894,0.894,0.894,0.894,0.894,0.894,0.894,0.894,0.894,0.894,0.894,0.0,0.0,0.0,0.0,0.0,0.0,1.1645,1.1586,1.183,0.0,1.3126,1.3013,1.3614,1.3514,1.3427,1.3681,1.3721,1.3808,1.4055,1.4088,1.4148,1.4315,1.4342,1.4409,1.4583,1.4596,1.4596,1.4596,1.471,1.4836,1.4957,1.4963,1.5037,1.5211,1.5217,1.5357,1.5645,1.5651,1.5712,1.5832,1.5832,1.5832,1.5832,1.5832,1.5832,1.5832,1.5832,1.5832,1.5832,1.5832,1.5832,1.5832,1.5832,1.5832,1.5832,1.5832,1.5832,1.5832,1.5832,1.5832,1.5832,1.5832,1.5832,1.5832,1.5832,1.5832,1.5832,1.5832,1.5439,1.5146,1.5635,1.4956,1.4274,1.4854,1.4561,1.4178,1.4178,1.4298,1.4931,1.6487,1.6981,1.7091,1.6618,1.5883,1.4984,1.3804,1.294,1.2186,1.1538,1.0676,1.0131,1.0131,0.9372,0.894,0.894,0.894,0.894,0.894,0.894,0.894,0.894,0.894,0.894,0.894,0.894,0.894,0.894,0.894,0.894,0.894,0.894,0.894,0.0,0.0,0.0,0.0,0.0,0.0,1.0705,1.1002,1.1516,0.0,0.0,1.2392,1.2999,1.2665,1.2478,1.3019,1.3166,1.3414,1.4001,1.4088,1.4088,1.4088,1.4088,1.4088,1.4088,1.4088,1.4088,1.4088,1.4322,1.4589,1.4856,1.4863,1.4877,1.491,1.4917,1.5057,1.5344,1.5351,1.5491,1.5785,1.5785,1.5798,1.5832,1.5832,1.5832,1.5832,1.5832,1.5832,1.5832,1.5832,1.5832,1.5832,1.5832,1.5832,1.5832,1.5832,1.5832,1.5832,1.5832,1.5832,1.5832,1.5832,1.573,1.5635,1.5635,1.554,1.5343,1.5343,1.4561,1.3974,1.5051,1.3596,1.2237,1.3392,1.2813,1.1945,1.1945,1.1945,1.2689,1.5278,1.6286,1.6266,1.5029,1.4824,1.4019,1.1538,1.1,1.0351,0.9047,0.894,0.894,0.894,0.894,0.894,0.894,0.894,0.894,0.894,0.894,0.894,0.894,0.894,0.894,0.894,0.894,0.894,0.894,0.894,0.894,0.894,0.894,0.894,0.0,0.0,0.0,0.0,0.0,0.0,1.1149,1.0982,1.1029,0.0,1.1924,1.1777,1.2371,1.2385,1.2345,1.2458,1.2893,1.3414,1.4001,1.4088,1.4088,1.4088,1.4088,1.4088,1.4088,1.4088,1.4088,1.4088,1.4142,1.4195,1.4255,1.4262,1.4369,1.4596,1.4603,1.475,1.5044,1.505,1.5197,1.5478,1.5478,1.5605,1.5832,1.5832,1.5832,1.5832,1.5832,1.5832,1.5832,1.5832,1.5832,1.5832,1.5832,1.5832,1.5832,1.5832,1.5832,1.5832,1.5832,1.5832,1.5832,1.5832,1.514,1.4262,1.4262,1.3494,1.2624,1.2624,1.2528,1.2334,1.2624,1.2237,1.1945,1.2237,1.2042,1.1945,1.1945,1.1945,1.2058,1.2689,1.3168,1.3442,1.342,1.2578,1.1755,1.1214,1.0135,0.9265,0.8937,0.894,0.894,0.894,0.894,0.894,0.894,0.894,0.894,0.894,0.894,0.894,0.894,0.894,0.894,0.894,0.894,0.894,0.894,0.894,0.894,0.894,0.894,0.894,0.0,0.0,0.0,1.0624,0.0,0.0,0.0,1.0768,1.0808,1.1683,1.1403,1.1169,1.1757,0.0,1.153,1.1817,1.2124,1.2525,1.3113,1.3714,1.4088,1.4088,1.4088,1.4088,1.4088,1.4088,1.4088,1.4088,1.4088,1.4088,1.4088,1.4088,1.4155,1.4302,1.4302,1.4449,1.4736,1.4743,1.489,1.5177,1.5177,1.5257,1.5404,1.5545,1.5611,1.5618,1.5765,1.5832,1.5832,1.5832,1.5439,1.4949,1.554,1.5439,1.4949,1.5534,1.4956,1.398,1.4657,1.437,1.3884,1.3884,1.3397,1.2909,1.2909,1.2431,1.1945,1.1945,1.1458,1.1072,1.175,1.0974,1.0096,1.0779,1.0485,0.9998,0.9998,0.9998,0.9998,0.9998,1.0294,1.0984,1.2531,1.251,1.1973,1.1214,1.0457,0.9699,0.9047,0.894,0.894,0.894,0.894,0.894,0.894,0.894,0.894,0.894,0.894,0.894,0.894,0.894,0.894,0.894,0.894,0.894,0.894,0.894,0.894,0.8937,0.8859,0.8825,0.0,0.0,0.0,0.0,0.0,1.0624,0.0,0.0,0.0,0.0,0.0,0.0,0.0,0.0,0.0,0.0,0.0,0.0,0.0,1.3066,0.0,1.3748,1.3748,1.3788,1.3908,1.4021,1.4088,1.4088,1.4088,1.4088,1.4088,1.4088,1.4088,1.4088,1.4088,1.4202,1.4436,1.4436,1.4583,1.4877,1.4877,1.491,1.497,1.5204,1.5311,1.5331,1.5565,1.5698,1.5745,1.5455,1.4804,1.3974,1.5045,1.4657,1.368,1.4657,1.3692,1.2042,1.3102,1.2818,1.1945,1.1945,1.175,1.1463,1.1263,1.1165,1.1165,1.1165,1.0386,0.9899,1.0872,0.9604,0.8233,0.9312,0.8825,0.8038,0.8038,0.8038,0.8038,0.8038,0.8279,0.9205,1.1465,1.2124,1.2077,1.0891,1.0676,1.0241,0.9047,0.894,0.894,0.894,0.894,0.894,0.894,0.894,0.894,0.894,0.894,0.894,0.894,0.894,0.894,0.894,0.894,0.8923,0.8896,0.8896,0.8896,0.8893,0.8767,0.8696,0.0,0.0,0.0,0.0,1.0624,0.0,0.0,0.0,1.0645,1.0705,0.0,0.0,0.0,0.0,0.0,0.0,0.0,0.0,1.1516,1.2091,1.2505,1.2505,1.2505,1.2719,1.326,1.3781,1.4088,1.4088,1.4088,1.4088,1.4088,1.4088,1.4088,1.4088,1.4088,1.4102,1.4135,1.4135,1.4282,1.4569,1.4569,1.471,1.4963,1.4997,1.5017,1.5017,1.505,1.5211,1.5352,1.4198,1.3761,1.3878,1.407,1.3295,1.2139,1.2334,1.2139,1.1945,1.2042,1.2042,1.1945,1.1945,1.117,0.9998,0.8825,0.8432,0.8432,0.8432,0.8333,0.8233,0.8432,0.8233,0.8038,0.8237,0.8137,0.8038,0.8038,0.8038,0.8038,0.8038,0.8279,0.8584,0.8895,0.9158,0.9375,0.9154,0.9154,0.9047,0.8937,0.894,0.894,0.894,0.894,0.894,0.894,0.894,0.894,0.894,0.894,0.894,0.894,0.894,0.894,0.894,0.894,0.8872,0.8737,0.8737,0.8737,0.8737,0.872,0.8638,0.0,0.0,0.0,0.0,0.0,0.0,1.0698,0.0,1.0624,0.0,0.0,0.0,0.0,0.0,0.0,0.0,1.0768,0.0,0.0,0.0,1.1543,0.0,0.0,0.0,1.3153,1.3113,1.32,1.3547,1.3581,1.3581,1.3581,1.3901,1.4088,1.4088,1.4088,1.4088,1.4088,1.4088,1.4148,1.4269,1.4269,1.3972,1.3467,1.3623,1.3698,1.3704,1.3879,1.4016,1.4116,1.3561,1.2582,1.1552,1.1552,1.125,1.0877,1.1653,1.0974,0.9702,1.0485,1.0288,0.9604,0.9604,0.9312,0.8726,0.8137,0.8038,0.8038,0.8038,0.8038,0.8038,0.8038,0.8038,0.8038,0.8038,0.8038,0.8038,0.8038,0.8038,0.8038,0.8038,0.8214,0.8384,0.8469,0.8737,0.894,0.894,0.894,0.894,0.894,0.894,0.894,0.894,0.894,0.894,0.894,0.894,0.894,0.894,0.894,0.894,0.894,0.894,0.8896,0.8808,0.8808,0.873,0.8577,0.8577,0.8537,0.8455,0.8455,0.8421,1.155,0.0,0.0,0.0,0.0,0.0,0.0,0.0,0.0,0.0,0.0,0.0,0.0,0.0,0.0,0.0,0.0,1.0624,0.0,1.0364,0.0,0.0,0.0,0.0,0.0,1.2159,1.2254,1.2214,1.2486,1.2557,1.2387,1.2776,1.3058,1.3124,1.313,1.313,1.313,1.313,1.313,1.313,1.313,1.2687,1.1821,1.2088,1.2173,1.2178,1.2371,1.2496,1.2558,1.2191,1.1134,0.9643,0.9411,0.932,0.9539,1.0467,0.9604,0.8137,0.9118,0.8825,0.8038,0.8038,0.8038,0.8038,0.8038,0.8038,0.8038,0.8038,0.8038,0.8038,0.8038,0.8038,0.8038,0.8038,0.8038,0.8038,0.8038,0.8038,0.8038,0.8038,0.8163,0.8303,0.8408,0.8676,0.8889,0.893,0.894,0.894,0.894,0.894,0.894,0.894,0.894,0.894,0.894,0.8899,0.8859,0.8815,0.8815,0.8815,0.8815,0.8815,0.876,0.8652,0.8648,0.8574,0.8425,0.8425,0.835,0.8208,0.8252,0.8248,0.0,0.0,0.0,1.2131,0.0,0.0,0.0,0.0,1.0624,0.0,0.0,0.0,0.0,0.0,0.0,0.0,0.0,0.0,0.0,0.0,0.0,0.0,0.0,0.0,0.0,1.0942,1.1626,0.99,1.0594,1.0812,1.0337,1.0293,1.0419,1.0682,1.0697,1.0697,1.0697,1.0697,1.0697,1.0697,1.0697,1.0697,1.0611,1.0702,1.0707,1.0707,1.0712,1.0845,1.1043,0.9791,0.9362,0.9363,0.8321,0.7911,0.7931,0.8082,0.8038,0.8038,0.8038,0.8038,0.8038,0.8038,0.8038,0.8038,0.8038,0.8038,0.8038,0.8038,0.8038,0.8038,0.8038,0.8038,0.8038,0.8038,0.8038,0.8038,0.8038,0.8038,0.8038,0.8038,0.8163,0.8272,0.8275,0.8523,0.8767,0.8916,0.894,0.894,0.894,0.894,0.894,0.894,0.894,0.894,0.894,0.8804,0.8655,0.8506,0.8496,0.8496,0.8496,0.8496,0.8496,0.8489,0.8489,0.8418,0.8279,0.8279,0.8197,0.8052,0.8201,0.8191,0.0,0.0,1.2652,1.2852,0.0,0.0,0.0,0.0,0.0,0.0,0.0,0.0,0.0,0.0,0.0,0.0,0.0,0.0,0.0,0.0,0.0,0.0,0.0,0.0,0.0,0.0,0.9358,0.9103,0.9344,0.9558,0.9571,0.9956,1.0326,1.0595,1.0611,1.0611,1.0611,1.0611,1.0611,1.0611,1.0611,1.0183,0.9492,0.9492,0.9492,0.9492,0.9492,0.9533,0.9596,0.9155,0.8645,0.8085,0.7684,0.7638,0.7831,0.7984,0.8038,0.8038,0.8038,0.8038,0.8038,0.8038,0.8038,0.8038,0.8038,0.8038,0.8038,0.8038,0.8038,0.8038,0.8038,0.8038,0.8038,0.8038,0.8038,0.8038,0.8038,0.8038,0.8038,0.8038,0.8082,0.815,0.8252,0.8353,0.8503,0.875,0.8788,0.8825,0.8927,0.8852,0.8788,0.8788,0.8696,0.8635,0.8635,0.8587,0.8537,0.8486,0.8482,0.8482,0.8482,0.8482,0.8438,0.8343,0.8343,0.8269,0.8116,0.8116,0.8092,0.8041,0.8092,0.8089,1.3414,1.3373,0.0,1.3474,1.2906,0.0,1.2098,0.0,1.1182,0.0,0.0,0.0,0.0,0.0,0.0,0.0,0.0,0.0,0.0,0.7567,0.0,0.0,0.0,0.0,0.0,0.7991,0.8144,0.8497,0.8518,0.8579,0.8656,0.9096,0.9341,0.9383,0.9396,0.9396,0.9396,0.9396,0.9396,0.9396,0.9396,0.8965,0.8277,0.8277,0.8277,0.8277,0.8277,0.8277,0.8277,0.8277,0.7908,0.7295,0.735,0.7489,0.7678,0.7882,0.7991,0.8038,0.8038,0.8038,0.8038,0.8038,0.8038,0.8038,0.8038,0.8038,0.8062,0.8167,0.8119,0.8065,0.8167,0.8119,0.8038,0.8038,0.8038,0.8038,0.8038,0.8038,0.8038,0.8038,0.8038,0.8072,0.817,0.8187,0.8289,0.8584,0.8628,0.8665,0.8764,0.8689,0.8628,0.8628,0.854,0.8462,0.8411,0.8408,0.8384,0.8326,0.8323,0.8323,0.8323,0.8323,0.8282,0.8191,0.8187,0.814,0.8038,0.8038,0.8038,0.8038,0.8038,0.8038]},{"header":{"parameterUnit":"m.s-1","parameterCategory":1,"la1":30.6,"la2":29.2853,"lo1":-89.7004,"lo2":-87.6739,"dy":0.0162,"dx":0.0183,"nx":112,"ny":82,"refTime":"2023-09-09T06:00:00:Z","depth":0,"parameterNumber":3,"parameterNumberName":"V-component_of_WINDS"},"data":[0.0,0.0,0.0,0.0,0.0,0.0,0.0,0.0,0.0,0.0,0.0,0.0,0.0,0.0,0.0,0.0,0.0,0.0,0.0,0.0,0.0,0.0,0.0,0.0,0.0,0.0,0.0,0.0,0.0,0.0,0.0,0.0,0.0,0.0,0.0,0.0,0.0,0.0,0.0,0.0,0.0,0.0,0.0,0.0,0.0,0.0,0.0,0.0,0.0,0.0,0.0,0.0,0.0,0.0,0.0,0.0,0.0,0.0,0.0,0.0,0.0,0.0,0.0,0.0,0.0,0.0,0.0,0.0,0.0,0.0,0.0,0.0,0.0,0.0,0.0,0.0,0.0,0.0,0.0,0.0,0.0,0.0,0.0,0.0,0.0,0.0,0.0,0.0,0.0,0.0,-1.9952,-2.0754,-2.1521,-2.1735,-2.1312,-2.1855,-2.1033,-1.8256,0.0,0.0,0.0,0.0,0.0,0.0,0.0,0.0,0.0,0.0,0.0,0.0,0.0,0.0,0.0,0.0,0.0,0.0,0.0,0.0,0.0,0.0,0.0,0.0,0.0,0.0,0.0,0.0,0.0,0.0,0.0,0.0,0.0,0.0,0.0,0.0,0.0,0.0,0.0,0.0,0.0,0.0,0.0,0.0,0.0,0.0,0.0,0.0,0.0,0.0,0.0,0.0,0.0,0.0,0.0,0.0,0.0,0.0,0.0,0.0,0.0,0.0,0.0,0.0,0.0,0.0,0.0,0.0,0.0,0.0,0.0,0.0,0.0,0.0,0.0,0.0,0.0,0.0,0.0,0.0,0.0,0.0,0.0,0.0,0.0,0.0,0.0,0.0,0.0,0.0,0.0,0.0,0.0,0.0,0.0,0.0,0.0,0.0,0.0,0.0,0.0,0.0,0.0,0.0,-2.0719,-2.3762,-2.4184,-2.4245,-2.4171,-2.3878,-2.266,-2.0395,0.0,0.0,0.0,0.0,0.0,0.0,0.0,0.0,0.0,0.0,0.0,0.0,0.0,0.0,0.0,0.0,0.0,0.0,0.0,0.0,0.0,0.0,0.0,0.0,0.0,0.0,0.0,0.0,0.0,0.0,0.0,0.0,0.0,0.0,0.0,0.0,0.0,0.0,0.0,0.0,0.0,0.0,0.0,0.0,0.0,0.0,0.0,0.0,0.0,0.0,0.0,0.0,0.0,0.0,0.0,0.0,0.0,0.0,0.0,0.0,0.0,0.0,0.0,0.0,0.0,0.0,0.0,0.0,0.0,0.0,0.0,0.0,0.0,0.0,0.0,0.0,0.0,0.0,0.0,0.0,0.0,0.0,0.0,0.0,0.0,0.0,0.0,0.0,0.0,0.0,0.0,0.0,0.0,0.0,0.0,0.0,0.0,0.0,0.0,0.0,0.0,0.0,0.0,-2.1045,-2.2812,-2.5006,-2.5247,-2.5134,-2.4845,-2.4594,-2.3489,-2.1255,-2.0865,0.0,0.0,0.0,0.0,0.0,0.0,0.0,0.0,0.0,0.0,0.0,0.0,0.0,0.0,0.0,0.0,0.0,0.0,0.0,0.0,0.0,0.0,0.0,0.0,0.0,0.0,0.0,0.0,0.0,0.0,0.0,0.0,0.0,0.0,0.0,0.0,0.0,0.0,0.0,0.0,0.0,0.0,0.0,0.0,0.0,0.0,0.0,0.0,0.0,0.0,0.0,0.0,0.0,0.0,0.0,0.0,0.0,0.0,0.0,0.0,0.0,0.0,0.0,0.0,0.0,0.0,0.0,0.0,0.0,0.0,0.0,0.0,0.0,0.0,0.0,0.0,0.0,0.0,0.0,0.0,0.0,0.0,0.0,0.0,0.0,0.0,0.0,0.0,0.0,0.0,0.0,0.0,0.0,0.0,0.0,0.0,0.0,0.0,0.0,0.0,0.0,0.0,-2.3592,-2.4895,-2.5711,-2.5799,-2.5636,-2.5247,-2.4858,-2.3791,-2.1807,-2.1305,0.0,0.0,0.0,0.0,0.0,0.0,0.0,0.0,0.0,0.0,0.0,0.0,0.0,0.0,0.0,0.0,0.0,0.0,0.0,0.0,0.0,0.0,0.0,0.0,0.0,0.0,0.0,0.0,0.0,0.0,0.0,0.0,0.0,0.0,0.0,0.0,0.0,0.0,0.0,0.0,0.0,0.0,0.0,0.0,0.0,0.0,0.0,0.0,0.0,0.0,0.0,0.0,0.0,0.0,0.0,0.0,0.0,0.0,0.0,0.0,0.0,0.0,0.0,0.0,0.0,0.0,0.0,0.0,0.0,0.0,0.0,0.0,0.0,0.0,0.0,0.0,0.0,0.0,0.0,0.0,0.0,0.0,0.0,0.0,0.0,0.0,0.0,0.0,0.0,0.0,0.0,0.0,0.0,0.0,0.0,0.0,0.0,0.0,0.0,0.0,0.0,0.0,-2.4542,-2.6382,-2.6458,-2.6471,-2.6445,-2.6352,-2.4933,-2.354,-2.2334,-2.0778,0.0,0.0,0.0,0.0,0.0,0.0,0.0,0.0,0.0,0.0,0.0,0.0,0.0,0.0,0.0,0.0,0.0,0.0,0.0,0.0,0.0,0.0,0.0,0.0,0.0,0.0,0.0,0.0,0.0,0.0,0.0,0.0,0.0,0.0,0.0,0.0,0.0,0.0,0.0,0.0,0.0,0.0,0.0,0.0,0.0,0.0,0.0,0.0,0.0,0.0,0.0,0.0,0.0,0.0,0.0,0.0,0.0,0.0,0.0,0.0,0.0,0.0,0.0,0.0,0.0,0.0,0.0,0.0,0.0,0.0,0.0,0.0,0.0,0.0,0.0,0.0,0.0,0.0,0.0,0.0,0.0,0.0,0.0,0.0,0.0,0.0,0.0,0.0,0.0,0.0,0.0,0.0,0.0,0.0,0.0,0.0,0.0,0.0,0.0,0.0,0.0,0.0,-2.4277,-2.5699,0.0,-2.6533,-2.6533,-2.6533,-2.5887,-2.4757,-2.2937,0.0,0.0,0.0,0.0,0.0,0.0,0.0,0.0,0.0,0.0,0.0,0.0,0.0,0.0,0.0,0.0,0.0,0.0,0.0,0.0,0.0,0.0,0.0,0.0,0.0,0.0,0.0,0.0,0.0,0.0,0.0,0.0,0.0,0.0,0.0,0.0,0.0,0.0,0.0,0.0,0.0,0.0,0.0,0.0,0.0,0.0,0.0,0.0,0.0,0.0,0.0,0.0,0.0,0.0,0.0,0.0,0.0,0.0,0.0,0.0,0.0,0.0,0.0,0.0,0.0,0.0,0.0,0.0,0.0,0.0,0.0,0.0,0.0,0.0,0.0,0.0,0.0,0.0,0.0,0.0,0.0,0.0,0.0,0.0,0.0,0.0,0.0,0.0,0.0,0.0,0.0,0.0,0.0,0.0,0.0,0.0,0.0,0.0,0.0,0.0,0.0,0.0,-2.3037,-2.4418,-2.5636,0.0,-2.6533,-2.6533,-2.6533,-2.6138,-2.5134,-2.319,0.0,0.0,0.0,0.0,0.0,0.0,0.0,0.0,0.0,0.0,0.0,0.0,0.0,0.0,0.0,0.0,0.0,0.0,0.0,0.0,0.0,0.0,0.0,0.0,0.0,0.0,0.0,0.0,0.0,0.0,0.0,0.0,0.0,0.0,0.0,0.0,0.0,0.0,0.0,0.0,0.0,0.0,0.0,0.0,0.0,0.0,0.0,0.0,0.0,0.0,0.0,0.0,0.0,0.0,0.0,0.0,0.0,0.0,0.0,0.0,0.0,0.0,0.0,0.0,0.0,0.0,0.0,0.0,0.0,0.0,0.0,0.0,0.0,0.0,0.0,0.0,0.0,0.0,0.0,0.0,0.0,0.0,0.0,0.0,0.0,0.0,0.0,0.0,0.0,0.0,0.0,0.0,0.0,0.0,0.0,0.0,0.0,0.0,0.0,0.0,0.0,0.0,-2.3078,-2.5084,-2.6533,-2.6533,-2.6533,-2.6533,-2.6533,-2.5473,-2.4356,0.0,0.0,0.0,0.0,0.0,0.0,0.0,0.0,0.0,0.0,0.0,0.0,0.0,0.0,0.0,0.0,0.0,0.0,0.0,0.0,0.0,0.0,0.0,0.0,0.0,0.0,0.0,0.0,0.0,0.0,0.0,0.0,0.0,0.0,0.0,0.0,0.0,0.0,0.0,0.0,0.0,0.0,0.0,0.0,0.0,0.0,0.0,0.0,0.0,0.0,0.0,0.0,0.0,0.0,0.0,0.0,0.0,0.0,0.0,0.0,0.0,0.0,0.0,0.0,0.0,0.0,0.0,0.0,0.0,0.0,0.0,0.0,0.0,0.0,0.0,0.0,0.0,0.0,0.0,0.0,0.0,0.0,0.0,0.0,0.0,0.0,0.0,0.0,0.0,0.0,0.0,0.0,0.0,0.0,0.0,0.0,0.0,0.0,0.0,0.0,0.0,0.0,0.0,-2.3078,-2.5084,-2.6533,-2.6533,-2.6533,-2.6533,-2.6533,-2.6163,-2.5159,-2.319,0.0,0.0,0.0,0.0,0.0,0.0,0.0,0.0,0.0,0.0,0.0,0.0,0.0,0.0,0.0,0.0,0.0,0.0,0.0,0.0,0.0,0.0,0.0,0.0,0.0,0.0,0.0,0.0,0.0,0.0,0.0,0.0,0.0,0.0,0.0,0.0,0.0,0.0,0.0,0.0,0.0,0.0,0.0,0.0,0.0,0.0,0.0,0.0,0.0,0.0,0.0,0.0,0.0,0.0,0.0,0.0,0.0,0.0,0.0,0.0,0.0,0.0,0.0,0.0,0.0,0.0,0.0,0.0,0.0,0.0,0.0,0.0,0.0,0.0,0.0,0.0,0.0,0.0,0.0,0.0,0.0,0.0,0.0,0.0,0.0,0.0,0.0,0.0,0.0,0.0,0.0,0.0,0.0,0.0,0.0,0.0,0.0,0.0,0.0,0.0,0.0,0.0,-2.3636,-2.5856,-2.7484,-2.7484,-2.7484,-2.7484,-2.7484,-2.7162,-2.6375,-2.4878,0.0,0.0,0.0,0.0,0.0,0.0,0.0,0.0,0.0,0.0,0.0,0.0,0.0,0.0,0.0,0.0,0.0,0.0,0.0,0.0,0.0,0.0,0.0,0.0,0.0,0.0,0.0,0.0,0.0,0.0,0.0,0.0,0.0,0.0,0.0,0.0,0.0,0.0,0.0,0.0,0.0,0.0,0.0,0.0,0.0,0.0,0.0,0.0,0.0,0.0,0.0,0.0,0.0,0.0,0.0,0.0,0.0,0.0,0.0,0.0,0.0,0.0,0.0,0.0,0.0,0.0,0.0,0.0,0.0,0.0,0.0,0.0,0.0,0.0,0.0,0.0,0.0,0.0,0.0,0.0,0.0,0.0,0.0,0.0,0.0,0.0,0.0,0.0,0.0,0.0,0.0,0.0,0.0,0.0,0.0,0.0,0.0,0.0,0.0,0.0,0.0,0.0,-2.4412,-2.706,-2.9002,-2.9002,-2.9002,-2.9002,-2.9002,-2.8298,-2.7659,-2.7339,0.0,0.0,0.0,0.0,0.0,0.0,0.0,0.0,0.0,0.0,0.0,0.0,0.0,0.0,0.0,0.0,0.0,0.0,0.0,0.0,0.0,0.0,0.0,0.0,0.0,0.0,0.0,0.0,0.0,0.0,0.0,0.0,0.0,0.0,0.0,0.0,0.0,0.0,0.0,0.0,0.0,0.0,0.0,0.0,0.0,0.0,0.0,0.0,0.0,0.0,0.0,0.0,0.0,0.0,0.0,0.0,0.0,0.0,0.0,0.0,-1.892,0.0,0.0,0.0,0.0,0.0,0.0,0.0,0.0,0.0,0.0,0.0,0.0,0.0,0.0,0.0,0.0,0.0,0.0,0.0,0.0,0.0,0.0,0.0,0.0,0.0,0.0,0.0,0.0,0.0,0.0,0.0,0.0,0.0,0.0,0.0,0.0,0.0,0.0,0.0,0.0,0.0,-2.4412,-2.706,-2.9002,-2.9002,-2.9002,-2.9002,-2.9002,-2.8812,-2.8353,-2.7353,-2.674,0.0,0.0,0.0,0.0,0.0,0.0,0.0,0.0,0.0,0.0,0.0,0.0,0.0,0.0,0.0,0.0,0.0,0.0,0.0,0.0,0.0,0.0,0.0,0.0,0.0,0.0,0.0,0.0,0.0,0.0,0.0,0.0,0.0,0.0,0.0,0.0,0.0,0.0,0.0,0.0,0.0,0.0,0.0,0.0,0.0,0.0,0.0,0.0,0.0,0.0,0.0,0.0,0.0,0.0,0.0,0.0,0.0,0.0,0.0,0.0,-1.9744,0.0,0.0,0.0,0.0,0.0,0.0,0.0,0.0,0.0,0.0,0.0,0.0,0.0,0.0,0.0,0.0,0.0,0.0,0.0,0.0,0.0,0.0,0.0,0.0,0.0,0.0,0.0,0.0,0.0,0.0,0.0,0.0,0.0,0.0,0.0,0.0,0.0,0.0,0.0,0.0,-2.6285,-2.8649,-3.0208,-3.0208,-3.0208,-3.0208,-3.0208,-2.9827,-2.9543,-2.9304,-2.8076,0.0,0.0,0.0,0.0,0.0,0.0,0.0,0.0,0.0,0.0,0.0,0.0,0.0,0.0,0.0,0.0,0.0,0.0,0.0,0.0,0.0,0.0,0.0,0.0,0.0,0.0,0.0,0.0,0.0,0.0,0.0,0.0,0.0,0.0,0.0,0.0,0.0,0.0,0.0,0.0,0.0,0.0,0.0,0.0,0.0,0.0,0.0,0.0,0.0,0.0,0.0,0.0,0.0,-2.1788,-2.1853,-2.1853,-2.1853,-2.2197,-2.273,-2.1766,-2.2303,-2.3688,-2.1113,0.0,0.0,0.0,0.0,0.0,0.0,0.0,0.0,0.0,0.0,0.0,0.0,0.0,0.0,0.0,0.0,0.0,0.0,0.0,0.0,0.0,0.0,0.0,0.0,-2.8003,-2.7794,-2.689,0.0,0.0,0.0,0.0,0.0,0.0,0.0,0.0,0.0,0.0,0.0,-2.8595,-3.0556,-3.1884,-3.1884,-3.1721,-3.1646,-3.1646,-3.0969,-3.0777,-3.1467,-2.9319,-2.8382,0.0,0.0,0.0,0.0,0.0,0.0,0.0,0.0,0.0,0.0,0.0,0.0,0.0,0.0,0.0,0.0,0.0,0.0,0.0,0.0,0.0,0.0,0.0,0.0,0.0,0.0,0.0,0.0,0.0,0.0,0.0,0.0,-1.1955,-1.2918,0.0,0.0,0.0,0.0,0.0,0.0,0.0,0.0,0.0,0.0,0.0,0.0,0.0,-2.0873,-2.1958,-2.2838,-2.3668,-2.4448,-2.5362,-2.5797,-2.5797,-2.5797,-2.5797,-2.5815,-2.4735,0.0,-2.4589,-2.353,0.0,0.0,0.0,0.0,0.0,0.0,0.0,0.0,0.0,0.0,0.0,0.0,0.0,0.0,0.0,0.0,0.0,0.0,0.0,0.0,0.0,0.0,-2.9734,-3.0734,-3.0952,-3.0908,0.0,-2.8078,-2.563,-2.5368,-2.534,0.0,0.0,0.0,0.0,0.0,0.0,0.0,-2.9493,-3.1679,-3.3245,-3.3245,-3.2721,-3.2377,-3.2377,-3.1737,-3.1409,-3.1482,-3.1172,-3.1025,-3.1083,-2.9518,0.0,0.0,0.0,0.0,0.0,0.0,0.0,0.0,0.0,0.0,0.0,0.0,0.0,0.0,0.0,0.0,0.0,0.0,0.0,0.0,0.0,0.0,0.0,0.0,0.0,0.0,0.0,0.0,0.0,-1.1368,-1.3038,-1.3445,-1.3735,-1.3987,0.0,0.0,0.0,0.0,0.0,0.0,0.0,0.0,0.0,-2.215,-2.2398,-2.3155,-2.4578,-2.508,-2.5475,-2.5873,-2.6314,-2.6697,-2.6917,-2.6917,-2.7092,-2.7344,-2.6553,-2.6201,-2.6126,-2.4843,-2.4329,-2.4165,0.0,0.0,0.0,0.0,-2.1916,-2.2048,-2.2842,-2.3879,0.0,-2.4243,0.0,0.0,0.0,0.0,0.0,0.0,0.0,0.0,0.0,0.0,-2.9784,-3.1633,-3.2078,-3.2183,-3.2557,-3.1279,-2.9551,0.0,-2.7653,-2.7384,-2.5685,0.0,0.0,0.0,0.0,-3.0864,-3.1693,-3.2764,-3.3499,-3.3499,-3.3245,-3.3066,-3.3066,-3.2796,-3.2482,-3.2108,-3.2078,-3.1913,-3.1497,-3.0671,-2.9906,0.0,0.0,0.0,0.0,0.0,0.0,0.0,0.0,0.0,0.0,0.0,0.0,0.0,0.0,0.0,0.0,0.0,0.0,0.0,0.0,0.0,0.0,0.0,0.0,0.0,0.0,0.0,0.0,-1.2928,-1.447,-1.4607,-1.5172,-1.5811,0.0,0.0,0.0,0.0,0.0,0.0,-2.1539,-2.1649,-2.245,-2.4341,-2.4445,-2.5117,-2.6521,-2.6672,-2.6666,-2.6747,-2.6816,-2.7092,-2.7494,-2.7494,-2.772,-2.8084,-2.767,-2.7494,-2.7381,-2.5862,-2.5247,-2.5209,-2.4933,-2.4305,-2.3503,-2.3503,-2.3674,-2.3895,-2.4175,-2.5102,-2.6117,-2.6117,-2.622,-2.6466,-2.6787,0.0,0.0,0.0,0.0,-2.73,-2.8926,-2.9592,-3.0323,-3.2288,-3.2766,-3.2901,-3.338,-3.3499,-3.278,0.0,-3.0294,-3.0017,-2.8268,0.0,0.0,0.0,0.0,-3.2311,-3.3572,-3.3903,-3.4008,-3.4008,-3.3858,-3.3739,-3.3739,-3.3589,-3.329,-3.2796,-3.2766,-3.2467,-3.175,-3.1779,-3.124,-3.0103,0.0,0.0,0.0,0.0,0.0,0.0,0.0,0.0,0.0,0.0,0.0,0.0,0.0,0.0,0.0,0.0,0.0,0.0,0.0,0.0,0.0,0.0,0.0,0.0,0.0,0.0,0.0,0.0,0.0,-1.7668,-1.8531,0.0,0.0,0.0,0.0,-2.0658,-2.0796,-2.1585,-2.3478,-2.3538,-2.4445,-2.6327,-2.6377,-2.6402,-2.6533,-2.6979,-2.7243,-2.7256,-2.777,-2.8034,-2.8059,-2.8059,-2.8084,-2.8109,-2.8072,-2.8059,-2.7971,-2.6841,-2.6445,-2.6345,-2.5222,-2.4782,-2.4732,-2.4732,-2.5217,-2.6074,-2.7117,-2.8475,-2.9762,-2.9762,-3.0149,-3.0477,-2.9442,-2.9115,0.0,0.0,-2.9392,-3.0528,-3.1174,-3.2303,-3.3259,-3.3425,-3.344,-3.3455,-3.3484,-3.3499,-3.3455,0.0,-3.3259,-3.287,-3.1483,0.0,-3.3543,-3.175,-3.3617,-3.5085,-3.4502,-3.4996,-3.54,-3.54,-3.4816,-3.4427,-3.4427,-3.3858,-3.3484,-3.344,-3.344,-3.3155,-3.2497,-3.2467,-3.2138,-3.1392,-3.0223,0.0,0.0,0.0,0.0,0.0,0.0,0.0,0.0,0.0,0.0,0.0,0.0,0.0,0.0,0.0,0.0,0.0,0.0,0.0,0.0,0.0,0.0,0.0,0.0,0.0,0.0,0.0,0.0,-1.9504,-1.9996,0.0,-2.1402,-2.1448,-2.1778,-2.2657,-2.3203,-2.411,-2.5407,-2.55,-2.5984,-2.6967,-2.6979,-2.7155,-2.7519,-2.7708,-2.7808,-2.7821,-2.8009,-2.8298,-2.8637,-2.8637,-2.8837,-2.9164,-2.88,-2.8994,-2.9489,-2.8768,-2.8049,-2.7482,-2.7092,-2.7322,-2.7845,-2.7845,-2.8425,-2.9323,-2.9681,-3.0168,-3.0613,-3.0613,-3.1162,-3.1718,-3.1276,-3.1541,-3.198,-3.1781,-3.2109,-3.2525,-3.2736,-3.314,-3.3604,-3.4023,-3.4128,-3.4247,-3.4696,-3.4786,-3.4786,-3.4786,-3.4427,-3.3978,-3.3499,-3.4382,-3.4891,-3.4188,-3.4891,-3.5415,-3.5175,-3.5355,-3.5504,-3.5504,-3.5295,-3.513,-3.513,-3.4921,-3.4592,-3.4158,-3.4128,-3.3829,-3.317,-3.314,-3.2841,-3.2183,-3.1704,-3.0417,0.0,0.0,0.0,0.0,0.0,0.0,0.0,0.0,0.0,0.0,0.0,0.0,0.0,0.0,0.0,0.0,0.0,0.0,0.0,0.0,0.0,0.0,0.0,0.0,0.0,0.0,-1.953,-2.095,-2.1501,-2.2067,-2.3052,-2.3121,-2.3536,-2.4579,-2.535,-2.6073,-2.6728,-2.6917,-2.718,-2.7544,-2.7557,-2.7733,-2.8109,-2.8285,-2.8386,-2.8386,-2.8586,-2.8863,-2.9227,-2.977,-3.0203,-3.0637,-3.0786,-3.122,-3.1769,-3.1366,-3.0844,-3.0207,-2.9425,-2.9451,-2.9994,-2.9994,-3.0596,-3.1505,-3.198,-3.2197,-3.2225,-3.2439,-3.2869,-3.3337,-3.3337,-3.3687,-3.4173,-3.4173,-3.4173,-3.4173,-3.4173,-3.4173,-3.4277,-3.4726,-3.4816,-3.4951,-3.54,-3.5504,-3.5504,-3.5504,-3.513,-3.4681,-3.4218,-3.4517,-3.4681,-3.4233,-3.4173,-3.4173,-3.4173,-3.4562,-3.4831,-3.4831,-3.5235,-3.5504,-3.5504,-3.51,-3.4831,-3.4816,-3.4397,-3.4038,-3.3844,-3.3395,-3.2856,-3.2198,-3.1524,-3.0318,-2.8612,0.0,0.0,0.0,0.0,0.0,0.0,0.0,0.0,0.0,0.0,0.0,0.0,0.0,0.0,0.0,0.0,0.0,0.0,0.0,0.0,0.0,0.0,0.0,-2.0848,-2.1708,-2.2207,-2.2298,-2.3097,-2.3986,-2.4957,-2.5123,-2.5489,-2.6515,-2.7005,-2.7306,-2.7306,-2.7821,-2.8109,-2.8134,-2.8134,-2.8134,-2.816,-2.8687,-2.8963,-2.8988,-2.963,-2.9894,-2.9932,-3.1561,-3.2256,-3.2359,-3.3895,-3.4594,-3.4668,-3.4668,-3.4668,-3.4432,-3.2055,-3.1124,-3.1191,-3.1191,-3.1655,-3.255,-3.404,-3.4532,-3.4651,-3.5295,-3.5504,-3.5504,-3.5504,-3.5504,-3.5504,-3.5504,-3.5504,-3.5504,-3.5504,-3.5504,-3.5504,-3.5504,-3.5504,-3.5504,-3.5504,-3.5504,-3.5504,-3.5504,-3.5504,-3.51,-3.3784,-3.3559,-3.3125,-3.1795,-3.1601,0.0,-3.1601,-3.2766,-3.3544,-3.3499,-3.4696,-3.5489,-3.5444,-3.4277,-3.4175,-3.5479,-3.434,-3.389,-3.4535,-3.3336,-3.2347,-3.1687,-2.9738,-2.9407,-3.0643,0.0,0.0,0.0,0.0,0.0,0.0,0.0,0.0,0.0,0.0,0.0,0.0,0.0,0.0,0.0,0.0,0.0,0.0,0.0,0.0,0.0,0.0,-2.2586,-2.287,-2.2488,-2.2949,-2.5046,-2.5207,-2.5539,-2.6606,-2.7048,-2.7344,-2.7657,-2.7795,-2.7883,-2.7883,-2.8021,-2.8285,-2.8687,-2.8699,-2.89,-2.9327,-3.016,-3.0456,-3.0143,-3.1747,-3.2404,-3.2176,-3.3387,-3.3971,-3.3984,-3.4375,-3.4966,-3.5611,-3.5611,-3.6,-3.6453,-3.4439,-3.4014,-3.4652,-3.4652,-3.5238,-3.6,-3.5947,-3.5938,-3.5893,-3.5594,-3.5504,-3.5504,-3.5504,-3.5504,-3.5504,-3.5504,-3.5504,-3.5504,-3.5504,-3.5504,-3.5504,-3.5504,-3.5504,-3.5504,-3.5504,-3.5504,-3.5504,-3.5504,-3.5504,-3.5385,-3.5011,-3.4951,-3.4831,-3.4472,-3.4412,0.0,-3.4412,-3.4726,-3.4577,-3.3604,-3.4696,-3.5115,-3.4128,-3.5079,-3.5938,-3.6244,-3.6516,-3.6451,-3.6045,-3.6219,-3.6038,-3.5386,-3.3409,-3.2292,0.0,0.0,0.0,0.0,0.0,0.0,0.0,0.0,0.0,0.0,0.0,0.0,0.0,0.0,0.0,0.0,0.0,0.0,0.0,0.0,0.0,0.0,-2.3107,-2.4651,-2.5117,-2.4687,-2.4927,-2.6646,-2.6816,-2.7004,-2.7548,-2.7921,-2.8109,-2.8109,-2.8323,-2.8448,-2.8448,-2.8687,-2.9163,-2.9817,-3.0149,-3.0646,-3.1412,-3.2238,-3.2533,-3.2292,-3.3458,-3.3875,-3.3698,-3.5008,-3.5596,-3.567,-3.6325,-3.6881,-3.7403,-3.7403,-3.7718,0.0,0.0,0.0,0.0,0.0,-3.6961,-3.736,-3.7,-3.6881,-3.6806,-3.6432,-3.6312,-3.6312,-3.6312,-3.6312,-3.6312,-3.6312,-3.6312,-3.6312,-3.6312,-3.6312,-3.6312,-3.6312,-3.6312,-3.6237,-3.5968,-3.5923,-3.5833,-3.5549,-3.5504,0.0,-3.5504,-3.504,-3.4472,-3.3933,-3.3844,-3.3844,-3.3844,-3.4322,-3.4478,-3.4046,-3.5216,-3.5812,-3.5351,-3.5861,0.0,0.0,0.0,-3.674,-3.6263,-3.674,0.0,0.0,0.0,-3.3485,-3.3632,-3.2569,0.0,0.0,-3.0904,-3.0036,0.0,0.0,0.0,0.0,0.0,0.0,0.0,0.0,0.0,0.0,0.0,0.0,0.0,0.0,0.0,0.0,-2.4267,-2.6163,-2.7218,-2.7431,-2.7444,-2.7381,-2.7858,-2.8197,-2.8197,-2.826,-2.8298,-2.8298,-2.8812,-2.9189,-2.9252,0.0,0.0,0.0,0.0,-3.2901,-3.3675,-3.439,-3.471,-3.4705,-3.4929,-3.5032,-3.4966,-3.6587,-3.7302,-3.7346,-3.8765,-3.9424,-3.9424,-3.9424,-3.9424,-3.9305,-3.8108,-3.7644,-3.7644,-3.7644,-3.7644,-3.7614,-3.7539,0.0,0.0,-3.7434,-3.7404,-3.7404,-3.7404,-3.7404,-3.7404,-3.7404,-3.7404,-3.7404,-3.7404,-3.7404,-3.7404,-3.7404,-3.7404,-3.7255,-3.6716,-3.6596,-3.6484,-3.5949,-3.5844,-3.5894,-3.6023,-3.4718,-3.332,-3.2153,-3.1915,-3.1973,-3.2075,-3.3096,-3.4106,-3.4763,0.0,0.0,-3.7524,-3.6725,-3.6683,-3.7841,-3.6789,-3.619,-3.6298,-3.619,-3.5356,-3.373,-3.3697,-3.4283,-3.5374,-3.4708,-3.5224,-3.6688,-3.2286,-3.1237,0.0,0.0,0.0,0.0,0.0,0.0,0.0,0.0,0.0,0.0,0.0,0.0,0.0,0.0,0.0,-2.3917,-2.5647,-2.7193,-2.7846,-2.8335,-2.8448,-2.7996,-2.8436,-2.8775,-2.8775,-2.9202,-2.9465,-2.9465,-3.025,-3.1009,-3.1494,-3.2414,-3.3205,-3.3922,-3.4059,-3.4189,-3.4413,-3.5263,-3.5574,-3.5252,0.0,0.0,-3.7243,-3.8385,-3.8926,-3.8926,-3.9277,-3.9424,-3.9424,-3.9424,-3.9424,-3.9394,-3.9125,-3.9035,-3.9035,-3.9035,-3.9035,-3.8945,-3.8392,-3.8197,-3.8108,-3.7584,-3.7404,-3.7404,-3.7404,-3.7404,0.0,-3.7404,-3.7404,-3.7404,-3.7404,-3.7404,-3.7404,-3.7404,-3.7404,-3.7375,-3.7255,-3.724,-3.7383,-3.7996,-3.8095,-3.8321,-3.8981,-3.6923,-3.504,-3.4771,-3.4741,-3.4949,-3.5554,-3.583,-3.5913,-3.5641,-3.6788,-3.717,-3.63,-3.7487,-3.8379,-3.8674,-3.8428,-3.8603,-3.9243,-3.8672,-3.8421,-3.8673,-3.8723,-3.8554,-3.8183,-3.808,-3.7604,-3.6738,-3.5189,-3.4656,0.0,0.0,0.0,0.0,0.0,0.0,0.0,0.0,0.0,0.0,0.0,-2.1537,0.0,0.0,-2.5004,-2.6063,-2.7309,-2.8537,-2.9776,-3.0299,-3.0022,-2.8686,-2.9425,-3.0044,-3.0044,-3.1075,-3.1704,-3.1704,-3.2482,-3.3078,-3.339,-3.3839,-3.4482,-3.5246,-3.5645,-3.6037,-3.6476,-3.7331,-3.758,-3.7442,-3.844,-3.8778,-3.862,-3.9177,-3.9424,-3.9424,-3.9424,-3.9424,-3.9424,-3.9424,-3.9424,-3.9424,-3.9424,-3.9424,-3.9424,-3.9424,-3.9424,-3.9364,-3.902,-3.8901,-3.8856,-3.8527,-3.8407,-3.8407,-3.8407,-3.8407,-3.8407,-3.8407,-3.8407,-3.8407,-3.8407,-3.8726,-3.9025,-3.9025,-3.9349,-3.9575,-3.9299,-3.9222,-3.9243,-3.9314,-3.9376,-3.9501,-3.9914,-3.8746,-3.7779,-3.7779,-3.7779,-3.7888,-3.8273,-3.7973,-3.7796,-3.7958,-3.8202,-3.8248,-3.7956,-3.8899,-3.9489,-3.9489,-3.9489,-3.9662,-4.007,-3.9714,-3.9662,-4.007,-4.007,-3.9901,-3.9529,-3.9174,-3.8616,-3.7872,-3.711,-3.6349,0.0,0.0,0.0,0.0,0.0,0.0,0.0,0.0,-2.1574,-2.2069,-2.2614,-2.3244,-2.4014,-2.5369,-2.6835,-2.8399,-2.9235,-3.0255,-3.1887,-3.244,-3.1968,-3.0237,-3.1097,-3.1883,-3.1883,-3.3042,-3.3758,-3.3758,-3.445,-3.4948,-3.5074,-3.5222,-3.5721,-3.6648,-3.7186,-3.7842,-3.8586,-3.914,-3.9424,-3.9424,-3.9424,-3.9424,-3.9424,-3.9424,-3.9481,-3.9666,-3.9793,-3.9809,-3.9666,-3.9666,-3.9737,-3.9864,-3.9553,-3.961,-3.9864,-3.9538,-3.9481,-3.9666,-3.9666,-3.9737,-3.9935,-3.9935,-3.9935,-3.9935,-3.9935,-3.9935,-3.9935,-3.9935,-3.9935,-3.9935,-3.9935,-4.0447,-4.0946,-4.0946,-4.1478,-4.1837,-4.134,-4.1212,-4.1098,-4.0704,-4.0651,-4.0695,-4.0875,-4.0891,-4.0675,-4.0084,-3.9975,-4.0035,-4.0232,-3.9688,-3.9641,-4.0464,-3.9802,-3.9534,-4.0037,-4.007,-4.007,-4.007,-4.007,-4.007,-4.007,-4.007,-4.007,-4.007,-4.007,-4.007,-4.007,-3.9478,-3.914,-3.8988,-3.8396,-3.7297,-1.8823,-1.9153,0.0,-2.0241,-2.0575,-2.136,0.0,0.0,-2.3972,-2.6144,-2.6664,-2.7107,-2.8512,-2.893,-2.9555,-3.1089,-3.1901,-3.2574,-3.3301,-3.3905,-3.4231,-3.4004,-3.412,-3.425,-3.425,-3.438,-3.4497,-3.4497,-3.535,-3.6086,-3.6675,-3.7533,-3.8329,-3.9011,-3.9116,-3.9145,-3.9305,-3.9379,-3.9424,-3.9424,-3.9424,-3.9424,-3.9424,-3.9424,-3.9793,-4.0622,-4.1346,-4.128,-4.0554,-4.0554,-4.1013,-4.1543,-3.999,-4.0324,-4.1543,-4.0005,-3.9864,-4.0554,-4.0554,-4.108,-4.1739,-4.1739,-4.1739,-4.1739,-4.1739,-4.1739,-4.1739,-4.1739,-4.1739,-4.1739,-4.1739,-4.1804,-4.1869,-4.1869,-4.1933,-4.1965,-4.1885,-4.1885,-4.2108,-4.2818,-4.2922,-4.3178,-4.3944,-4.4074,-4.3172,-4.0409,-3.9975,-4.0232,-4.0984,-4.0992,-4.1243,-4.1991,-4.1403,-4.0695,-4.0138,-4.007,-4.007,-4.007,-4.007,-4.007,-4.007,-4.007,-4.007,-4.007,-4.007,-4.007,-4.007,-4.0003,-3.9631,-3.8988,-3.8903,-3.8075,-2.1069,0.0,0.0,0.0,-2.379,-2.4103,-2.5852,-2.627,-2.6669,-2.8267,-2.8562,-2.907,-3.0537,-3.0841,-3.1309,0.0,-3.2877,-3.3255,-3.5045,-3.5382,-3.5753,-3.6736,-3.7128,-3.691,-3.5536,-3.6259,-3.678,-3.678,-3.7505,-3.8074,-3.8369,-3.8761,-3.9125,-3.9409,-3.9424,-3.9424,-3.9424,-3.9424,-3.9666,-4.0185,-4.0185,-4.0447,-4.0894,-4.0894,-4.1095,-4.1478,-4.1869,-4.2027,-4.2129,-4.2129,-4.2566,-4.3213,-4.2491,-4.2611,-4.3051,-4.0931,-4.069,-4.1478,-4.1478,-4.1674,-4.1997,-4.1997,-4.1997,-4.1997,-4.1997,-4.1997,-4.1997,-4.1997,-4.1997,-4.1997,-4.1997,-4.2395,-4.2785,-4.2785,-4.3152,-4.3545,-4.3545,-4.3545,-4.3604,-4.4006,-4.4064,-4.4196,-4.4514,-4.4587,-4.4164,-4.2891,-4.2676,-4.2808,-4.3143,-4.2758,-4.2416,-4.2337,-4.1644,-4.1085,-4.0764,-4.0341,-4.007,-4.007,-4.007,-4.007,-4.007,-4.007,-4.007,-4.007,-4.007,-4.007,-4.007,-4.007,-3.9918,-3.9631,-3.9631,-3.9073,-2.2545,0.0,0.0,-2.5911,-2.6633,-2.6943,-2.804,-2.8614,-2.9164,-2.9931,-3.0097,-3.062,-3.2124,-3.2442,-3.2871,-3.4187,-3.3965,-3.4378,-3.6424,-3.6689,-3.7166,-3.8516,-3.911,-3.8718,-3.7069,-3.8009,-3.8676,-3.8676,-3.914,-3.9424,-3.9424,-3.9424,-3.9424,-3.9424,-3.9424,-3.9553,-3.9737,-3.9737,-4.0185,-4.108,-4.108,-4.1412,-4.1997,-4.2252,-4.2365,-4.235,-4.2796,-4.3327,-4.3767,-4.3767,-4.4205,-4.4886,-4.4427,-4.4478,-4.4691,-4.2728,-4.2427,-4.296,-4.296,-4.3087,-4.3355,-4.3355,-4.3163,-4.3,-4.3,-4.287,-4.2707,-4.2707,-4.2707,-4.2707,-4.2707,-4.3169,-4.368,-4.368,-4.4138,-4.4587,-4.4587,-4.4587,-4.4587,-4.4587,-4.4587,-4.4587,-4.4587,-4.4587,-4.4587,-4.4587,-4.4587,-4.4587,-4.4587,-4.4079,-4.3436,-4.2675,-4.2134,-4.1644,-4.1238,-4.0696,-4.0307,-4.0087,-4.007,-4.007,-4.007,-4.007,-4.007,-4.007,-4.007,-4.007,-4.007,-4.007,-4.007,-4.007,-4.007,-3.9783,0.0,0.0,-2.4418,-2.6538,-2.8212,-2.9651,-3.0636,-3.0918,-3.1098,-3.1626,-3.1751,-3.2207,-3.3665,-3.3916,-3.4298,-3.5279,-3.5962,-3.6604,-3.73,-3.7943,-3.8616,-3.9305,-3.9409,-3.9394,0.0,-3.9379,-3.9394,-3.9394,-3.9409,-3.9424,-3.9424,-3.9424,-3.9424,-3.9424,-3.9424,-3.9809,-4.0622,-4.069,-4.108,-4.1933,-4.1933,-4.1997,-4.2062,-4.2847,-4.3222,-4.3185,-4.4863,-4.5537,-4.5445,-4.5445,-4.5946,-4.6574,-4.4886,-4.5224,-4.6591,-4.5694,-4.5349,-4.5412,-4.5412,-4.5957,-4.6642,-4.6642,-4.6186,-4.5612,-4.5612,-4.5088,-4.4514,-4.4514,-4.4514,-4.4514,-4.4514,-4.4514,-4.457,-4.457,-4.457,-4.4587,-4.4587,-4.4587,-4.4587,-4.4587,-4.4587,-4.4587,-4.4587,-4.4587,-4.4587,-4.4587,-4.4587,-4.4587,-4.4587,-4.4553,-4.4248,-4.347,-4.3369,-4.276,-4.1322,-4.1187,-4.0849,-4.0121,-4.007,-4.007,-4.007,-4.007,-4.007,-4.007,-4.007,-4.007,-4.007,-4.007,-4.007,-4.007,-4.007,-4.007,-2.5156,0.0,-2.6667,-2.9111,-3.0377,-3.1116,-3.146,-3.1778,-3.2264,-3.3095,-3.2553,-3.2319,-3.3485,-3.2963,-3.2744,-3.3961,-3.4352,-3.519,-3.7135,-3.7599,-3.8153,-3.929,-3.9424,0.0,0.0,0.0,0.0,-3.9424,-3.9935,-4.0239,-4.0239,-4.0826,-4.1095,-4.1095,-4.1095,-4.1295,-4.1543,-4.1543,-4.1997,-4.2847,-4.3426,-4.3988,-4.4471,-4.4741,-4.5126,-4.5596,-4.6161,-4.6701,-4.7116,-4.7116,-4.7541,-4.8196,-4.7617,-4.7759,-4.8196,-4.79,-4.7821,-4.7687,-4.6713,-4.6574,-4.6786,-4.6786,-4.6616,-4.643,-4.643,-4.6244,-4.6041,-4.6041,-4.6041,-4.6041,-4.6041,-4.6041,-4.6041,-4.6041,-4.5686,-4.5331,-4.5331,-4.4942,-4.4587,-4.4587,-4.4587,-4.4587,-4.4587,-4.4587,-4.4587,-4.4587,-4.4587,-4.4587,-4.4587,-4.4587,-4.4485,-4.4215,-4.3724,-4.3014,-4.2016,-4.1474,-4.0882,-4.0121,-4.007,-4.007,-4.007,-4.007,-4.007,-4.007,-4.007,-4.007,-4.007,-4.007,-4.007,-4.007,-4.007,-4.007,-2.6808,-2.7845,-2.8743,-3.1194,-3.2199,-3.265,-3.3018,-3.34,-3.3693,-3.3798,-3.3185,-3.261,-3.275,-3.2093,-3.1958,-3.3275,-3.3499,-3.4448,-3.7086,-3.7698,-3.8394,-3.978,-4.0186,-4.0585,0.0,0.0,0.0,-4.0324,-4.0826,-4.1147,-4.1147,-4.1674,-4.1997,-4.1997,-4.1997,-4.2125,-4.2458,-4.2458,-4.3039,-4.4138,-4.4731,-4.5365,-4.6092,-4.6092,-4.6498,-4.7192,-4.7192,-4.7614,-4.8308,-4.8308,-4.8578,-4.9001,-4.9001,-4.9001,-4.9001,-4.9001,-4.9001,-4.8866,-4.7902,-4.7581,-4.7581,-4.7581,-4.7411,-4.7192,-4.7192,-4.7005,-4.6786,-4.6786,-4.6786,-4.6786,-4.6786,-4.6786,-4.6786,-4.6786,-4.643,-4.6024,-4.5771,-4.5331,-4.4908,-4.4621,-4.4587,-4.4587,-4.4587,-4.4587,-4.4587,-4.4587,-4.4587,-4.4587,-4.4587,-4.4587,-4.4587,-4.4587,-4.413,-4.342,-4.2388,-4.1863,-4.1153,-4.0138,-4.007,-4.007,-4.007,-4.007,-4.007,-4.007,-4.007,-4.007,-4.007,-4.007,-4.007,-4.007,-4.007,-4.007,-2.7879,-2.9415,-3.0732,-3.2832,-3.3729,-3.4327,-3.5279,-3.5444,-3.504,-3.3754,-3.3441,-3.2976,0.0,0.0,-3.1912,-3.3231,-3.3562,-3.4576,-3.7281,-3.8275,-3.9296,0.0,0.0,0.0,0.0,0.0,0.0,-4.2125,0.0,-4.2062,-4.2062,-4.2125,-4.2125,-4.2125,-4.2125,-4.252,-4.3366,-4.3399,-4.4188,-4.5771,-4.5771,-4.6143,-4.6853,-4.6853,-4.7259,-4.797,-4.797,-4.8359,-4.9001,-4.9001,-4.9001,-4.9001,-4.9001,-4.9001,-4.9001,-4.9001,-4.9001,-4.9001,-4.9001,-4.9001,-4.9001,-4.9001,-4.8545,-4.797,-4.797,-4.7479,-4.6904,-4.6904,-4.6904,-4.6904,-4.6904,-4.6904,-4.6904,-4.6904,-4.687,-4.665,-4.5974,-4.5754,-4.55,-4.4773,-4.4604,-4.4587,-4.4587,-4.4587,-4.4587,-4.4587,-4.4587,-4.4587,-4.4587,-4.4587,-4.4587,-4.4587,-4.4587,-4.3961,-4.2422,-4.2286,-4.166,-4.0172,-4.007,-4.007,-4.007,-4.007,-4.007,-4.007,-4.007,-4.007,-4.007,-4.007,-4.007,-4.007,-4.007,-4.007,-3.109,-3.2162,-3.2803,-3.4463,-3.5014,-3.5198,-3.5424,-3.4726,-3.3903,-3.3559,-3.2304,-3.1021,0.0,0.0,0.0,-3.2755,-3.4185,0.0,-3.8185,-3.915,0.0,-4.0831,0.0,-4.2269,-4.2925,-4.2986,0.0,0.0,-4.3366,-4.2986,-4.2986,-4.3604,-4.3931,-4.3931,-4.3931,-4.4064,-4.427,-4.4807,-4.558,-4.6515,-4.6515,-4.6904,-4.7631,-4.7631,-4.8037,-4.8731,-4.8731,-4.8832,-4.9001,-4.9001,-4.9001,-4.9001,-4.9001,-4.9001,-4.9001,-4.9001,-4.9001,-4.9001,-4.9001,-4.9001,-4.9001,-4.9001,-4.8883,-4.8731,-4.8731,-4.8595,-4.8443,-4.8443,-4.8443,-4.8443,-4.8443,-4.8443,-4.8443,-4.8443,-4.802,-4.7581,-4.7394,-4.6498,-4.5652,-4.5449,-4.4976,-4.4587,-4.4587,-4.4587,-4.4587,-4.4587,-4.4587,-4.4587,-4.4587,-4.4587,-4.4587,-4.4587,-4.4587,-4.3961,-4.2422,-4.2286,-4.166,-4.0172,-4.007,-4.007,-4.007,-4.007,-4.007,-4.007,-4.007,-4.007,-4.007,-4.007,-4.007,-4.007,-4.007,-4.007,-3.3015,-3.3994,-3.4383,-3.527,-3.5504,-3.5404,-3.509,-3.4425,-3.3649,-3.2747,-3.17,0.0,0.0,0.0,0.0,0.0,0.0,0.0,-3.8586,-3.9794,-4.0707,0.0,-4.2452,0.0,-4.3814,-4.3873,-4.4064,0.0,-4.4138,-4.3873,-4.3873,-4.4327,-4.4587,-4.4587,-4.4891,-4.5229,-4.5551,-4.5974,-4.6549,-4.7293,-4.7293,-4.7682,-4.8392,-4.8392,-4.8612,-4.9001,0.0,-4.9001,-4.9001,-4.9001,-4.9001,-4.9001,-4.9001,-4.9001,-4.9001,-4.9001,-4.9001,-4.9001,-4.9001,-4.9001,-4.9001,-4.9001,-4.9001,-4.9001,-4.9001,-4.9001,-4.9001,-4.9001,-4.9001,-4.9001,-4.9001,-4.9001,-4.9001,-4.9001,-4.8697,-4.8308,-4.7986,-4.7005,-4.5991,-4.5331,-4.4874,-4.4587,-4.4587,-4.4587,-4.4587,-4.4587,-4.4587,-4.4587,-4.4587,-4.4587,-4.4587,-4.4587,-4.4587,-4.4096,-4.2895,-4.2777,-4.2151,-4.0663,-4.0578,-4.0426,-4.0087,-4.007,-4.007,-4.007,-4.007,-4.007,-4.007,-4.007,-4.007,-4.007,-4.007,-4.007,-3.4098,-3.5055,-3.5504,-3.5504,-3.5504,-3.5322,-3.4572,-3.4287,-3.3593,-3.1799,0.0,-3.1326,-3.1566,-3.1805,-3.287,-3.5497,0.0,-3.6918,-3.8912,-4.0426,-4.1633,-4.2368,-4.3707,-4.4587,-4.4587,-4.4587,-4.4587,-4.4587,-4.4671,-4.4688,-4.4587,-4.4671,-4.4773,-4.4874,-4.55,-4.621,-4.6938,-4.6938,-4.7327,-4.8071,-4.8071,-4.8392,-4.9001,-4.9001,-4.9001,-4.9001,-4.9001,-4.9001,-4.9001,-4.9001,-4.9001,-4.9001,-4.9001,-4.9001,-4.9001,-4.9001,-4.9001,-4.9001,-4.9001,-4.9001,-4.9001,-4.9001,-4.9001,-4.9001,-4.9001,-4.9001,-4.9001,-4.9001,-4.9001,-4.9001,-4.9001,-4.9001,-4.9001,-4.9001,-4.9001,-4.8832,-4.8189,-4.7394,-4.6346,-4.4874,-4.4587,-4.4587,-4.4587,-4.4587,-4.4587,-4.4587,-4.4587,-4.4587,-4.4587,-4.4587,-4.4587,-4.4587,-4.4587,-4.4265,-4.3487,-4.342,-4.2828,-4.1441,-4.1356,-4.1052,-4.0392,-4.0273,-4.0223,-4.0223,-4.0121,-4.007,-4.007,-4.007,-4.0121,-4.0204,-4.0204,-4.0254,-3.4936,-3.5415,-3.5504,-3.5504,-3.5504,-3.5322,-3.4572,-3.3547,0.0,0.0,-3.0898,-3.0712,-3.1468,-3.2928,-3.4626,-3.6505,0.0,0.0,0.0,0.0,-4.2399,0.0,0.0,0.0,0.0,0.0,0.0,0.0,0.0,-4.5229,-4.4604,-4.5179,-4.5788,-4.638,-4.6532,-4.6972,-4.7716,-4.7733,-4.8088,-4.8815,-4.8815,-4.8883,-4.9001,-4.9001,-4.9001,-4.9001,-4.9001,0.0,-4.9001,-4.9001,-4.9001,-4.9001,-4.9001,-4.9001,-4.9001,-4.9001,-4.9001,-4.9001,-4.9001,-4.9001,-4.9001,-4.9001,-4.9001,-4.9001,-4.9001,-4.9001,-4.9001,-4.9001,-4.9001,-4.9001,-4.9001,-4.9001,-4.9001,-4.9001,-4.9001,-4.8968,-4.8849,-4.775,-4.6346,-4.4874,-4.4587,-4.4587,-4.4587,-4.4587,-4.4587,-4.4587,-4.4587,-4.4587,-4.4587,-4.4587,-4.4587,-4.4587,-4.4587,-4.4265,-4.3487,-4.342,-4.3047,-4.2151,-4.21,-4.2049,-4.1914,-4.1322,-4.1018,-4.1018,-4.0392,-4.007,-4.007,-4.007,-4.0336,-4.078,-4.078,-4.1013,-3.3873,-3.4711,-3.5504,-3.5504,-3.5504,-3.5205,-3.4053,0.0,0.0,0.0,-3.0999,-3.1266,-3.28,0.0,0.0,0.0,0.0,0.0,0.0,0.0,0.0,0.0,0.0,0.0,0.0,0.0,0.0,0.0,0.0,-4.5551,-4.5179,-4.5872,-4.6616,-4.7361,-4.7378,-4.7733,-4.8477,-4.8477,-4.8663,-4.9001,-4.9001,-4.9001,-4.9001,-4.9001,-4.9001,-4.9001,-4.9001,-4.9001,-4.9001,-4.9001,-4.9001,-4.9001,-4.9001,-4.9001,-4.9001,-4.9001,-4.9001,-4.9001,-4.9001,-4.9001,-4.9001,-4.9001,-4.9001,-4.9001,-4.9001,-4.9001,-4.9001,-4.9001,-4.9001,-4.9001,-4.9001,-4.9001,-4.9001,-4.9001,-4.9001,-4.8798,-4.802,-4.7293,-4.6346,-4.4874,-4.4587,-4.4587,-4.4587,-4.4587,-4.4587,-4.4587,-4.4587,-4.4587,-4.4587,-4.4587,-4.4587,-4.4587,-4.4587,-4.4418,-4.4062,-4.4012,-4.369,-4.2929,-4.2878,-4.2692,-4.2303,-4.1948,-4.1762,-4.1762,-4.1052,-4.0663,-4.0663,-4.0556,-4.0655,-4.0903,-4.1223,-4.1534,-3.2961,-3.4203,-3.5504,-3.5504,-3.5504,-3.5087,-3.3653,-3.3323,0.0,0.0,-3.119,-3.1867,-3.4083,0.0,0.0,0.0,0.0,0.0,0.0,0.0,0.0,0.0,0.0,0.0,0.0,0.0,0.0,0.0,0.0,0.0,-4.6177,-4.6718,-4.7378,-4.8122,-4.8156,-4.8426,-4.9001,-4.9001,-4.9001,-4.9001,-4.9001,-4.9001,-4.9001,-4.9001,-4.9001,-4.9001,-4.9001,-4.9001,-4.9001,-4.9001,-4.9001,-4.9001,-4.9001,-4.9001,-4.9001,-4.9001,-4.9001,-4.9001,-4.9001,-4.9001,-4.9001,-4.9001,-4.9001,-4.9001,-4.9001,-4.9001,-4.9001,-4.9001,-4.9001,-4.9001,-4.9001,-4.9001,-4.9001,-4.9001,-4.9001,-4.8595,-4.7107,-4.6786,-4.6346,-4.4874,-4.4587,-4.4587,-4.4587,-4.4587,-4.4587,-4.4587,-4.4587,-4.4587,-4.4587,-4.4587,-4.4587,-4.4587,-4.4587,-4.4587,-4.4587,-4.4587,-4.4316,-4.3707,-4.3673,-4.3403,-4.2811,-4.2625,-4.2577,-4.2771,-4.2057,-4.1716,-4.1834,-4.17,-4.1579,-4.1541,-4.2041,-4.2222,-3.3829,-3.4891,-3.5504,-3.5504,-3.5504,-3.5087,-3.3653,0.0,0.0,-3.1482,-3.119,-3.1867,-3.4083,-3.3947,-3.4472,0.0,0.0,-3.8024,0.0,0.0,0.0,0.0,0.0,0.0,0.0,0.0,0.0,0.0,0.0,0.0,-4.7716,-4.7784,-4.8156,-4.8883,-4.89,-4.8934,-4.9001,-4.9001,-4.9001,-4.9001,-4.9001,-4.9001,-4.9001,-4.9001,-4.9001,-4.9001,-4.9001,-4.9001,0.0,-4.9001,-4.9001,-4.9001,-4.9001,-4.9001,-4.9001,-4.9001,-4.9001,-4.9001,-4.9001,-4.9001,-4.9001,-4.9001,-4.9001,-4.9001,-4.9001,-4.9001,-4.9001,-4.9001,-4.9001,-4.9001,-4.9001,-4.9001,-4.9001,-4.9001,-4.9001,-4.8595,-4.7107,-4.6786,-4.6346,-4.4874,-4.4587,-4.4587,-4.4587,-4.4587,-4.4587,-4.4587,-4.4587,-4.4587,-4.4587,-4.4587,-4.4587,-4.4587,-4.4587,-4.4587,-4.4587,-4.4587,-4.4553,-4.4468,-4.4468,-4.4451,-4.4367,-4.369,-4.3591,-4.4213,-4.3469,-4.3363,-4.3915,-4.389,-4.3807,-4.362,-4.366,-4.3572,-3.2158,-3.4202,-3.6315,-3.6781,-3.689,-3.6393,-3.443,0.0,0.0,-3.158,-3.119,-3.1732,-3.3508,-3.3609,-3.4083,0.0,0.0,0.0,0.0,0.0,0.0,0.0,0.0,0.0,0.0,0.0,0.0,0.0,0.0,0.0,-4.8578,-4.8578,-4.8714,-4.8984,-4.9001,-4.9001,-4.9001,-4.9001,-4.9001,-4.9001,-4.9001,-4.9001,-4.9001,-4.9001,-4.9001,-4.9001,-4.9001,-4.9001,0.0,-4.9001,-4.9001,-4.9001,-4.9001,-4.9001,-4.9001,-4.9001,-4.9001,-4.9001,-4.9001,-4.9001,-4.9001,-4.9001,-4.9001,-4.9001,-4.9001,-4.9001,-4.9001,-4.9001,-4.9001,-4.9001,-4.9001,-4.9001,-4.9001,-4.9001,-4.9001,-4.8595,-4.7107,-4.6786,-4.6346,-4.4874,-4.4587,-4.4587,-4.4587,-4.4587,-4.4587,-4.4587,-4.4587,-4.4587,-4.4587,-4.4906,-4.5142,-4.5142,-4.4814,-4.4587,-4.4587,-4.4587,-4.4587,-4.4587,-4.4587,-4.4587,-4.4587,-4.4653,-4.4802,-4.5043,-4.4708,-4.4618,-4.4847,-4.48,-4.4695,-4.461,-4.496,-4.504,-3.1454,-3.3747,-3.6326,-3.7476,-3.7444,-3.6669,0.0,0.0,0.0,-3.1577,-3.119,-3.1579,-3.2848,-3.3254,-3.3812,-3.5081,0.0,-3.7753,0.0,0.0,0.0,0.0,0.0,0.0,0.0,0.0,0.0,0.0,0.0,0.0,-4.9001,-4.9001,-4.9001,-4.9001,-4.9001,-4.9001,-4.9001,-4.9001,-4.9001,-4.9001,-4.9001,-4.9001,-4.9001,-4.9001,-4.9001,-4.9001,-4.9001,-4.9001,0.0,-4.9001,-4.9001,-4.9001,-4.9001,-4.9001,-4.9001,-4.9001,-4.9001,-4.9001,-4.9001,-4.9001,-4.9001,-4.9001,-4.9001,-4.9001,-4.9001,-4.9001,-4.9001,-4.9001,-4.9001,-4.9001,-4.9001,-4.9001,-4.9001,-4.9001,-4.9001,-4.8663,-4.7394,-4.6955,-4.6413,-4.5162,-4.4722,-4.4587,-4.4587,-4.4587,-4.4682,-4.4869,-4.4869,-4.4906,-4.5089,-4.5494,-4.5783,-4.5783,-4.5372,-4.5142,-4.5142,-4.4944,-4.4961,-4.5142,-4.5142,-4.5142,-4.5142,-4.5545,-4.5883,-4.6081,-4.5992,-4.6025,-4.6201,-4.6078,-4.5918,-4.57,-4.6083,-4.6122,-3.2488,-3.3937,-3.4972,-3.7221,-3.671,-3.5428,0.0,0.0,0.0,-3.1375,-3.119,-3.141,-3.2154,-3.2899,-3.3643,-3.4387,-3.5148,0.0,0.0,0.0,0.0,0.0,0.0,0.0,0.0,0.0,0.0,0.0,0.0,0.0,-4.9001,-4.9001,-4.9001,-4.9001,-4.9001,-4.9001,-4.9001,-4.9001,-4.9001,-4.9001,-4.9001,-4.9001,-4.9001,-4.9001,-4.9001,-4.9001,-4.9001,-4.9001,0.0,-4.9001,-4.9001,-4.9001,-4.9001,-4.9001,-4.9001,-4.9001,-4.9001,-4.9001,-4.9001,-4.9001,-4.9001,-4.9001,-4.9001,-4.9001,-4.9001,-4.9001,-4.9001,-4.9001,-4.9001,-4.9001,-4.9001,-4.9001,-4.9001,-4.9001,-4.9001,-4.8798,-4.8071,-4.7327,-4.6583,-4.5838,-4.5094,-4.4587,-4.4587,-4.4587,-4.4814,-4.5407,-4.5511,-4.5681,-4.6288,-4.6383,-4.6383,-4.6383,-4.6383,-4.6383,-4.6383,-4.5815,-4.5732,-4.6336,-4.6383,-4.6383,-4.6383,-4.6383,-4.671,-4.7385,-4.7385,-4.7656,-4.8249,-4.8288,-4.7884,-4.7057,-4.7057,-4.6673,-3.0893,-3.2533,-3.4117,-3.5874,-3.5957,-3.5274,-3.4008,0.0,0.0,-3.1455,-3.119,-3.141,-3.2138,-3.2899,-3.3643,-3.437,-3.5131,0.0,0.0,0.0,0.0,0.0,0.0,0.0,0.0,0.0,0.0,0.0,0.0,0.0,-4.9001,-4.9001,-4.9001,-4.9001,-4.9001,-4.9001,-4.9001,-4.9001,-4.9001,-4.9001,-4.9001,-4.9001,-4.9001,-4.9001,-4.9001,-4.9001,-4.9001,-4.9001,-4.9001,-4.9001,-4.9001,-4.9001,-4.9001,-4.9001,-4.9001,-4.9001,-4.9001,-4.9001,-4.9001,-4.9001,-4.9001,-4.9001,-4.9001,-4.9001,-4.9001,-4.9001,-4.9001,-4.9001,-4.9001,-4.9001,-4.9001,-4.9001,-4.9107,-4.9563,-4.9299,-4.8887,-4.8661,-4.7653,-4.6724,-4.6395,-4.5363,-4.472,-4.5125,-4.5232,-4.5267,-4.5459,-4.5865,-4.6192,-4.6383,-4.6801,-4.7088,-4.7088,-4.7088,-4.691,-4.643,-4.624,-4.6192,-4.6383,-4.6383,-4.6383,-4.6383,-4.6864,-4.7194,-4.7385,-4.7797,-4.8114,-4.8306,-4.8306,-4.8177,-4.7921,-4.7921,-4.7498,0.0,-3.1631,-3.3068,-3.5115,-3.5199,0.0,0.0,0.0,0.0,0.0,-3.119,-3.1326,-3.1782,-3.2476,-3.322,-3.3964,-3.4709,0.0,0.0,0.0,0.0,0.0,0.0,0.0,0.0,0.0,0.0,0.0,0.0,0.0,-4.9001,-4.9001,-4.9001,-4.9001,-4.9001,-4.9001,-4.9001,-4.9001,-4.9001,-4.9001,-4.9001,-4.9001,-4.9001,-4.9001,-4.9001,-4.9001,-4.9001,-4.9001,0.0,-4.9001,-4.9001,-4.9001,-4.9001,-4.9001,-4.9001,-4.9001,-4.9001,-4.9001,-4.9001,-4.9001,-4.9001,-4.9001,-4.9001,-4.9001,-4.9001,-4.9001,-4.9001,-4.9001,-4.9001,-4.9001,-4.9001,-4.9212,-4.9462,-4.9919,-4.9879,-4.9689,-4.9375,-4.8355,-4.7464,-4.7021,-4.6083,-4.5425,-4.5783,-4.5833,-4.5933,-4.6161,-4.6542,-4.6847,-4.7088,-4.747,-4.7756,-4.7756,-4.7756,-4.7554,-4.7132,-4.691,-4.6847,-4.7088,-4.7132,-4.7132,-4.7132,-4.7512,-4.7756,-4.7756,-4.8132,-4.8306,-4.8306,-4.8306,-4.8306,-4.8306,-4.8306,-4.8031,0.0,0.0,0.0,0.0,0.0,0.0,0.0,0.0,0.0,0.0,0.0,0.0,0.0,-3.1782,-3.251,-3.322,-3.3981,0.0,0.0,0.0,0.0,0.0,0.0,0.0,0.0,0.0,0.0,0.0,0.0,0.0,-4.9001,-4.9001,-4.9001,-4.9001,-4.9001,-4.9001,-4.9001,-4.9001,-4.9001,-4.9001,-4.9001,-4.9001,-4.9001,-4.9001,-4.9001,0.0,-4.9001,-4.9001,-4.9001,-4.9001,-4.9001,-4.9001,-4.9001,-4.9001,-4.9001,-4.9001,-4.9001,-4.9001,-4.9001,-4.9001,-4.9001,-4.9001,-4.9001,-4.9001,-4.9001,-4.9001,-4.9001,-4.9001,-4.9046,-4.9046,-4.9046,-4.9563,-5.0072,-5.0129,-5.0573,-5.0803,-5.0095,-4.9298,-4.8484,-4.7824,-4.6979,-4.643,-4.6478,-4.6478,-4.6664,-4.7299,-4.7446,-4.7674,-4.821,-4.8306,-4.8306,-4.8306,-4.8306,-4.8306,-4.8306,-4.7797,-4.7715,-4.8267,-4.8306,-4.8306,-4.8306,-4.8306,-4.8306,-4.8306,-4.8306,-4.8306,-4.8306,-4.8306,-4.8306,-4.8306,-4.8306,-4.8306,-2.8264,0.0,-2.9803,-3.1089,-3.1562,0.0,0.0,0.0,0.0,0.0,0.0,0.0,0.0,0.0,0.0,-3.251,0.0,-3.4353,0.0,0.0,0.0,0.0,0.0,0.0,0.0,0.0,0.0,0.0,0.0,-4.9001,-4.9001,-4.9001,-4.9001,-4.9001,-4.9001,-4.9001,-4.9001,-4.9001,-4.9001,-4.9001,-4.9001,-4.9001,-4.9001,-4.9001,-4.9001,-4.9001,-4.9001,-4.9001,-4.9001,-4.9001,-4.9001,-4.9001,-4.9001,-4.9001,-4.9001,-4.9001,-4.9001,-4.9001,-4.9001,-4.9001,-4.9001,-4.9001,-4.9001,-4.9001,-4.9001,-4.9001,-4.9001,-4.9001,-4.9359,-4.9763,-4.9763,-5.0297,-5.0981,-5.1476,-5.0898,-5.0267,-5.0581,-4.9216,-4.7943,-4.8235,-4.7262,-4.6571,-4.7106,-4.715,-4.7237,-4.7385,-4.7797,-4.8132,-4.8267,-4.8306,-4.8306,-4.8306,-4.8306,-4.8306,-4.8306,-4.8172,-4.8172,-4.8306,-4.8306,-4.8306,-4.8306,-4.8306,-4.8306,-4.8306,-4.8306,-4.8306,-4.8306,-4.8306,-4.8306,-4.8306,-4.8306,-4.8306,-2.7199,-2.8129,-2.9161,-2.9922,-3.0649,-3.119,0.0,0.0,0.0,0.0,0.0,0.0,0.0,0.0,0.0,0.0,-3.3525,0.0,0.0,0.0,0.0,0.0,0.0,0.0,0.0,0.0,0.0,0.0,0.0,-4.8511,-4.8511,-4.8511,-4.8511,-4.8511,-4.8173,-4.8325,-4.9001,-4.9001,-4.9001,-4.9001,-4.9001,-4.9001,-4.9001,-4.9001,-4.9001,-4.9001,-4.9001,-4.9001,-4.9001,-4.9001,-4.9001,-4.9001,-4.9001,-4.9001,-4.9001,-4.9001,-4.9001,-4.9001,-4.9001,-4.9001,-4.9063,-4.9359,-4.9462,-4.9521,-4.9838,-4.9936,-4.9879,-4.9563,-4.9993,-5.05,-5.05,-5.1034,-5.1571,-5.1549,-5.1218,-5.0759,-5.0384,-4.9358,-4.8504,-4.8423,-4.7802,-4.7367,-4.7756,-4.7797,-4.7797,-4.7797,-4.8075,-4.8306,-4.8306,-4.8306,-4.8306,-4.8306,-4.8306,-4.8306,-4.8306,-4.8306,-4.8306,-4.8306,-4.8306,-4.8306,-4.8306,-4.8306,-4.8306,-4.8306,-4.8306,-4.8306,-4.8306,-4.8306,-4.8306,-4.8306,-4.8306,-4.8306,-2.6691,-2.7723,-2.8991,-2.9753,-3.0497,-3.1055,0.0,0.0,0.0,0.0,0.0,0.0,0.0,0.0,0.0,0.0,0.0,0.0,0.0,0.0,0.0,0.0,0.0,0.0,0.0,0.0,0.0,0.0,0.0,-4.775,-4.775,-4.775,-4.775,-4.775,-4.7124,-4.7394,-4.8646,-4.8663,-4.8663,-4.8663,-4.8663,-4.8663,-4.8663,-4.8663,-4.8663,-4.8663,0.0,0.0,-4.8999,-4.8894,-4.8961,-4.9152,-4.9063,-4.9001,-4.9001,-4.9001,-4.9001,-4.9001,-4.9001,-4.9046,-4.9273,-4.9821,-5.009,-5.0297,-5.0929,-5.1189,-5.1138,-5.05,-5.077,-5.1241,-5.1241,-5.1669,-5.1927,-5.1212,-5.134,-5.1242,-4.9866,-4.9481,-4.9169,-4.8434,-4.8306,-4.8306,-4.8306,-4.8306,-4.8306,-4.8306,-4.8306,-4.8306,-4.8306,-4.8306,-4.8306,-4.8306,-4.8306,-4.8306,-4.8306,-4.8306,-4.8306,-4.8306,-4.8306,-4.8306,-4.8306,-4.8306,-4.8306,-4.8306,-4.8306,-4.8306,-4.8306,-4.8306,-4.8306,-4.8306,-4.8306,-4.8306,-2.6691,-2.7334,-2.818,-2.8958,-2.9719,-3.0429,0.0,0.0,0.0,0.0,0.0,0.0,0.0,0.0,0.0,0.0,0.0,0.0,0.0,0.0,0.0,0.0,0.0,0.0,0.0,0.0,0.0,0.0,0.0,-4.6972,-4.6972,-4.6972,-4.6972,-4.6972,-4.6853,-4.6904,-4.7141,-4.7141,-4.7141,-4.7141,-4.7141,-4.7141,-4.7141,-4.7141,-4.7141,-4.7141,0.0,-4.7824,-4.8855,-4.832,-4.8754,-4.9763,-4.9212,-4.9001,-4.9001,-4.9001,-4.9001,-4.9001,-4.9001,-4.9359,-4.9879,-4.9976,-5.039,-5.0929,-5.1086,-5.1494,-5.1904,-5.179,-5.1856,-5.1952,-5.1952,-5.1982,-5.198,-5.1852,-5.089,-4.9884,-4.9627,-4.9022,-4.8471,-4.8343,-4.8306,-4.8306,-4.8306,-4.8306,-4.8306,-4.8306,-4.8306,-4.8306,-4.8306,-4.8306,-4.8306,-4.8306,-4.8306,-4.8306,-4.8306,-4.8306,-4.8306,-4.8306,-4.8306,-4.8306,-4.8306,-4.8306,-4.8306,-4.8306,-4.8306,-4.8306,-4.8306,-4.8306,-4.8306,-4.8306,-4.8306,-4.8306,-2.6691,-2.6945,-2.7588,-2.9194,-2.9854,-3.0294,0.0,0.0,0.0,0.0,0.0,0.0,0.0,0.0,0.0,0.0,0.0,0.0,0.0,0.0,0.0,0.0,0.0,0.0,0.0,0.0,0.0,0.0,0.0,0.0,-4.621,-4.621,-4.621,-4.621,-4.5805,-4.5602,-4.5602,-4.5602,-4.5991,-4.6786,-4.6786,-4.6786,-4.6786,-4.6786,-4.6786,-4.6844,0.0,-4.7466,-4.7792,-4.7792,-4.8196,-4.8821,-4.8514,-4.8663,-4.9001,-4.9001,-4.9001,-4.9001,-4.9001,-4.9462,-5.009,-5.0445,-5.1086,-5.171,-5.2083,-5.2463,-5.2615,-5.2178,-5.2069,-5.2069,-5.2069,-5.1694,-5.1242,-5.0802,-5.0123,-4.9462,-4.9003,-4.8581,-4.8306,-4.8306,-4.8306,-4.8306,-4.8306,-4.8306,-4.8306,-4.8306,-4.8306,-4.8306,-4.8306,-4.8306,-4.8306,-4.8306,-4.8306,-4.8306,-4.8306,-4.8306,-4.8306,-4.8306,-4.8306,-4.8306,-4.8306,-4.8306,-4.8306,-4.8306,-4.8306,-4.8306,-4.8306,-4.8306,-4.8306,-4.8306,-4.8306,-4.8306,-2.6691,-2.6691,-2.7148,-2.9093,0.0,0.0,-3.1732,0.0,0.0,0.0,0.0,0.0,0.0,0.0,0.0,0.0,0.0,0.0,0.0,0.0,0.0,0.0,0.0,0.0,0.0,0.0,0.0,0.0,0.0,0.0,-4.5449,-4.5449,-4.5449,-4.5449,-4.4874,-4.4587,-4.4587,-4.4587,-4.5145,-4.6278,-4.6278,-4.6278,-4.6278,-4.6278,-4.6278,-4.6319,-4.6897,-4.7093,-4.7038,-4.7521,-4.7862,-4.8111,-4.8111,-4.8353,-4.8685,-4.8538,-4.8582,-4.8685,-4.8685,-4.9246,-5.0011,-5.0588,-5.1269,-5.1883,-5.2493,-5.2656,-5.2527,-5.1885,-5.1573,-5.1463,-5.1665,-5.1114,-5.0362,-4.9738,-4.9426,-4.9095,-4.8434,-4.8306,-4.8306,-4.8306,-4.8306,-4.8306,-4.8306,-4.8306,-4.8306,-4.8306,-4.8306,-4.8306,-4.8306,-4.8306,-4.8306,-4.8306,-4.8306,-4.8306,-4.8306,-4.8306,-4.8306,-4.8306,-4.8306,-4.8306,-4.8306,-4.8306,-4.8306,-4.8306,-4.8306,-4.8306,-4.8306,-4.8306,-4.8306,-4.8306,-4.8306,-4.8306,-2.6691,-2.6691,-2.6894,-2.7774,0.0,0.0,-3.3778,0.0,0.0,0.0,0.0,0.0,0.0,0.0,0.0,0.0,0.0,0.0,0.0,0.0,0.0,0.0,0.0,0.0,0.0,0.0,0.0,0.0,0.0,-4.4654,-4.4654,-4.4654,-4.4654,-4.4654,-4.4604,-4.4587,-4.4587,-4.4587,-4.4621,-4.4739,-4.4739,-4.4739,-4.4739,-4.4739,-4.4739,-4.4778,-4.5386,-4.6409,-4.7625,-4.7625,-4.8067,-4.8705,-4.8673,-4.8277,-4.7734,-4.7138,-4.7295,-4.7772,-4.7772,-4.8624,-4.9711,-4.9757,-5.0294,-5.0908,-5.0986,-5.0967,-5.0967,-5.0912,-5.0343,-4.9921,-5.0692,-5.0288,-4.9646,-4.9591,-4.8967,-4.8379,-4.8324,-4.8306,-4.8306,-4.8306,-4.8306,-4.8306,-4.8306,-4.8306,-4.8306,-4.8306,-4.8306,-4.8306,-4.8306,-4.8306,-4.8306,-4.8306,-4.8306,-4.8306,-4.8306,-4.8306,-4.8306,-4.8306,-4.8306,-4.8306,-4.8306,-4.8306,-4.8306,-4.8306,-4.8306,-4.8306,-4.8306,-4.8306,-4.8306,-4.8306,-4.8306,-4.8306,-2.6691,-2.7385,-2.8399,-2.9617,0.0,0.0,0.0,0.0,0.0,0.0,0.0,0.0,0.0,0.0,0.0,0.0,0.0,0.0,0.0,0.0,0.0,0.0,0.0,0.0,0.0,0.0,0.0,0.0,-4.4587,-4.4587,-4.4587,-4.4961,-4.4998,-4.4626,-4.4944,-4.4998,-4.457,-4.4587,-4.4587,-4.4587,-4.4587,-4.4587,-4.4587,-4.4587,-4.4814,-4.5178,-4.5783,-4.6368,-4.6938,-4.7311,-4.77,-4.8112,-4.854,-4.8534,-4.8277,-4.8085,-4.8137,-4.8311,-4.8311,-4.8915,-4.9704,-4.9704,-5.0216,-5.0802,-5.0802,-5.0802,-5.071,-5.0178,-4.9811,-4.9646,-4.9958,-4.9426,-4.8783,-4.8783,-4.8545,-4.8306,-4.8306,-4.8306,-4.8306,-4.8306,-4.8306,-4.8306,-4.8306,-4.8306,-4.8306,-4.8306,-4.8306,-4.8306,-4.8306,-4.8306,-4.8306,-4.8306,-4.8306,-4.8306,-4.8306,-4.8306,-4.8306,-4.8306,-4.8306,-4.8306,-4.8306,-4.8306,-4.8306,-4.8306,-4.8306,-4.8306,-4.8306,-4.8306,-4.8306,-4.8306,-4.8306,-4.8306,-2.6691,-2.7824,0.0,0.0,0.0,0.0,0.0,0.0,0.0,0.0,0.0,0.0,0.0,0.0,0.0,0.0,0.0,0.0,0.0,0.0,0.0,0.0,0.0,0.0,0.0,0.0,-4.4587,-4.4587,-4.4587,-4.4665,-4.4852,-4.5284,-4.5425,-4.5178,-4.5545,-4.5597,-4.5178,-4.5196,-4.5089,-4.4852,-4.4852,-4.4759,-4.4587,-4.4587,-4.4906,-4.5545,-4.6143,-4.6524,-4.6756,-4.7428,-4.7753,-4.7831,-4.7926,-4.8072,-4.8283,-4.8024,-4.8139,-4.8283,-4.8283,-4.8703,-4.9245,-4.9245,-4.9596,-5.0013,-5.0013,-5.0013,-4.9903,-4.9334,-4.9187,-4.9187,-4.9187,-4.8746,-4.8306,-4.8306,-4.8306,-4.8306,-4.8306,-4.8306,-4.8306,-4.8306,-4.8306,-4.8306,-4.8306,-4.8306,-4.8306,-4.8306,-4.8306,-4.8306,-4.8306,-4.8306,-4.8306,-4.8306,-4.8306,-4.8306,-4.8306,-4.8306,-4.8306,-4.8306,-4.8306,-4.8306,-4.8306,-4.8306,-4.8306,-4.8306,-4.8306,-4.8306,-4.8306,-4.8306,-4.8306,-4.8306,-4.8306,-4.8306,-2.6708,-2.7841,0.0,0.0,0.0,0.0,0.0,0.0,0.0,0.0,0.0,0.0,0.0,0.0,0.0,0.0,0.0,0.0,0.0,0.0,0.0,0.0,0.0,0.0,-4.4587,-4.4587,-4.4587,-4.4587,-4.4643,-4.4852,-4.5459,-4.5511,-4.5783,-4.6383,-4.643,-4.643,-4.6383,-4.6383,-4.6112,-4.5511,-4.5511,-4.5178,-4.4587,-4.4587,-4.4961,-4.5545,-4.6143,-4.6756,-4.7428,-4.8035,-4.8306,-4.8172,-4.6892,-4.6801,-4.7342,-4.6664,-4.6864,-4.7385,-4.7385,-4.7797,-4.8306,-4.8306,-4.8306,-4.8306,-4.8306,-4.8306,-4.8306,-4.8306,-4.8306,-4.8306,-4.8306,-4.8306,-4.8306,-4.8306,-4.8306,-4.8306,-4.8306,-4.8306,-4.8306,-4.8306,-4.8306,-4.8306,-4.8306,-4.8306,-4.8306,-4.8306,-4.8306,-4.8306,-4.8306,-4.8306,-4.8306,-4.8306,-4.8306,-4.8306,-4.8306,-4.8306,-4.8306,-4.8306,-4.8306,-4.8306,-4.8306,-4.8306,-4.8306,-4.8306,-4.8306,-4.8306,-4.8306,-4.8306,-4.8306,-4.8306,-4.8306,-4.8306,-2.8298,0.0,0.0,0.0,0.0,0.0,0.0,0.0,0.0,0.0,0.0,0.0,0.0,0.0,0.0,0.0,0.0,0.0,0.0,0.0,0.0,0.0,0.0,-4.4587,-4.4587,-4.4587,-4.4587,-4.4587,-4.4998,-4.532,-4.5511,-4.6353,-4.6728,-4.643,-4.6864,-4.6864,-4.6413,-4.6383,-4.6336,-4.6143,-4.6143,-4.5597,-4.4587,-4.4587,-4.5178,-4.6143,-4.6336,-4.7044,-4.8035,-4.821,-4.8306,-4.8267,-4.7879,-4.7838,-4.8035,-4.7797,-4.7879,-4.8035,-4.8035,-4.8172,-4.8306,-4.8306,-4.8306,-4.8306,-4.8306,-4.8306,-4.8306,-4.8306,-4.8306,-4.8306,-4.8306,-4.8306,-4.8306,-4.8306,-4.8306,-4.8306,-4.8306,-4.8306,-4.8306,-4.8306,-4.8306,-4.8306,-4.8306,-4.8306,-4.8306,-4.8306,-4.8306,-4.8306,-4.8306,-4.8306,-4.8306,-4.8306,-4.8306,-4.8306,-4.8306,-4.8306,-4.8306,-4.8306,-4.8306,-4.8306,-4.8306,-4.8306,-4.8306,-4.8306,-4.8306,-4.8306,-4.8306,-4.8306,-4.8306,-4.8306,-4.8306,-4.8306,-2.9011,0.0,0.0,0.0,0.0,0.0,0.0,0.0,0.0,0.0,0.0,0.0,0.0,0.0,0.0,0.0,0.0,-4.1866,-4.2176,0.0,0.0,0.0,-4.466,-4.4636,-4.4927,-4.472,-4.472,-4.4961,-4.5267,-4.5732,-4.6209,-4.6955,-4.7324,-4.7176,-4.7554,-4.7554,-4.7176,-4.7176,-4.7026,-4.6819,-4.6819,-4.6305,-4.532,-4.532,-4.5883,-4.6801,-4.7044,-4.7596,-4.8306,-4.8306,-4.8306,-4.8306,-4.8306,-4.8306,-4.8306,-4.8306,-4.8306,-4.8306,-4.8306,-4.8306,-4.8306,-4.8306,-4.8306,-4.8306,-4.8306,-4.8306,-4.8306,-4.8306,-4.8306,-4.8306,-4.8306,-4.8306,-4.8306,-4.8306,-4.8306,-4.8306,-4.8306,-4.8306,-4.8306,-4.8306,-4.8306,-4.8306,-4.8306,-4.8306,-4.8306,-4.8306,-4.8306,-4.8306,-4.8306,-4.8306,-4.8306,-4.8306,-4.8306,-4.8306,-4.8306,-4.8306,-4.8306,-4.8306,-4.8306,-4.8306,-4.8306,-4.8306,-4.8306,-4.8306,-4.8306,-4.8306,-4.8306,-4.8306,-4.8306,-4.8306,-4.8306,-4.8306,0.0,0.0,0.0,0.0,0.0,0.0,0.0,0.0,0.0,0.0,0.0,0.0,0.0,0.0,0.0,0.0,-4.1064,-4.1392,-4.2037,-4.2705,0.0,-4.4911,-4.4576,-4.4508,-4.5234,-4.4793,-4.4702,-4.5252,-4.5458,-4.6055,-4.7234,-4.7391,-4.7756,-4.8267,-4.8306,-4.8306,-4.8306,-4.8306,-4.8017,-4.747,-4.747,-4.715,-4.6571,-4.6478,-4.6756,-4.7428,-4.8035,-4.8306,-4.8306,-4.8306,-4.8306,-4.8306,-4.8306,-4.8306,-4.8306,-4.8306,-4.8306,-4.8306,-4.8306,-4.8306,-4.8306,-4.8306,-4.8306,-4.8306,-4.8306,-4.8306,-4.8306,-4.8306,-4.8306,-4.8306,-4.8306,-4.8306,-4.8306,-4.8306,-4.8306,-4.8306,-4.8306,-4.8306,-4.8306,-4.8306,-4.8306,-4.8306,-4.8306,-4.8306,-4.8306,-4.8306,-4.8306,-4.8306,-4.8306,-4.8306,-4.8306,-4.8306,-4.8306,-4.8306,-4.8306,-4.8306,-4.8306,-4.8306,-4.8306,-4.8306,-4.8306,-4.8306,-4.8306,-4.8306,-4.8306,-4.8306,-4.8306,-4.8306,-4.8306,-4.8306,-4.8306,-4.8306,0.0,0.0,0.0,0.0,0.0,0.0,0.0,0.0,0.0,0.0,0.0,0.0,0.0,0.0,0.0,-4.0336,-4.0683,-4.1216,-4.1998,-4.2597,-4.3313,-4.4163,-4.379,-4.3504,-4.366,-4.3594,-4.3544,-4.3677,-4.5163,-4.6147,-4.6422,-4.751,-4.8172,-4.8306,-4.8306,-4.8306,-4.8306,-4.8306,-4.821,-4.8132,-4.8132,-4.8035,-4.7879,-4.6847,-4.6756,-4.7428,-4.8035,-4.8306,-4.8306,-4.8306,-4.8306,-4.8306,-4.8306,-4.8306,-4.8306,-4.8306,-4.8306,-4.8306,-4.8306,-4.8306,-4.8306,-4.8306,-4.8306,-4.8306,-4.8306,-4.8306,-4.8306,-4.8306,-4.8306,-4.8306,-4.8306,-4.8306,-4.8306,-4.8306,-4.8306,-4.8306,-4.8306,-4.8306,-4.8306,-4.8306,-4.8306,-4.8306,-4.8306,-4.8306,-4.8306,-4.8306,-4.8306,-4.8306,-4.8306,-4.8306,-4.8306,-4.8306,-4.8306,-4.8306,-4.8306,-4.8306,-4.8306,-4.8306,-4.8306,-4.8306,-4.8306,-4.8306,-4.8306,-4.8306,-4.8306,-4.8306,-4.8306,-4.8306,-4.8306,-4.8306,-4.8306,-4.8306,0.0,0.0,0.0,0.0,0.0,0.0,0.0,0.0,0.0,0.0,0.0,0.0,0.0,0.0,0.0,-4.0546,-4.0967,-4.1604,-4.2308,-4.2643,-4.3179,-4.4214,-4.3563,-4.3313,-4.4004,-4.3563,-4.3419,-4.3994,-4.5047,-4.5735,-4.6051,-4.6742,-4.715,-4.715,-4.7535,-4.7737,-4.7737,-4.8122,-4.8306,-4.8306,-4.8306,-4.8306,-4.8267,-4.7596,-4.7512,-4.7856,-4.8172,-4.8306,-4.8306,-4.8306,-4.8306,-4.8306,-4.8306,-4.8306,-4.8306,-4.8306,-4.8306,-4.8306,-4.8306,-4.8306,-4.8306,-4.8306,-4.8306,-4.8306,-4.8306,-4.8306,-4.8306,-4.8306,-4.8306,-4.8306,-4.8306,-4.8306,-4.8306,-4.8306,-4.8306,-4.8306,-4.8306,-4.8306,-4.8306,-4.8306,-4.8306,-4.8306,-4.8306,-4.8306,-4.8306,-4.8306,-4.8306,-4.8306,-4.8306,-4.8306,-4.8306,-4.8306,-4.8306,-4.8306,-4.8306,-4.8306,-4.8306,-4.8306,-4.8306,-4.8306,-4.8306,-4.8306,-4.8306,-4.8306,-4.8306,-4.8306,-4.8306,-4.8477,-4.8604,-4.8604,-4.8779,-4.8881,0.0,0.0,0.0,0.0,0.0,0.0,0.0,0.0,0.0,0.0,0.0,0.0,0.0,0.0,-4.0949,-4.1041,-4.1578,-4.2121,-4.2616,-4.2788,-4.3268,-4.438,-4.3534,-4.3315,-4.4471,-4.3695,-4.3515,-4.4543,-4.4831,-4.5176,-4.5663,-4.581,-4.5902,-4.5902,-4.6562,-4.6911,-4.6911,-4.7553,-4.7884,-4.7902,-4.8031,-4.8177,-4.8306,-4.8306,-4.8306,-4.8306,-4.8306,-4.8306,-4.8306,-4.8306,-4.8306,-4.8306,-4.8306,-4.8306,-4.8306,-4.8306,-4.8306,-4.8306,-4.8306,-4.8306,-4.8306,-4.8306,-4.8306,-4.8306,-4.8306,-4.8306,-4.8306,-4.8306,-4.8306,-4.8306,-4.8306,-4.8306,-4.8306,-4.8306,-4.8306,-4.8306,-4.8306,-4.8306,-4.8306,-4.8306,-4.8306,-4.8306,-4.8306,-4.8306,-4.8306,-4.8306,-4.8306,-4.8306,-4.8306,-4.8306,-4.8306,-4.8306,-4.8306,-4.8306,-4.8306,-4.8306,-4.8306,-4.8306,-4.8306,-4.8306,-4.8306,-4.8364,-4.8383,-4.8383,-4.8383,-4.8383,-4.8383,-4.8813,-4.8978,-4.9011,-4.9356,-4.9504,0.0,0.0,0.0,0.0,0.0,0.0,0.0,0.0,0.0,0.0,0.0,0.0,0.0,-4.0814,-4.1087,-4.1578,-4.2162,-4.2616,-4.2711,-4.3105,-4.3446,-4.3644,-4.3122,-4.2814,-4.3,-4.2843,-4.2843,-4.3018,-4.4089,-4.4784,-4.4874,-4.5516,-4.5902,-4.5902,-4.5993,-4.6067,-4.6067,-4.6177,-4.6214,-4.6232,-4.6948,-4.7645,-4.8306,-4.8306,-4.8306,-4.8306,-4.8306,-4.8306,-4.8306,-4.8306,-4.8306,-4.8306,-4.8306,-4.8306,-4.8306,-4.8306,-4.8306,-4.8306,-4.8306,-4.8306,-4.8306,-4.8306,-4.8306,-4.8306,-4.8306,-4.8306,-4.8306,-4.8306,-4.8306,-4.8306,-4.8306,-4.8306,-4.8306,-4.8306,-4.8306,-4.8306,-4.8306,-4.8306,-4.8306,-4.8306,-4.8306,-4.8306,-4.8306,-4.8306,-4.8306,-4.8306,-4.8306,-4.8306,-4.8306,-4.8306,-4.8306,-4.8306,-4.8306,-4.8306,-4.8306,-4.8306,-4.8306,-4.8306,-4.8306,-4.8306,-4.8306,-4.8621,-4.8813,-4.8813,-4.8813,-4.8813,-4.8813,-4.9234,-4.9416,-4.9416,-4.9475,-4.9504,0.0,0.0,0.0,0.0,0.0,0.0,0.0,0.0,0.0,0.0,0.0,0.0,0.0,-4.0227,-4.0951,-4.1506,-4.2445,-4.3142,-4.3142,-4.3375,-4.3497,-4.3497,-4.3014,-4.2826,-4.3142,-4.2864,-4.2808,-4.3142,-4.3704,-4.403,-4.403,-4.436,-4.4562,-4.4562,-4.4984,-4.5241,-4.5241,-4.5663,-4.5902,-4.5902,-4.6269,-4.6617,-4.6966,-4.6966,-4.7462,-4.8306,-4.8306,-4.8306,-4.8269,-4.7829,-4.7645,-4.759,-4.7131,-4.6966,-4.6966,-4.6966,-4.6966,-4.6966,-4.6966,-4.726,-4.7645,-4.7645,-4.7939,-4.8306,-4.8306,-4.8306,-4.8306,-4.8306,-4.8306,-4.8306,-4.8306,-4.8306,-4.8306,-4.8306,-4.8306,-4.8306,-4.8306,-4.8306,-4.8306,-4.8306,-4.8306,-4.8306,-4.8306,-4.8306,-4.8306,-4.8306,-4.8306,-4.8306,-4.8306,-4.8306,-4.8306,-4.8306,-4.8306,-4.8306,-4.8306,-4.8306,-4.8306,-4.8306,-4.8513,-4.864,-4.864,-4.9029,-4.9234,-4.9234,-4.9234,-4.9234,-4.9234,-4.9645,-4.9846,-4.9827,-5.0068,-5.0183,0.0,0.0,0.0,0.0,0.0,0.0,0.0,0.0,0.0,0.0,0.0,0.0,-3.8279,-3.9587,-4.0742,-4.1215,-4.2356,-4.3185,-4.3185,-4.3369,-4.3497,-4.3497,-4.3142,-4.305,-4.3444,-4.3142,-4.305,-4.3479,-4.3497,-4.3497,-4.3497,-4.3497,-4.3497,-4.3497,-4.4085,-4.4397,-4.4397,-4.4984,-4.5388,-4.5608,-4.5608,-4.57,-4.5902,-4.5902,-4.6544,-4.77,-4.77,-4.77,-4.7645,-4.7058,-4.6819,-4.6746,-4.614,-4.5902,-4.5902,-4.5902,-4.5902,-4.5902,-4.5902,-4.6287,-4.6819,-4.6819,-4.7205,-4.77,-4.77,-4.77,-4.77,-4.77,-4.77,-4.77,-4.77,-4.77,-4.77,-4.77,-4.77,-4.781,-4.8214,-4.8306,-4.8306,-4.8306,-4.8306,-4.8306,-4.8306,-4.8306,-4.8306,-4.8306,-4.8306,-4.8306,-4.8306,-4.8306,-4.8306,-4.8306,-4.8306,-4.8326,-4.8458,-4.8458,-4.8477,-4.8604,-4.8897,-4.9043,-4.9043,-4.9445,-4.9645,-4.9645,-4.9746,-4.9746,-4.9645,-5.0068,-5.0249,-5.0272,-5.0565,-5.0702,0.0,0.0,0.0,0.0,0.0,0.0,0.0,0.0,0.0,0.0,0.0,0.0,-3.7757,-3.9211,-4.0402,-4.1016,-4.1812,-4.2359,-4.2359,-4.302,-4.3497,-4.3497,-4.3497,-4.3479,-4.3497,-4.3479,-4.3479,-4.3497,-4.3497,-4.3497,-4.3497,-4.3497,-4.3497,-4.3497,-4.3534,-4.3552,-4.3552,-4.3589,-4.4011,-4.4764,-4.4764,-4.5168,-4.5902,-4.5902,-4.5957,-4.6012,-4.6012,-4.6012,-4.6012,-4.5975,-4.5957,-4.5957,-4.592,-4.5902,-4.5902,-4.5902,-4.5902,-4.5902,-4.5902,-4.592,-4.5957,-4.5957,-4.5993,-4.6012,-4.6012,-4.6012,-4.6012,-4.6012,-4.6012,-4.6012,-4.6012,-4.6012,-4.6012,-4.6012,-4.6012,-4.6434,-4.7976,-4.8306,-4.8306,-4.8306,-4.8306,-4.8306,-4.8306,-4.8306,-4.8306,-4.8306,-4.8306,-4.8306,-4.8306,-4.8306,-4.8306,-4.8306,-4.8306,-4.844,-4.8847,-4.8863,-4.9011,-4.9416,-4.9445,-4.9475,-4.9475,-4.9872,-5.0068,-5.0068,-5.0442,-5.0442,-5.0068,-5.0483,-5.0663,-5.0663,-5.0683,-5.0702,0.0,0.0,0.0,0.0,0.0,0.0,0.0,0.0,0.0,0.0,0.0,-3.7578,-3.8267,-3.9021,-3.9694,-4.024,-4.1001,-4.1534,-4.1534,-4.1791,-4.2158,-4.2671,-4.2727,-4.2928,-4.3442,-4.3497,-4.3497,-4.3497,-4.3497,-4.3497,-4.3497,-4.3497,-4.3497,-4.3497,-4.3497,-4.3497,-4.3497,-4.3497,-4.3626,-4.392,-4.392,-4.4066,-4.436,-4.436,-4.436,-4.436,-4.436,-4.4947,-4.5865,-4.5351,-4.5131,-4.5076,-4.4562,-4.436,-4.436,-4.436,-4.436,-4.436,-4.436,-4.469,-4.5131,-4.5131,-4.548,-4.5902,-4.5902,-4.5902,-4.5902,-4.5902,-4.5902,-4.5902,-4.5902,-4.5902,-4.5902,-4.5902,-4.5902,-4.6067,-4.6636,-4.7572,-4.8306,-4.8306,-4.8306,-4.8306,-4.8306,-4.8306,-4.8306,-4.8306,-4.8306,-4.8306,-4.8306,-4.8513,-4.8692,-4.8692,-4.8915,-4.9126,-4.9265,-4.9295,-4.9356,-4.9475,-4.9746,-4.9898,-4.9898,-5.0272,-5.0483,-5.0483,-5.0624,-5.0624,-5.0483,-5.0624,-5.0702,-5.0702,-5.0702,-5.0702,0.0,0.0,0.0,0.0,0.0,0.0,0.0,0.0,0.0,0.0,0.0,-3.8065,-3.8596,-3.8853,-3.9082,-3.9447,-4.0175,-4.0708,-4.0708,-4.0946,-4.1313,-4.1827,-4.1901,-4.2121,-4.2635,-4.269,-4.269,-4.269,-4.2928,0.0,-4.3094,-4.3332,-4.3497,-4.3497,-4.3497,-4.3497,-4.3497,-4.3497,-4.3497,-4.3497,-4.3497,-4.3497,-4.3497,-4.3497,-4.3497,-4.3497,-4.3497,-4.4103,-4.5039,-4.4525,-4.4305,-4.425,-4.3699,-4.3497,-4.3497,-4.3497,-4.3497,-4.3497,-4.3497,-4.3846,-4.4305,-4.4305,-4.4654,-4.5094,-4.5094,-4.5094,-4.5094,-4.5094,-4.5094,-4.5094,-4.5094,-4.5094,-4.5094,-4.5094,-4.5296,-4.5498,-4.5498,-4.6764,-4.7921,-4.7921,-4.8122,-4.8326,-4.8495,-4.8513,-4.855,-4.8657,-4.8692,-4.8692,-4.8692,-4.893,-4.9108,-4.9108,-4.9326,-4.9561,-4.9692,-4.9719,-4.9746,-4.9879,-5.0159,-5.0294,-5.0294,-5.0565,-5.0702,-5.0702,-5.0702,-5.0702,-5.0702,-5.0702,-5.0702,-5.0702,-5.0702,-5.0702,0.0,0.0,0.0,0.0,0.0,0.0,0.0,0.0,0.0,0.0,0.0,-3.8044,-3.8578,-3.8707,-3.8707,-3.8707,-3.935,-3.9845,-3.9845,-4.0543,-4.1056,-4.1075,-4.1075,-4.1075,-4.1111,-4.1111,-4.1111,-4.1111,-4.1827,-4.2268,-4.2268,-4.3002,-4.3424,-4.3442,-4.3442,-4.3461,-4.3497,-4.3497,-4.3497,-4.3497,-4.3497,-4.3497,-4.3497,-4.3497,-4.3497,-4.3497,-4.3497,-4.3497,-4.3497,-4.3497,-4.3497,-4.3497,-4.3497,-4.3497,-4.3497,-4.3497,-4.3497,-4.3497,-4.3497,-4.3497,-4.3497,-4.3497,-4.3497,-4.3497,-4.3497,-4.3497,-4.3497,-4.3497,-4.3497,-4.3497,-4.3497,-4.3497,-4.3497,-4.3497,-4.4103,-4.4672,-4.4672,-4.592,-4.702,-4.7075,-4.7737,-4.8402,-4.8795,-4.8897,-4.9011,-4.9416,-4.9475,-4.9504,-4.9504,-4.9504,-4.9504,-4.9504,-4.9532,-4.9692,-5.0068,-5.0135,-5.0272,-5.0683,-5.0702,-5.0702,-5.0702,-5.0702,-5.0702,-5.0702,-5.0702,-5.0702,-5.0702,-5.0702,-5.0702,-5.0702,-5.0702,-5.0702,-2.7736,0.0,0.0,0.0,0.0,0.0,0.0,0.0,0.0,0.0,-3.623,-3.7156,-3.8456,-3.8707,-3.8707,-3.8707,-3.8891,-3.9038,-3.9038,-3.9221,-3.9588,-4.0157,-4.023,-4.0469,-4.1056,-4.1111,-4.1111,0.0,-4.1313,-4.1442,-4.1442,-4.1644,-4.2029,-4.2598,-4.2635,-4.291,-4.3479,-4.3497,-4.3497,-4.3497,-4.3497,-4.3497,-4.3497,-4.3497,-4.3497,-4.3497,-4.3497,-4.3497,-4.3497,-4.3497,-4.3497,-4.3497,-4.3497,-4.3497,-4.3497,-4.3497,-4.3497,-4.3497,-4.3497,-4.3497,-4.3497,-4.3497,-4.3497,-4.3497,-4.3497,-4.3497,-4.3497,-4.3497,-4.3497,-4.3497,-4.3497,-4.3497,-4.3497,-4.3497,-4.3663,-4.3828,-4.3828,-4.4635,-4.5718,-4.6855,-4.7297,-4.7646,-4.8366,-4.8728,-4.893,-4.9043,-4.9326,-4.9504,-4.9504,-4.9746,-4.9924,-4.9924,-5.0183,-5.0421,-5.0504,-5.0544,-5.0565,-5.0683,-5.0702,-5.0702,-5.0702,-5.0702,-5.0702,-5.0702,-5.0702,-5.0702,-5.0702,-5.0702,-5.0702,-5.0702,-5.0702,-5.0702,0.0,0.0,0.0,0.0,0.0,0.0,-2.9944,-3.0782,-3.2067,0.0,-3.5107,-3.5752,-3.7404,-3.7129,-3.689,-3.7588,-3.7698,-3.7936,-3.8615,-3.8707,-3.8872,-3.9331,-3.9405,-3.9588,-4.0065,-4.0102,-4.0102,-4.0102,-4.0414,-4.0763,-4.1093,-4.1111,-4.1313,-4.1791,-4.1809,-4.2194,-4.2983,-4.3002,-4.3167,-4.3497,-4.3497,-4.3497,-4.3497,-4.3497,-4.3497,-4.3497,-4.3497,-4.3497,-4.3497,-4.3497,-4.3497,-4.3497,-4.3497,-4.3497,-4.3497,-4.3497,-4.3497,-4.3497,-4.3497,-4.3497,-4.3497,-4.3497,-4.3497,-4.3497,-4.3497,-4.3497,-4.3497,-4.3497,-4.3597,-4.3679,-4.3548,-4.3744,-4.3931,-4.3758,-4.3836,-4.3962,-4.3962,-4.4333,-4.4948,-4.5919,-4.6654,-4.7279,-4.7923,-4.8521,-4.9011,-4.9356,-4.9589,-4.98,-4.9974,-5.0225,-5.0358,-5.0358,-5.0565,-5.0702,-5.0702,-5.0702,-5.0702,-5.0702,-5.0702,-5.0702,-5.0702,-5.0702,-5.0702,-5.0702,-5.0702,-5.0702,-5.0702,-5.0702,-5.0702,-5.0702,-5.0702,-5.0702,0.0,0.0,0.0,0.0,0.0,0.0,-2.9214,-3.0228,-3.1641,0.0,0.0,-3.4045,-3.5716,-3.4798,-3.4284,-3.5771,-3.6174,-3.6853,-3.8469,-3.8707,-3.8707,-3.8707,-3.8707,-3.8707,-3.8707,-3.8707,-3.8707,-3.8707,-3.935,-4.0084,-4.0818,-4.0836,-4.0873,-4.0965,-4.0983,-4.1368,-4.2158,-4.2176,-4.2561,-4.3369,-4.3369,-4.3406,-4.3497,-4.3497,-4.3497,-4.3497,-4.3497,-4.3497,-4.3497,-4.3497,-4.3497,-4.3497,-4.3497,-4.3497,-4.3497,-4.3497,-4.3497,-4.3497,-4.3497,-4.3497,-4.3497,-4.3497,-4.3513,-4.3548,-4.3548,-4.3582,-4.3631,-4.3631,-4.3836,-4.3986,-4.3712,-4.4125,-4.4501,-4.4146,-4.4318,-4.458,-4.458,-4.458,-4.4617,-4.4687,-4.599,-4.7239,-4.7667,-4.8488,-4.9295,-4.9974,-5.0135,-5.0313,-5.0663,-5.0702,-5.0702,-5.0702,-5.0702,-5.0702,-5.0702,-5.0702,-5.0702,-5.0702,-5.0702,-5.0702,-5.0702,-5.0702,-5.0702,-5.0702,-5.0702,-5.0702,-5.0702,-5.0702,-5.0702,-5.0702,-5.0702,-5.0702,0.0,0.0,0.0,0.0,0.0,0.0,-3.0632,-3.0173,-3.0301,0.0,-3.2761,-3.2357,-3.399,-3.4027,-3.3917,-3.4229,-3.5422,-3.6853,-3.8469,-3.8707,-3.8707,-3.8707,-3.8707,-3.8707,-3.8707,-3.8707,-3.8707,-3.8707,-3.8854,-3.9001,-3.9166,-3.9184,-3.9478,-4.0102,-4.012,-4.0524,-4.1332,-4.135,-4.1754,-4.2525,-4.2525,-4.2873,-4.3497,-4.3497,-4.3497,-4.3497,-4.3497,-4.3497,-4.3497,-4.3497,-4.3497,-4.3497,-4.3497,-4.3497,-4.3497,-4.3497,-4.3497,-4.3497,-4.3497,-4.3497,-4.3497,-4.3497,-4.366,-4.3893,-4.3893,-4.4136,-4.4392,-4.4392,-4.4419,-4.4474,-4.4392,-4.4501,-4.458,-4.4501,-4.4553,-4.458,-4.458,-4.458,-4.461,-4.4617,-4.5923,-4.7266,-4.7983,-4.9078,-4.9924,-5.0068,-5.0377,-5.0604,-5.0683,-5.0702,-5.0702,-5.0702,-5.0702,-5.0702,-5.0702,-5.0702,-5.0702,-5.0702,-5.0702,-5.0702,-5.0702,-5.0702,-5.0702,-5.0702,-5.0702,-5.0702,-5.0702,-5.0702,-5.0702,-5.0702,-5.0702,-5.0702,0.0,0.0,0.0,-2.8994,0.0,0.0,0.0,-2.9586,-2.9696,-3.21,-3.1329,-3.0687,-3.2302,0.0,-3.1678,-3.2467,-3.3311,-3.4412,-3.6028,-3.7679,-3.8707,-3.8707,-3.8707,-3.8707,-3.8707,-3.8707,-3.8707,-3.8707,-3.8707,-3.8707,-3.8707,-3.8707,-3.8891,-3.9294,-3.9294,-3.9698,-4.0487,-4.0506,-4.091,-4.1699,-4.1699,-4.1919,-4.2323,-4.2708,-4.2892,-4.291,-4.3314,-4.3497,-4.3497,-4.3497,-4.3597,-4.3726,-4.3582,-4.3597,-4.3726,-4.3563,-4.3744,-4.4004,-4.3804,-4.3899,-4.4035,-4.4035,-4.4165,-4.429,-4.429,-4.4447,-4.458,-4.458,-4.4707,-4.4825,-4.4631,-4.4849,-4.5074,-4.4896,-4.4966,-4.5096,-4.5096,-4.5096,-4.5096,-4.5096,-4.6431,-4.7577,-4.7597,-4.8813,-4.9872,-5.0068,-5.0272,-5.0483,-5.0663,-5.0702,-5.0702,-5.0702,-5.0702,-5.0702,-5.0702,-5.0702,-5.0702,-5.0702,-5.0702,-5.0702,-5.0702,-5.0702,-5.0702,-5.0702,-5.0702,-5.0702,-5.0702,-5.0702,-5.0702,-5.0683,-5.024,-5.0048,0.0,0.0,0.0,0.0,0.0,-2.8994,0.0,0.0,0.0,0.0,0.0,0.0,0.0,0.0,0.0,0.0,0.0,0.0,0.0,-3.5899,0.0,-3.7771,-3.7771,-3.7881,-3.8212,-3.8524,-3.8707,-3.8707,-3.8707,-3.8707,-3.8707,-3.8707,-3.8707,-3.8707,-3.8707,-3.9019,-3.9662,-3.9662,-4.0065,-4.0873,-4.0873,-4.0965,-4.113,-4.1772,-4.2066,-4.2121,-4.2763,-4.313,-4.3259,-4.3343,-4.361,-4.3986,-4.3693,-4.3804,-4.4058,-4.3804,-4.4095,-4.4553,-4.4233,-4.4337,-4.458,-4.458,-4.4631,-4.4726,-4.4757,-4.4781,-4.4781,-4.4781,-4.4988,-4.5118,-4.4853,-4.5182,-4.5531,-4.5263,-4.54,-4.5586,-4.5586,-4.5586,-4.5586,-4.5586,-4.6951,-4.7913,-4.7302,-4.8628,-4.9827,-5.0159,-5.0225,-5.0336,-5.0663,-5.0702,-5.0702,-5.0702,-5.0702,-5.0702,-5.0702,-5.0702,-5.0702,-5.0702,-5.0702,-5.0702,-5.0702,-5.0702,-5.0702,-5.0702,-5.0702,-5.0606,-5.0452,-5.0452,-5.0452,-5.0433,-4.9721,-4.9317,0.0,0.0,0.0,0.0,-2.8994,0.0,0.0,0.0,-2.9049,-2.9214,0.0,0.0,0.0,0.0,0.0,0.0,0.0,0.0,-3.1641,-3.322,-3.4357,-3.4357,-3.4357,-3.4945,-3.6431,-3.7863,-3.8707,-3.8707,-3.8707,-3.8707,-3.8707,-3.8707,-3.8707,-3.8707,-3.8707,-3.8744,-3.8836,-3.8836,-3.9239,-4.0029,-4.0029,-4.0414,-4.1111,-4.1203,-4.1258,-4.1258,-4.135,-4.1791,-4.2466,-4.2743,-4.3316,-4.4016,-4.3955,-4.4175,-4.4527,-4.4474,-4.4527,-4.458,-4.4553,-4.4553,-4.458,-4.458,-4.48,-4.5096,-4.54,-4.5495,-4.5495,-4.5495,-4.5513,-4.5531,-4.5495,-4.5531,-4.5586,-4.555,-4.5568,-4.5586,-4.5586,-4.5586,-4.5586,-4.5586,-4.6951,-4.8068,-4.7991,-4.9412,-5.0584,-5.0624,-5.0624,-5.0663,-5.0683,-5.0702,-5.0702,-5.0702,-5.0702,-5.0702,-5.0702,-5.0702,-5.0702,-5.0702,-5.0702,-5.0702,-5.0702,-5.0702,-5.0702,-5.0702,-5.0702,-5.0317,-4.9548,-4.9548,-4.9548,-4.9548,-4.9452,-4.899,0.0,0.0,0.0,0.0,0.0,0.0,-2.9195,0.0,-2.8994,0.0,0.0,0.0,0.0,0.0,0.0,0.0,-2.9586,0.0,0.0,0.0,-3.1715,0.0,0.0,0.0,-3.6138,-3.6028,-3.6266,-3.7221,-3.7312,-3.7312,-3.7312,-3.8193,-3.8707,-3.8707,-3.8707,-3.8707,-3.8707,-3.8707,-3.8872,-3.9203,-3.9203,-3.9455,-3.996,-4.0422,-4.0644,-4.0663,-4.1181,-4.1588,-4.1884,-4.2047,-4.2819,-4.3876,-4.3876,-4.4297,-4.4872,-4.4657,-4.4849,-4.5161,-4.4966,-4.5011,-4.5182,-4.5182,-4.5263,-4.5419,-4.5568,-4.5586,-4.5586,-4.5586,-4.5586,-4.5586,-4.5586,-4.5586,-4.5586,-4.5586,-4.5586,-4.5586,-4.5586,-4.5586,-4.5586,-4.5586,-4.6586,-4.7548,-4.8029,-4.9548,-5.0702,-5.0702,-5.0702,-5.0702,-5.0702,-5.0702,-5.0702,-5.0702,-5.0702,-5.0702,-5.0702,-5.0702,-5.0702,-5.0702,-5.0702,-5.0702,-5.0702,-5.0702,-5.0452,-4.9952,-4.9952,-4.951,-4.8644,-4.8644,-4.8413,-4.7952,-4.7952,-4.7759,-3.1733,0.0,0.0,0.0,0.0,0.0,0.0,0.0,0.0,0.0,0.0,0.0,0.0,0.0,0.0,0.0,0.0,-2.8994,0.0,-2.9067,0.0,0.0,0.0,0.0,0.0,-3.4336,-3.4365,-3.5724,-3.5754,-3.5956,-3.649,-3.7637,-3.8469,-3.8942,-3.896,-3.896,-3.896,-3.896,-3.896,-3.896,-3.896,-3.9045,-3.9275,-3.9848,-4.0128,-4.0147,-4.0782,-4.1193,-4.1399,-4.1488,-4.2289,-4.3495,-4.3805,-4.4324,-4.4876,-4.489,-4.5182,-4.5568,-4.5322,-4.54,-4.5586,-4.5586,-4.5586,-4.5586,-4.5586,-4.5586,-4.5586,-4.5586,-4.5586,-4.5586,-4.5586,-4.5586,-4.5586,-4.5586,-4.5586,-4.5586,-4.5586,-4.5586,-4.5586,-4.5586,-4.6297,-4.7086,-4.7682,-4.9202,-5.0414,-5.0644,-5.0702,-5.0702,-5.0702,-5.0702,-5.0702,-5.0702,-5.0702,-5.0702,-5.0702,-5.0471,-5.024,-4.999,-4.999,-4.999,-4.999,-4.999,-4.9683,-4.9067,-4.9048,-4.8625,-4.7778,-4.7778,-4.7355,-4.6547,-4.6797,-4.6778,0.0,0.0,0.0,-3.333,0.0,0.0,0.0,0.0,-2.8994,0.0,0.0,0.0,0.0,0.0,0.0,0.0,0.0,0.0,0.0,0.0,0.0,0.0,0.0,0.0,0.0,-3.3184,-3.4005,-3.4526,-3.4381,-3.5091,-3.6961,-3.7115,-3.789,-3.9519,-3.9576,-3.9576,-3.9576,-3.9576,-3.9576,-3.9576,-3.9576,-3.9576,-3.9599,-3.9595,-3.9614,-3.9614,-3.9632,-4.0123,-4.0858,-4.1176,-4.1796,-4.2676,-4.3826,-4.4299,-4.4414,-4.526,-4.5586,-4.5586,-4.5586,-4.5586,-4.5586,-4.5586,-4.5586,-4.5586,-4.5586,-4.5586,-4.5586,-4.5586,-4.5586,-4.5586,-4.5586,-4.5586,-4.5586,-4.5586,-4.5586,-4.5586,-4.5586,-4.5586,-4.5586,-4.5586,-4.6297,-4.6913,-4.6932,-4.8336,-4.9721,-5.0567,-5.0702,-5.0702,-5.0702,-5.0702,-5.0702,-5.0702,-5.0702,-5.0702,-5.0702,-4.9933,-4.9086,-4.824,-4.8182,-4.8182,-4.8182,-4.8182,-4.8182,-4.8144,-4.8144,-4.774,-4.6951,-4.6951,-4.649,-4.5663,-4.6509,-4.6451,0.0,0.0,-3.4761,-3.5312,0.0,0.0,0.0,0.0,0.0,0.0,0.0,0.0,0.0,0.0,0.0,0.0,0.0,0.0,0.0,0.0,0.0,0.0,0.0,0.0,0.0,0.0,-3.1592,-3.2824,-3.2857,-3.3609,-3.5409,-3.6519,-3.7875,-3.9542,-3.9599,-3.9599,-3.9599,-3.9599,-3.9599,-3.9599,-3.9599,-3.9731,-3.9922,-3.9922,-3.9922,-3.9922,-3.9922,-4.0093,-4.0359,-4.0461,-4.1113,-4.2082,-4.2494,-4.3316,-4.4412,-4.5278,-4.5586,-4.5586,-4.5586,-4.5586,-4.5586,-4.5586,-4.5586,-4.5586,-4.5586,-4.5586,-4.5586,-4.5586,-4.5586,-4.5586,-4.5586,-4.5586,-4.5586,-4.5586,-4.5586,-4.5586,-4.5586,-4.5586,-4.5586,-4.5586,-4.5836,-4.622,-4.6797,-4.7375,-4.8221,-4.9625,-4.9837,-5.0048,-5.0625,-5.0202,-4.9837,-4.9837,-4.9317,-4.8971,-4.8971,-4.8702,-4.8413,-4.8125,-4.8105,-4.8105,-4.8105,-4.8105,-4.7855,-4.7317,-4.7317,-4.6894,-4.6028,-4.6028,-4.5893,-4.5605,-4.5893,-4.5874,-3.6853,-3.6743,0.0,-3.7019,-3.5459,0.0,-3.3238,0.0,-3.0723,0.0,0.0,0.0,0.0,0.0,0.0,0.0,0.0,0.0,0.0,-2.9796,0.0,0.0,0.0,0.0,0.0,-3.0352,-3.013,-3.1167,-3.1242,-3.2298,-3.4718,-3.5816,-3.7466,-3.9848,-3.9905,-3.9905,-3.9905,-3.9905,-3.9905,-3.9905,-3.9905,-4.0024,-4.0232,-4.0232,-4.0232,-4.0232,-4.0232,-4.0232,-4.0232,-4.0232,-4.0684,-4.1373,-4.1681,-4.247,-4.3547,-4.4701,-4.5316,-4.5586,-4.5586,-4.5586,-4.5586,-4.5586,-4.5586,-4.5586,-4.5586,-4.5586,-4.572,-4.6317,-4.6047,-4.574,-4.6317,-4.6047,-4.5586,-4.5586,-4.5586,-4.5586,-4.5586,-4.5586,-4.5586,-4.5586,-4.5586,-4.5778,-4.6336,-4.6432,-4.7009,-4.8682,-4.8933,-4.9144,-4.9702,-4.9279,-4.8933,-4.8933,-4.8432,-4.799,-4.7702,-4.7682,-4.7548,-4.7221,-4.7201,-4.7201,-4.7201,-4.7201,-4.6971,-4.6451,-4.6432,-4.6163,-4.5586,-4.5586,-4.5586,-4.5586,-4.5586,-4.5586]}]]